<?xml version="1.0" encoding="UTF-8" standalone="no" ?>
<gpx xmlns="http://www.topografix.com/GPX/1/1" xmlns:xsi="http://www.w3.org/2001/XMLSchema-instance" xsi:schemaLocation="http://www.topografix.com/GPX/1/1 http://www.topografix.com/GPX/1/1/gpx.xsd" version="1.1" creator="VisuGPX - https://www.visugpx.com">
  <metadata>
    <name>Sortie_cyclo_30_05_2013 (Lannion-Plougonver)</name>
    <desc><![CDATA[Circuit de bosses.]]></desc>
  </metadata>
  <trk>
    <name><![CDATA[30-MAI-13 13:00:39]]></name>
    <trkseg>
      <trkpt lat="48.74694" lon="-3.45496">
        <ele>90.5</ele>
        <time>2013-05-30T07:14:19Z</time>
      </trkpt>
      <trkpt lat="48.74693" lon="-3.45497">
        <ele>90.5</ele>
        <time>2013-05-30T07:14:35Z</time>
      </trkpt>
      <trkpt lat="48.74693" lon="-3.45496">
        <ele>90.02</ele>
        <time>2013-05-30T07:14:49Z</time>
      </trkpt>
      <trkpt lat="48.74693" lon="-3.45499">
        <ele>90.02</ele>
        <time>2013-05-30T07:14:52Z</time>
      </trkpt>
      <trkpt lat="48.74692" lon="-3.45515">
        <ele>89.54</ele>
        <time>2013-05-30T07:14:57Z</time>
      </trkpt>
      <trkpt lat="48.74677" lon="-3.45517">
        <ele>89.54</ele>
        <time>2013-05-30T07:15:01Z</time>
      </trkpt>
      <trkpt lat="48.74674" lon="-3.45514">
        <ele>89.54</ele>
        <time>2013-05-30T07:15:02Z</time>
      </trkpt>
      <trkpt lat="48.74661" lon="-3.45503">
        <ele>89.06</ele>
        <time>2013-05-30T07:15:05Z</time>
      </trkpt>
      <trkpt lat="48.74656" lon="-3.45499">
        <ele>88.58</ele>
        <time>2013-05-30T07:15:06Z</time>
      </trkpt>
      <trkpt lat="48.74651" lon="-3.45495">
        <ele>88.58</ele>
        <time>2013-05-30T07:15:07Z</time>
      </trkpt>
      <trkpt lat="48.74646" lon="-3.4549">
        <ele>88.58</ele>
        <time>2013-05-30T07:15:08Z</time>
      </trkpt>
      <trkpt lat="48.74641" lon="-3.45486">
        <ele>87.62</ele>
        <time>2013-05-30T07:15:09Z</time>
      </trkpt>
      <trkpt lat="48.74631" lon="-3.45478">
        <ele>86.66</ele>
        <time>2013-05-30T07:15:11Z</time>
      </trkpt>
      <trkpt lat="48.74625" lon="-3.45476">
        <ele>86.66</ele>
        <time>2013-05-30T07:15:12Z</time>
      </trkpt>
      <trkpt lat="48.74619" lon="-3.45476">
        <ele>86.18</ele>
        <time>2013-05-30T07:15:13Z</time>
      </trkpt>
      <trkpt lat="48.74613" lon="-3.45479">
        <ele>86.18</ele>
        <time>2013-05-30T07:15:14Z</time>
      </trkpt>
      <trkpt lat="48.74608" lon="-3.45485">
        <ele>85.21</ele>
        <time>2013-05-30T07:15:15Z</time>
      </trkpt>
      <trkpt lat="48.74603" lon="-3.45491">
        <ele>83.77</ele>
        <time>2013-05-30T07:15:16Z</time>
      </trkpt>
      <trkpt lat="48.74599" lon="-3.45497">
        <ele>82.81</ele>
        <time>2013-05-30T07:15:17Z</time>
      </trkpt>
      <trkpt lat="48.74596" lon="-3.45503">
        <ele>81.85</ele>
        <time>2013-05-30T07:15:18Z</time>
      </trkpt>
      <trkpt lat="48.74594" lon="-3.45508">
        <ele>81.37</ele>
        <time>2013-05-30T07:15:19Z</time>
      </trkpt>
      <trkpt lat="48.74593" lon="-3.45512">
        <ele>80.89</ele>
        <time>2013-05-30T07:15:20Z</time>
      </trkpt>
      <trkpt lat="48.74593" lon="-3.45514">
        <ele>80.89</ele>
        <time>2013-05-30T07:15:21Z</time>
      </trkpt>
      <trkpt lat="48.74597" lon="-3.45513">
        <ele>80.89</ele>
        <time>2013-05-30T07:15:32Z</time>
      </trkpt>
      <trkpt lat="48.74597" lon="-3.45514">
        <ele>80.89</ele>
        <time>2013-05-30T07:15:38Z</time>
      </trkpt>
      <trkpt lat="48.74596" lon="-3.45516">
        <ele>80.89</ele>
        <time>2013-05-30T07:15:39Z</time>
      </trkpt>
      <trkpt lat="48.74594" lon="-3.45516">
        <ele>80.89</ele>
        <time>2013-05-30T07:15:40Z</time>
      </trkpt>
      <trkpt lat="48.74592" lon="-3.45516">
        <ele>80.41</ele>
        <time>2013-05-30T07:15:41Z</time>
      </trkpt>
      <trkpt lat="48.74589" lon="-3.45515">
        <ele>79.93</ele>
        <time>2013-05-30T07:15:42Z</time>
      </trkpt>
      <trkpt lat="48.74586" lon="-3.45512">
        <ele>79.93</ele>
        <time>2013-05-30T07:15:43Z</time>
      </trkpt>
      <trkpt lat="48.74582" lon="-3.45509">
        <ele>79.93</ele>
        <time>2013-05-30T07:15:44Z</time>
      </trkpt>
      <trkpt lat="48.74578" lon="-3.45504">
        <ele>79.45</ele>
        <time>2013-05-30T07:15:45Z</time>
      </trkpt>
      <trkpt lat="48.74544" lon="-3.45447">
        <ele>75.6</ele>
        <time>2013-05-30T07:15:52Z</time>
      </trkpt>
      <trkpt lat="48.74538" lon="-3.45436">
        <ele>75.6</ele>
        <time>2013-05-30T07:15:53Z</time>
      </trkpt>
      <trkpt lat="48.74492" lon="-3.45363">
        <ele>77.52</ele>
        <time>2013-05-30T07:16:02Z</time>
      </trkpt>
      <trkpt lat="48.74474" lon="-3.45342">
        <ele>80.41</ele>
        <time>2013-05-30T07:16:08Z</time>
      </trkpt>
      <trkpt lat="48.74435" lon="-3.45294">
        <ele>83.29</ele>
        <time>2013-05-30T07:16:21Z</time>
      </trkpt>
      <trkpt lat="48.74395" lon="-3.45253">
        <ele>86.18</ele>
        <time>2013-05-30T07:16:32Z</time>
      </trkpt>
      <trkpt lat="48.74387" lon="-3.45245">
        <ele>86.66</ele>
        <time>2013-05-30T07:16:34Z</time>
      </trkpt>
      <trkpt lat="48.74383" lon="-3.45241">
        <ele>86.66</ele>
        <time>2013-05-30T07:16:35Z</time>
      </trkpt>
      <trkpt lat="48.74378" lon="-3.45238">
        <ele>87.14</ele>
        <time>2013-05-30T07:16:36Z</time>
      </trkpt>
      <trkpt lat="48.74331" lon="-3.45213">
        <ele>84.73</ele>
        <time>2013-05-30T07:16:45Z</time>
      </trkpt>
      <trkpt lat="48.74299" lon="-3.45178">
        <ele>81.85</ele>
        <time>2013-05-30T07:16:50Z</time>
      </trkpt>
      <trkpt lat="48.74293" lon="-3.45169">
        <ele>81.37</ele>
        <time>2013-05-30T07:16:51Z</time>
      </trkpt>
      <trkpt lat="48.74287" lon="-3.45158">
        <ele>81.37</ele>
        <time>2013-05-30T07:16:52Z</time>
      </trkpt>
      <trkpt lat="48.74282" lon="-3.45146">
        <ele>81.85</ele>
        <time>2013-05-30T07:16:53Z</time>
      </trkpt>
      <trkpt lat="48.74277" lon="-3.45134">
        <ele>81.37</ele>
        <time>2013-05-30T07:16:54Z</time>
      </trkpt>
      <trkpt lat="48.74273" lon="-3.4512">
        <ele>79.93</ele>
        <time>2013-05-30T07:16:55Z</time>
      </trkpt>
      <trkpt lat="48.74269" lon="-3.45105">
        <ele>79.45</ele>
        <time>2013-05-30T07:16:56Z</time>
      </trkpt>
      <trkpt lat="48.74267" lon="-3.4509">
        <ele>78.97</ele>
        <time>2013-05-30T07:16:57Z</time>
      </trkpt>
      <trkpt lat="48.74265" lon="-3.45074">
        <ele>78.97</ele>
        <time>2013-05-30T07:16:58Z</time>
      </trkpt>
      <trkpt lat="48.74264" lon="-3.45058">
        <ele>78.48</ele>
        <time>2013-05-30T07:16:59Z</time>
      </trkpt>
      <trkpt lat="48.74264" lon="-3.45041">
        <ele>78.48</ele>
        <time>2013-05-30T07:17:00Z</time>
      </trkpt>
      <trkpt lat="48.74265" lon="-3.44972">
        <ele>76.08</ele>
        <time>2013-05-30T07:17:04Z</time>
      </trkpt>
      <trkpt lat="48.74267" lon="-3.44865">
        <ele>73.2</ele>
        <time>2013-05-30T07:17:10Z</time>
      </trkpt>
      <trkpt lat="48.74269" lon="-3.44777">
        <ele>69.83</ele>
        <time>2013-05-30T07:17:15Z</time>
      </trkpt>
      <trkpt lat="48.74269" lon="-3.44759">
        <ele>69.83</ele>
        <time>2013-05-30T07:17:16Z</time>
      </trkpt>
      <trkpt lat="48.74261" lon="-3.44674">
        <ele>66.47</ele>
        <time>2013-05-30T07:17:21Z</time>
      </trkpt>
      <trkpt lat="48.74255" lon="-3.44647">
        <ele>64.55</ele>
        <time>2013-05-30T07:17:23Z</time>
      </trkpt>
      <trkpt lat="48.7425" lon="-3.44636">
        <ele>64.55</ele>
        <time>2013-05-30T07:17:24Z</time>
      </trkpt>
      <trkpt lat="48.74232" lon="-3.44606">
        <ele>63.58</ele>
        <time>2013-05-30T07:17:27Z</time>
      </trkpt>
      <trkpt lat="48.74225" lon="-3.44598">
        <ele>63.1</ele>
        <time>2013-05-30T07:17:28Z</time>
      </trkpt>
      <trkpt lat="48.74217" lon="-3.44592">
        <ele>62.62</ele>
        <time>2013-05-30T07:17:29Z</time>
      </trkpt>
      <trkpt lat="48.74209" lon="-3.44587">
        <ele>61.66</ele>
        <time>2013-05-30T07:17:30Z</time>
      </trkpt>
      <trkpt lat="48.74201" lon="-3.44583">
        <ele>61.18</ele>
        <time>2013-05-30T07:17:31Z</time>
      </trkpt>
      <trkpt lat="48.74093" lon="-3.44536">
        <ele>58.3</ele>
        <time>2013-05-30T07:17:43Z</time>
      </trkpt>
      <trkpt lat="48.74074" lon="-3.44527">
        <ele>57.34</ele>
        <time>2013-05-30T07:17:45Z</time>
      </trkpt>
      <trkpt lat="48.73995" lon="-3.44496">
        <ele>54.45</ele>
        <time>2013-05-30T07:17:54Z</time>
      </trkpt>
      <trkpt lat="48.73988" lon="-3.44495">
        <ele>53.97</ele>
        <time>2013-05-30T07:17:55Z</time>
      </trkpt>
      <trkpt lat="48.73981" lon="-3.44498">
        <ele>53.97</ele>
        <time>2013-05-30T07:17:56Z</time>
      </trkpt>
      <trkpt lat="48.73968" lon="-3.44503">
        <ele>53.49</ele>
        <time>2013-05-30T07:17:58Z</time>
      </trkpt>
      <trkpt lat="48.73962" lon="-3.44502">
        <ele>53.49</ele>
        <time>2013-05-30T07:17:59Z</time>
      </trkpt>
      <trkpt lat="48.73955" lon="-3.44499">
        <ele>53.01</ele>
        <time>2013-05-30T07:18:00Z</time>
      </trkpt>
      <trkpt lat="48.73949" lon="-3.44494">
        <ele>53.01</ele>
        <time>2013-05-30T07:18:01Z</time>
      </trkpt>
      <trkpt lat="48.73943" lon="-3.44488">
        <ele>53.01</ele>
        <time>2013-05-30T07:18:02Z</time>
      </trkpt>
      <trkpt lat="48.73937" lon="-3.44482">
        <ele>53.49</ele>
        <time>2013-05-30T07:18:03Z</time>
      </trkpt>
      <trkpt lat="48.73932" lon="-3.44477">
        <ele>53.01</ele>
        <time>2013-05-30T07:18:04Z</time>
      </trkpt>
      <trkpt lat="48.73926" lon="-3.44474">
        <ele>53.01</ele>
        <time>2013-05-30T07:18:05Z</time>
      </trkpt>
      <trkpt lat="48.73919" lon="-3.44472">
        <ele>53.01</ele>
        <time>2013-05-30T07:18:06Z</time>
      </trkpt>
      <trkpt lat="48.73857" lon="-3.44451">
        <ele>49.65</ele>
        <time>2013-05-30T07:18:14Z</time>
      </trkpt>
      <trkpt lat="48.73838" lon="-3.44448">
        <ele>49.16</ele>
        <time>2013-05-30T07:18:16Z</time>
      </trkpt>
      <trkpt lat="48.73829" lon="-3.4445">
        <ele>48.68</ele>
        <time>2013-05-30T07:18:17Z</time>
      </trkpt>
      <trkpt lat="48.73801" lon="-3.44459">
        <ele>46.76</ele>
        <time>2013-05-30T07:18:20Z</time>
      </trkpt>
      <trkpt lat="48.73792" lon="-3.44465">
        <ele>46.28</ele>
        <time>2013-05-30T07:18:21Z</time>
      </trkpt>
      <trkpt lat="48.73766" lon="-3.44489">
        <ele>44.84</ele>
        <time>2013-05-30T07:18:24Z</time>
      </trkpt>
      <trkpt lat="48.73756" lon="-3.44494">
        <ele>44.36</ele>
        <time>2013-05-30T07:18:25Z</time>
      </trkpt>
      <trkpt lat="48.73746" lon="-3.44496">
        <ele>43.88</ele>
        <time>2013-05-30T07:18:26Z</time>
      </trkpt>
      <trkpt lat="48.73735" lon="-3.44496">
        <ele>43.4</ele>
        <time>2013-05-30T07:18:27Z</time>
      </trkpt>
      <trkpt lat="48.73725" lon="-3.44492">
        <ele>42.44</ele>
        <time>2013-05-30T07:18:28Z</time>
      </trkpt>
      <trkpt lat="48.73715" lon="-3.44486">
        <ele>41.95</ele>
        <time>2013-05-30T07:18:29Z</time>
      </trkpt>
      <trkpt lat="48.73706" lon="-3.4448">
        <ele>41.47</ele>
        <time>2013-05-30T07:18:30Z</time>
      </trkpt>
      <trkpt lat="48.73646" lon="-3.44434">
        <ele>41.95</ele>
        <time>2013-05-30T07:18:38Z</time>
      </trkpt>
      <trkpt lat="48.73607" lon="-3.44414">
        <ele>43.88</ele>
        <time>2013-05-30T07:18:47Z</time>
      </trkpt>
      <trkpt lat="48.7356" lon="-3.44408">
        <ele>46.76</ele>
        <time>2013-05-30T07:18:59Z</time>
      </trkpt>
      <trkpt lat="48.7351" lon="-3.44419">
        <ele>49.16</ele>
        <time>2013-05-30T07:19:12Z</time>
      </trkpt>
      <trkpt lat="48.73462" lon="-3.44457">
        <ele>52.05</ele>
        <time>2013-05-30T07:19:27Z</time>
      </trkpt>
      <trkpt lat="48.73461" lon="-3.44463">
        <ele>52.05</ele>
        <time>2013-05-30T07:19:28Z</time>
      </trkpt>
      <trkpt lat="48.73459" lon="-3.44469">
        <ele>52.05</ele>
        <time>2013-05-30T07:19:29Z</time>
      </trkpt>
      <trkpt lat="48.73457" lon="-3.44474">
        <ele>52.53</ele>
        <time>2013-05-30T07:19:30Z</time>
      </trkpt>
      <trkpt lat="48.73455" lon="-3.44479">
        <ele>52.05</ele>
        <time>2013-05-30T07:19:31Z</time>
      </trkpt>
      <trkpt lat="48.73452" lon="-3.44483">
        <ele>52.53</ele>
        <time>2013-05-30T07:19:32Z</time>
      </trkpt>
      <trkpt lat="48.73448" lon="-3.44487">
        <ele>52.53</ele>
        <time>2013-05-30T07:19:33Z</time>
      </trkpt>
      <trkpt lat="48.73444" lon="-3.44489">
        <ele>52.53</ele>
        <time>2013-05-30T07:19:34Z</time>
      </trkpt>
      <trkpt lat="48.7344" lon="-3.44491">
        <ele>52.53</ele>
        <time>2013-05-30T07:19:35Z</time>
      </trkpt>
      <trkpt lat="48.73436" lon="-3.44491">
        <ele>53.01</ele>
        <time>2013-05-30T07:19:36Z</time>
      </trkpt>
      <trkpt lat="48.73432" lon="-3.4449">
        <ele>53.01</ele>
        <time>2013-05-30T07:19:37Z</time>
      </trkpt>
      <trkpt lat="48.73427" lon="-3.44489">
        <ele>53.49</ele>
        <time>2013-05-30T07:19:38Z</time>
      </trkpt>
      <trkpt lat="48.73423" lon="-3.44489">
        <ele>53.01</ele>
        <time>2013-05-30T07:19:39Z</time>
      </trkpt>
      <trkpt lat="48.73418" lon="-3.44489">
        <ele>53.49</ele>
        <time>2013-05-30T07:19:40Z</time>
      </trkpt>
      <trkpt lat="48.73414" lon="-3.44491">
        <ele>53.49</ele>
        <time>2013-05-30T07:19:41Z</time>
      </trkpt>
      <trkpt lat="48.73411" lon="-3.44494">
        <ele>53.97</ele>
        <time>2013-05-30T07:19:42Z</time>
      </trkpt>
      <trkpt lat="48.73407" lon="-3.44498">
        <ele>53.97</ele>
        <time>2013-05-30T07:19:43Z</time>
      </trkpt>
      <trkpt lat="48.73383" lon="-3.44518">
        <ele>54.45</ele>
        <time>2013-05-30T07:19:49Z</time>
      </trkpt>
      <trkpt lat="48.73379" lon="-3.4452">
        <ele>53.97</ele>
        <time>2013-05-30T07:19:50Z</time>
      </trkpt>
      <trkpt lat="48.73374" lon="-3.44521">
        <ele>54.93</ele>
        <time>2013-05-30T07:19:51Z</time>
      </trkpt>
      <trkpt lat="48.73356" lon="-3.44522">
        <ele>54.93</ele>
        <time>2013-05-30T07:19:55Z</time>
      </trkpt>
      <trkpt lat="48.73352" lon="-3.4452">
        <ele>54.45</ele>
        <time>2013-05-30T07:19:56Z</time>
      </trkpt>
      <trkpt lat="48.73348" lon="-3.44518">
        <ele>54.45</ele>
        <time>2013-05-30T07:19:57Z</time>
      </trkpt>
      <trkpt lat="48.73344" lon="-3.44516">
        <ele>54.93</ele>
        <time>2013-05-30T07:19:58Z</time>
      </trkpt>
      <trkpt lat="48.7334" lon="-3.44513">
        <ele>54.93</ele>
        <time>2013-05-30T07:19:59Z</time>
      </trkpt>
      <trkpt lat="48.73312" lon="-3.44493">
        <ele>56.37</ele>
        <time>2013-05-30T07:20:06Z</time>
      </trkpt>
      <trkpt lat="48.73309" lon="-3.44489">
        <ele>56.37</ele>
        <time>2013-05-30T07:20:07Z</time>
      </trkpt>
      <trkpt lat="48.73269" lon="-3.44435">
        <ele>56.86</ele>
        <time>2013-05-30T07:20:19Z</time>
      </trkpt>
      <trkpt lat="48.7325" lon="-3.44418">
        <ele>57.82</ele>
        <time>2013-05-30T07:20:24Z</time>
      </trkpt>
      <trkpt lat="48.73211" lon="-3.44389">
        <ele>59.26</ele>
        <time>2013-05-30T07:20:34Z</time>
      </trkpt>
      <trkpt lat="48.73207" lon="-3.44387">
        <ele>59.74</ele>
        <time>2013-05-30T07:20:35Z</time>
      </trkpt>
      <trkpt lat="48.73203" lon="-3.44387">
        <ele>59.74</ele>
        <time>2013-05-30T07:20:36Z</time>
      </trkpt>
      <trkpt lat="48.73199" lon="-3.44388">
        <ele>59.74</ele>
        <time>2013-05-30T07:20:37Z</time>
      </trkpt>
      <trkpt lat="48.73195" lon="-3.44389">
        <ele>60.22</ele>
        <time>2013-05-30T07:20:38Z</time>
      </trkpt>
      <trkpt lat="48.73192" lon="-3.44391">
        <ele>59.74</ele>
        <time>2013-05-30T07:20:39Z</time>
      </trkpt>
      <trkpt lat="48.73188" lon="-3.44394">
        <ele>60.22</ele>
        <time>2013-05-30T07:20:40Z</time>
      </trkpt>
      <trkpt lat="48.73184" lon="-3.44398">
        <ele>60.22</ele>
        <time>2013-05-30T07:20:41Z</time>
      </trkpt>
      <trkpt lat="48.73181" lon="-3.44402">
        <ele>60.7</ele>
        <time>2013-05-30T07:20:42Z</time>
      </trkpt>
      <trkpt lat="48.73178" lon="-3.44407">
        <ele>60.7</ele>
        <time>2013-05-30T07:20:43Z</time>
      </trkpt>
      <trkpt lat="48.73176" lon="-3.44412">
        <ele>60.7</ele>
        <time>2013-05-30T07:20:44Z</time>
      </trkpt>
      <trkpt lat="48.73174" lon="-3.44418">
        <ele>60.7</ele>
        <time>2013-05-30T07:20:45Z</time>
      </trkpt>
      <trkpt lat="48.73172" lon="-3.44425">
        <ele>60.7</ele>
        <time>2013-05-30T07:20:46Z</time>
      </trkpt>
      <trkpt lat="48.73171" lon="-3.44432">
        <ele>61.18</ele>
        <time>2013-05-30T07:20:47Z</time>
      </trkpt>
      <trkpt lat="48.73164" lon="-3.44469">
        <ele>60.7</ele>
        <time>2013-05-30T07:20:52Z</time>
      </trkpt>
      <trkpt lat="48.73163" lon="-3.44476">
        <ele>60.7</ele>
        <time>2013-05-30T07:20:53Z</time>
      </trkpt>
      <trkpt lat="48.73139" lon="-3.44592">
        <ele>60.7</ele>
        <time>2013-05-30T07:21:09Z</time>
      </trkpt>
      <trkpt lat="48.73107" lon="-3.44699">
        <ele>60.7</ele>
        <time>2013-05-30T07:21:25Z</time>
      </trkpt>
      <trkpt lat="48.73106" lon="-3.44707">
        <ele>60.7</ele>
        <time>2013-05-30T07:21:26Z</time>
      </trkpt>
      <trkpt lat="48.73104" lon="-3.44721">
        <ele>60.7</ele>
        <time>2013-05-30T07:21:28Z</time>
      </trkpt>
      <trkpt lat="48.731" lon="-3.44742">
        <ele>61.18</ele>
        <time>2013-05-30T07:21:31Z</time>
      </trkpt>
      <trkpt lat="48.73062" lon="-3.44857">
        <ele>59.26</ele>
        <time>2013-05-30T07:21:46Z</time>
      </trkpt>
      <trkpt lat="48.73016" lon="-3.45005">
        <ele>57.34</ele>
        <time>2013-05-30T07:22:02Z</time>
      </trkpt>
      <trkpt lat="48.72996" lon="-3.4507">
        <ele>53.97</ele>
        <time>2013-05-30T07:22:09Z</time>
      </trkpt>
      <trkpt lat="48.72976" lon="-3.45124">
        <ele>53.49</ele>
        <time>2013-05-30T07:22:15Z</time>
      </trkpt>
      <trkpt lat="48.72963" lon="-3.45152">
        <ele>52.05</ele>
        <time>2013-05-30T07:22:19Z</time>
      </trkpt>
      <trkpt lat="48.72961" lon="-3.45159">
        <ele>52.05</ele>
        <time>2013-05-30T07:22:20Z</time>
      </trkpt>
      <trkpt lat="48.72958" lon="-3.45183">
        <ele>52.53</ele>
        <time>2013-05-30T07:22:23Z</time>
      </trkpt>
      <trkpt lat="48.72959" lon="-3.45191">
        <ele>52.05</ele>
        <time>2013-05-30T07:22:24Z</time>
      </trkpt>
      <trkpt lat="48.72959" lon="-3.45198">
        <ele>52.05</ele>
        <time>2013-05-30T07:22:25Z</time>
      </trkpt>
      <trkpt lat="48.72959" lon="-3.45204">
        <ele>52.05</ele>
        <time>2013-05-30T07:22:26Z</time>
      </trkpt>
      <trkpt lat="48.72957" lon="-3.45211">
        <ele>51.57</ele>
        <time>2013-05-30T07:22:27Z</time>
      </trkpt>
      <trkpt lat="48.72954" lon="-3.45217">
        <ele>51.57</ele>
        <time>2013-05-30T07:22:28Z</time>
      </trkpt>
      <trkpt lat="48.72948" lon="-3.4523">
        <ele>52.05</ele>
        <time>2013-05-30T07:22:30Z</time>
      </trkpt>
      <trkpt lat="48.72946" lon="-3.45238">
        <ele>51.57</ele>
        <time>2013-05-30T07:22:31Z</time>
      </trkpt>
      <trkpt lat="48.72944" lon="-3.45247">
        <ele>51.09</ele>
        <time>2013-05-30T07:22:32Z</time>
      </trkpt>
      <trkpt lat="48.72943" lon="-3.45257">
        <ele>50.61</ele>
        <time>2013-05-30T07:22:33Z</time>
      </trkpt>
      <trkpt lat="48.72942" lon="-3.45267">
        <ele>50.61</ele>
        <time>2013-05-30T07:22:34Z</time>
      </trkpt>
      <trkpt lat="48.72925" lon="-3.45382">
        <ele>47.24</ele>
        <time>2013-05-30T07:22:45Z</time>
      </trkpt>
      <trkpt lat="48.72909" lon="-3.4545">
        <ele>44.36</ele>
        <time>2013-05-30T07:22:51Z</time>
      </trkpt>
      <trkpt lat="48.72904" lon="-3.45478">
        <ele>42.44</ele>
        <time>2013-05-30T07:22:55Z</time>
      </trkpt>
      <trkpt lat="48.72889" lon="-3.45565">
        <ele>39.07</ele>
        <time>2013-05-30T07:23:03Z</time>
      </trkpt>
      <trkpt lat="48.72886" lon="-3.45608">
        <ele>36.19</ele>
        <time>2013-05-30T07:23:06Z</time>
      </trkpt>
      <trkpt lat="48.7288" lon="-3.45647">
        <ele>31.86</ele>
        <time>2013-05-30T07:23:09Z</time>
      </trkpt>
      <trkpt lat="48.72878" lon="-3.45658">
        <ele>30.42</ele>
        <time>2013-05-30T07:23:10Z</time>
      </trkpt>
      <trkpt lat="48.72875" lon="-3.45668">
        <ele>29.46</ele>
        <time>2013-05-30T07:23:11Z</time>
      </trkpt>
      <trkpt lat="48.7287" lon="-3.45676">
        <ele>28.98</ele>
        <time>2013-05-30T07:23:12Z</time>
      </trkpt>
      <trkpt lat="48.72864" lon="-3.45682">
        <ele>28.02</ele>
        <time>2013-05-30T07:23:13Z</time>
      </trkpt>
      <trkpt lat="48.72857" lon="-3.45687">
        <ele>27.53</ele>
        <time>2013-05-30T07:23:14Z</time>
      </trkpt>
      <trkpt lat="48.72851" lon="-3.45693">
        <ele>26.57</ele>
        <time>2013-05-30T07:23:15Z</time>
      </trkpt>
      <trkpt lat="48.72846" lon="-3.45699">
        <ele>26.09</ele>
        <time>2013-05-30T07:23:16Z</time>
      </trkpt>
      <trkpt lat="48.72841" lon="-3.45706">
        <ele>26.09</ele>
        <time>2013-05-30T07:23:17Z</time>
      </trkpt>
      <trkpt lat="48.72829" lon="-3.45727">
        <ele>23.69</ele>
        <time>2013-05-30T07:23:20Z</time>
      </trkpt>
      <trkpt lat="48.72826" lon="-3.45734">
        <ele>23.21</ele>
        <time>2013-05-30T07:23:21Z</time>
      </trkpt>
      <trkpt lat="48.72821" lon="-3.45745">
        <ele>23.21</ele>
        <time>2013-05-30T07:23:23Z</time>
      </trkpt>
      <trkpt lat="48.7282" lon="-3.45751">
        <ele>23.21</ele>
        <time>2013-05-30T07:23:24Z</time>
      </trkpt>
      <trkpt lat="48.72818" lon="-3.45756">
        <ele>22.73</ele>
        <time>2013-05-30T07:23:25Z</time>
      </trkpt>
      <trkpt lat="48.72811" lon="-3.45785">
        <ele>22.73</ele>
        <time>2013-05-30T07:23:33Z</time>
      </trkpt>
      <trkpt lat="48.72806" lon="-3.45802">
        <ele>23.21</ele>
        <time>2013-05-30T07:23:36Z</time>
      </trkpt>
      <trkpt lat="48.72779" lon="-3.45908">
        <ele>22.25</ele>
        <time>2013-05-30T07:23:49Z</time>
      </trkpt>
      <trkpt lat="48.72777" lon="-3.45915">
        <ele>22.25</ele>
        <time>2013-05-30T07:23:50Z</time>
      </trkpt>
      <trkpt lat="48.72776" lon="-3.45923">
        <ele>22.73</ele>
        <time>2013-05-30T07:23:51Z</time>
      </trkpt>
      <trkpt lat="48.72776" lon="-3.45931">
        <ele>22.73</ele>
        <time>2013-05-30T07:23:52Z</time>
      </trkpt>
      <trkpt lat="48.72776" lon="-3.4594">
        <ele>22.73</ele>
        <time>2013-05-30T07:23:53Z</time>
      </trkpt>
      <trkpt lat="48.72776" lon="-3.45948">
        <ele>22.25</ele>
        <time>2013-05-30T07:23:54Z</time>
      </trkpt>
      <trkpt lat="48.72777" lon="-3.45956">
        <ele>21.77</ele>
        <time>2013-05-30T07:23:55Z</time>
      </trkpt>
      <trkpt lat="48.72778" lon="-3.45961">
        <ele>21.29</ele>
        <time>2013-05-30T07:23:56Z</time>
      </trkpt>
      <trkpt lat="48.72779" lon="-3.45964">
        <ele>21.29</ele>
        <time>2013-05-30T07:23:57Z</time>
      </trkpt>
      <trkpt lat="48.72779" lon="-3.45966">
        <ele>21.29</ele>
        <time>2013-05-30T07:23:58Z</time>
      </trkpt>
      <trkpt lat="48.7278" lon="-3.45968">
        <ele>21.77</ele>
        <time>2013-05-30T07:24:01Z</time>
      </trkpt>
      <trkpt lat="48.7278" lon="-3.45971">
        <ele>21.77</ele>
        <time>2013-05-30T07:24:02Z</time>
      </trkpt>
      <trkpt lat="48.72781" lon="-3.45975">
        <ele>22.25</ele>
        <time>2013-05-30T07:24:03Z</time>
      </trkpt>
      <trkpt lat="48.72779" lon="-3.45979">
        <ele>21.77</ele>
        <time>2013-05-30T07:24:04Z</time>
      </trkpt>
      <trkpt lat="48.72776" lon="-3.45982">
        <ele>22.25</ele>
        <time>2013-05-30T07:24:05Z</time>
      </trkpt>
      <trkpt lat="48.72772" lon="-3.45983">
        <ele>22.25</ele>
        <time>2013-05-30T07:24:06Z</time>
      </trkpt>
      <trkpt lat="48.72707" lon="-3.46005">
        <ele>22.25</ele>
        <time>2013-05-30T07:24:19Z</time>
      </trkpt>
      <trkpt lat="48.72664" lon="-3.46013">
        <ele>24.17</ele>
        <time>2013-05-30T07:24:28Z</time>
      </trkpt>
      <trkpt lat="48.72659" lon="-3.46014">
        <ele>24.65</ele>
        <time>2013-05-30T07:24:29Z</time>
      </trkpt>
      <trkpt lat="48.72603" lon="-3.46029">
        <ele>27.53</ele>
        <time>2013-05-30T07:24:42Z</time>
      </trkpt>
      <trkpt lat="48.72581" lon="-3.46034">
        <ele>28.5</ele>
        <time>2013-05-30T07:24:47Z</time>
      </trkpt>
      <trkpt lat="48.72531" lon="-3.46043">
        <ele>30.42</ele>
        <time>2013-05-30T07:24:58Z</time>
      </trkpt>
      <trkpt lat="48.72471" lon="-3.46025">
        <ele>33.3</ele>
        <time>2013-05-30T07:25:12Z</time>
      </trkpt>
      <trkpt lat="48.72463" lon="-3.46023">
        <ele>33.3</ele>
        <time>2013-05-30T07:25:14Z</time>
      </trkpt>
      <trkpt lat="48.72414" lon="-3.46001">
        <ele>35.23</ele>
        <time>2013-05-30T07:25:26Z</time>
      </trkpt>
      <trkpt lat="48.72349" lon="-3.46007">
        <ele>38.11</ele>
        <time>2013-05-30T07:25:42Z</time>
      </trkpt>
      <trkpt lat="48.72287" lon="-3.46016">
        <ele>40.03</ele>
        <time>2013-05-30T07:25:57Z</time>
      </trkpt>
      <trkpt lat="48.72255" lon="-3.46002">
        <ele>40.99</ele>
        <time>2013-05-30T07:26:05Z</time>
      </trkpt>
      <trkpt lat="48.7225" lon="-3.46001">
        <ele>41.47</ele>
        <time>2013-05-30T07:26:06Z</time>
      </trkpt>
      <trkpt lat="48.72246" lon="-3.45999">
        <ele>41.47</ele>
        <time>2013-05-30T07:26:07Z</time>
      </trkpt>
      <trkpt lat="48.72191" lon="-3.45972">
        <ele>43.88</ele>
        <time>2013-05-30T07:26:21Z</time>
      </trkpt>
      <trkpt lat="48.72178" lon="-3.45966">
        <ele>44.36</ele>
        <time>2013-05-30T07:26:24Z</time>
      </trkpt>
      <trkpt lat="48.72174" lon="-3.45964">
        <ele>44.36</ele>
        <time>2013-05-30T07:26:25Z</time>
      </trkpt>
      <trkpt lat="48.72161" lon="-3.4596">
        <ele>44.84</ele>
        <time>2013-05-30T07:26:28Z</time>
      </trkpt>
      <trkpt lat="48.72157" lon="-3.4596">
        <ele>44.84</ele>
        <time>2013-05-30T07:26:29Z</time>
      </trkpt>
      <trkpt lat="48.72141" lon="-3.45963">
        <ele>45.8</ele>
        <time>2013-05-30T07:26:33Z</time>
      </trkpt>
      <trkpt lat="48.72137" lon="-3.45966">
        <ele>45.8</ele>
        <time>2013-05-30T07:26:34Z</time>
      </trkpt>
      <trkpt lat="48.72073" lon="-3.46011">
        <ele>48.68</ele>
        <time>2013-05-30T07:26:51Z</time>
      </trkpt>
      <trkpt lat="48.72065" lon="-3.46015">
        <ele>49.16</ele>
        <time>2013-05-30T07:26:53Z</time>
      </trkpt>
      <trkpt lat="48.72061" lon="-3.46017">
        <ele>49.65</ele>
        <time>2013-05-30T07:26:54Z</time>
      </trkpt>
      <trkpt lat="48.72056" lon="-3.46019">
        <ele>49.65</ele>
        <time>2013-05-30T07:26:55Z</time>
      </trkpt>
      <trkpt lat="48.72015" lon="-3.46023">
        <ele>51.09</ele>
        <time>2013-05-30T07:27:05Z</time>
      </trkpt>
      <trkpt lat="48.72011" lon="-3.46022">
        <ele>51.57</ele>
        <time>2013-05-30T07:27:06Z</time>
      </trkpt>
      <trkpt lat="48.71984" lon="-3.46004">
        <ele>52.05</ele>
        <time>2013-05-30T07:27:13Z</time>
      </trkpt>
      <trkpt lat="48.71955" lon="-3.45959">
        <ele>53.97</ele>
        <time>2013-05-30T07:27:23Z</time>
      </trkpt>
      <trkpt lat="48.71945" lon="-3.45931">
        <ele>54.93</ele>
        <time>2013-05-30T07:27:28Z</time>
      </trkpt>
      <trkpt lat="48.71931" lon="-3.4586">
        <ele>55.89</ele>
        <time>2013-05-30T07:27:39Z</time>
      </trkpt>
      <trkpt lat="48.71915" lon="-3.4582">
        <ele>56.37</ele>
        <time>2013-05-30T07:27:46Z</time>
      </trkpt>
      <trkpt lat="48.71911" lon="-3.45816">
        <ele>56.86</ele>
        <time>2013-05-30T07:27:47Z</time>
      </trkpt>
      <trkpt lat="48.7185" lon="-3.45754">
        <ele>59.74</ele>
        <time>2013-05-30T07:28:04Z</time>
      </trkpt>
      <trkpt lat="48.7184" lon="-3.45743">
        <ele>59.74</ele>
        <time>2013-05-30T07:28:07Z</time>
      </trkpt>
      <trkpt lat="48.71836" lon="-3.4574">
        <ele>59.74</ele>
        <time>2013-05-30T07:28:08Z</time>
      </trkpt>
      <trkpt lat="48.71811" lon="-3.45716">
        <ele>61.18</ele>
        <time>2013-05-30T07:28:15Z</time>
      </trkpt>
      <trkpt lat="48.71753" lon="-3.4566">
        <ele>64.07</ele>
        <time>2013-05-30T07:28:31Z</time>
      </trkpt>
      <trkpt lat="48.71714" lon="-3.4562">
        <ele>65.99</ele>
        <time>2013-05-30T07:28:42Z</time>
      </trkpt>
      <trkpt lat="48.7171" lon="-3.45615">
        <ele>65.99</ele>
        <time>2013-05-30T07:28:43Z</time>
      </trkpt>
      <trkpt lat="48.71674" lon="-3.45536">
        <ele>68.39</ele>
        <time>2013-05-30T07:28:58Z</time>
      </trkpt>
      <trkpt lat="48.71661" lon="-3.45501">
        <ele>69.35</ele>
        <time>2013-05-30T07:29:04Z</time>
      </trkpt>
      <trkpt lat="48.71648" lon="-3.45467">
        <ele>70.31</ele>
        <time>2013-05-30T07:29:10Z</time>
      </trkpt>
      <trkpt lat="48.71646" lon="-3.45461">
        <ele>70.31</ele>
        <time>2013-05-30T07:29:11Z</time>
      </trkpt>
      <trkpt lat="48.71637" lon="-3.45438">
        <ele>70.79</ele>
        <time>2013-05-30T07:29:15Z</time>
      </trkpt>
      <trkpt lat="48.71631" lon="-3.45427">
        <ele>70.79</ele>
        <time>2013-05-30T07:29:17Z</time>
      </trkpt>
      <trkpt lat="48.71629" lon="-3.45421">
        <ele>71.27</ele>
        <time>2013-05-30T07:29:18Z</time>
      </trkpt>
      <trkpt lat="48.71594" lon="-3.45328">
        <ele>72.72</ele>
        <time>2013-05-30T07:29:34Z</time>
      </trkpt>
      <trkpt lat="48.7159" lon="-3.45317">
        <ele>72.72</ele>
        <time>2013-05-30T07:29:36Z</time>
      </trkpt>
      <trkpt lat="48.71588" lon="-3.45311">
        <ele>72.72</ele>
        <time>2013-05-30T07:29:37Z</time>
      </trkpt>
      <trkpt lat="48.71576" lon="-3.45283">
        <ele>73.2</ele>
        <time>2013-05-30T07:29:42Z</time>
      </trkpt>
      <trkpt lat="48.71566" lon="-3.45261">
        <ele>74.16</ele>
        <time>2013-05-30T07:29:46Z</time>
      </trkpt>
      <trkpt lat="48.71563" lon="-3.45257">
        <ele>74.16</ele>
        <time>2013-05-30T07:29:47Z</time>
      </trkpt>
      <trkpt lat="48.71542" lon="-3.45233">
        <ele>74.16</ele>
        <time>2013-05-30T07:29:53Z</time>
      </trkpt>
      <trkpt lat="48.71537" lon="-3.4523">
        <ele>74.64</ele>
        <time>2013-05-30T07:29:54Z</time>
      </trkpt>
      <trkpt lat="48.71466" lon="-3.45182">
        <ele>75.12</ele>
        <time>2013-05-30T07:30:09Z</time>
      </trkpt>
      <trkpt lat="48.71369" lon="-3.45116">
        <ele>75.6</ele>
        <time>2013-05-30T07:30:28Z</time>
      </trkpt>
      <trkpt lat="48.71364" lon="-3.45112">
        <ele>75.6</ele>
        <time>2013-05-30T07:30:29Z</time>
      </trkpt>
      <trkpt lat="48.71271" lon="-3.45059">
        <ele>76.08</ele>
        <time>2013-05-30T07:30:46Z</time>
      </trkpt>
      <trkpt lat="48.71167" lon="-3.45015">
        <ele>76.56</ele>
        <time>2013-05-30T07:31:04Z</time>
      </trkpt>
      <trkpt lat="48.71086" lon="-3.45002">
        <ele>77.52</ele>
        <time>2013-05-30T07:31:18Z</time>
      </trkpt>
      <trkpt lat="48.7104" lon="-3.45003">
        <ele>77.52</ele>
        <time>2013-05-30T07:31:26Z</time>
      </trkpt>
      <trkpt lat="48.70964" lon="-3.44973">
        <ele>78.97</ele>
        <time>2013-05-30T07:31:39Z</time>
      </trkpt>
      <trkpt lat="48.70869" lon="-3.44896">
        <ele>79.45</ele>
        <time>2013-05-30T07:31:57Z</time>
      </trkpt>
      <trkpt lat="48.70781" lon="-3.44844">
        <ele>80.89</ele>
        <time>2013-05-30T07:32:13Z</time>
      </trkpt>
      <trkpt lat="48.7074" lon="-3.44821">
        <ele>83.29</ele>
        <time>2013-05-30T07:32:22Z</time>
      </trkpt>
      <trkpt lat="48.70728" lon="-3.44816">
        <ele>84.73</ele>
        <time>2013-05-30T07:32:25Z</time>
      </trkpt>
      <trkpt lat="48.70686" lon="-3.44807">
        <ele>87.62</ele>
        <time>2013-05-30T07:32:35Z</time>
      </trkpt>
      <trkpt lat="48.70665" lon="-3.44807">
        <ele>89.54</ele>
        <time>2013-05-30T07:32:40Z</time>
      </trkpt>
      <trkpt lat="48.70644" lon="-3.44808">
        <ele>90.98</ele>
        <time>2013-05-30T07:32:45Z</time>
      </trkpt>
      <trkpt lat="48.70581" lon="-3.44821">
        <ele>93.39</ele>
        <time>2013-05-30T07:32:59Z</time>
      </trkpt>
      <trkpt lat="48.70561" lon="-3.44823">
        <ele>93.87</ele>
        <time>2013-05-30T07:33:03Z</time>
      </trkpt>
      <trkpt lat="48.70541" lon="-3.44823">
        <ele>93.39</ele>
        <time>2013-05-30T07:33:07Z</time>
      </trkpt>
      <trkpt lat="48.70509" lon="-3.44819">
        <ele>93.39</ele>
        <time>2013-05-30T07:33:13Z</time>
      </trkpt>
      <trkpt lat="48.70497" lon="-3.44819">
        <ele>93.39</ele>
        <time>2013-05-30T07:33:15Z</time>
      </trkpt>
      <trkpt lat="48.70491" lon="-3.4482">
        <ele>93.87</ele>
        <time>2013-05-30T07:33:16Z</time>
      </trkpt>
      <trkpt lat="48.70448" lon="-3.44838">
        <ele>93.39</ele>
        <time>2013-05-30T07:33:24Z</time>
      </trkpt>
      <trkpt lat="48.70443" lon="-3.4484">
        <ele>93.39</ele>
        <time>2013-05-30T07:33:25Z</time>
      </trkpt>
      <trkpt lat="48.70397" lon="-3.44855">
        <ele>93.39</ele>
        <time>2013-05-30T07:33:33Z</time>
      </trkpt>
      <trkpt lat="48.70392" lon="-3.44855">
        <ele>93.39</ele>
        <time>2013-05-30T07:33:34Z</time>
      </trkpt>
      <trkpt lat="48.70317" lon="-3.44831">
        <ele>92.42</ele>
        <time>2013-05-30T07:33:47Z</time>
      </trkpt>
      <trkpt lat="48.70311" lon="-3.44829">
        <ele>92.42</ele>
        <time>2013-05-30T07:33:48Z</time>
      </trkpt>
      <trkpt lat="48.70305" lon="-3.44827">
        <ele>92.42</ele>
        <time>2013-05-30T07:33:49Z</time>
      </trkpt>
      <trkpt lat="48.70216" lon="-3.44819">
        <ele>92.42</ele>
        <time>2013-05-30T07:34:04Z</time>
      </trkpt>
      <trkpt lat="48.7021" lon="-3.4482">
        <ele>92.42</ele>
        <time>2013-05-30T07:34:05Z</time>
      </trkpt>
      <trkpt lat="48.70115" lon="-3.44812">
        <ele>92.42</ele>
        <time>2013-05-30T07:34:21Z</time>
      </trkpt>
      <trkpt lat="48.70009" lon="-3.44796">
        <ele>92.9</ele>
        <time>2013-05-30T07:34:39Z</time>
      </trkpt>
      <trkpt lat="48.69913" lon="-3.4478">
        <ele>94.35</ele>
        <time>2013-05-30T07:34:56Z</time>
      </trkpt>
      <trkpt lat="48.69831" lon="-3.44758">
        <ele>95.79</ele>
        <time>2013-05-30T07:35:11Z</time>
      </trkpt>
      <trkpt lat="48.69753" lon="-3.44736">
        <ele>96.75</ele>
        <time>2013-05-30T07:35:25Z</time>
      </trkpt>
      <trkpt lat="48.69672" lon="-3.44695">
        <ele>98.19</ele>
        <time>2013-05-30T07:35:41Z</time>
      </trkpt>
      <trkpt lat="48.69625" lon="-3.44666">
        <ele>98.67</ele>
        <time>2013-05-30T07:35:56Z</time>
      </trkpt>
      <trkpt lat="48.69592" lon="-3.44646">
        <ele>99.15</ele>
        <time>2013-05-30T07:36:11Z</time>
      </trkpt>
      <trkpt lat="48.69585" lon="-3.4464">
        <ele>101.56</ele>
        <time>2013-05-30T07:36:25Z</time>
      </trkpt>
      <trkpt lat="48.69586" lon="-3.4464">
        <ele>99.63</ele>
        <time>2013-05-30T07:36:42Z</time>
      </trkpt>
      <trkpt lat="48.69583" lon="-3.44638">
        <ele>99.63</ele>
        <time>2013-05-30T07:36:44Z</time>
      </trkpt>
      <trkpt lat="48.69547" lon="-3.4461">
        <ele>101.08</ele>
        <time>2013-05-30T07:36:55Z</time>
      </trkpt>
      <trkpt lat="48.69473" lon="-3.44549">
        <ele>104.44</ele>
        <time>2013-05-30T07:37:11Z</time>
      </trkpt>
      <trkpt lat="48.6941" lon="-3.44516">
        <ele>107.32</ele>
        <time>2013-05-30T07:37:24Z</time>
      </trkpt>
      <trkpt lat="48.69316" lon="-3.44479">
        <ele>107.32</ele>
        <time>2013-05-30T07:37:40Z</time>
      </trkpt>
      <trkpt lat="48.69214" lon="-3.44493">
        <ele>104.92</ele>
        <time>2013-05-30T07:37:54Z</time>
      </trkpt>
      <trkpt lat="48.69081" lon="-3.44534">
        <ele>105.4</ele>
        <time>2013-05-30T07:38:13Z</time>
      </trkpt>
      <trkpt lat="48.68978" lon="-3.44556">
        <ele>103.96</ele>
        <time>2013-05-30T07:38:27Z</time>
      </trkpt>
      <trkpt lat="48.68869" lon="-3.4458">
        <ele>101.56</ele>
        <time>2013-05-30T07:38:42Z</time>
      </trkpt>
      <trkpt lat="48.68751" lon="-3.44585">
        <ele>100.6</ele>
        <time>2013-05-30T07:38:59Z</time>
      </trkpt>
      <trkpt lat="48.68647" lon="-3.44564">
        <ele>101.08</ele>
        <time>2013-05-30T07:39:15Z</time>
      </trkpt>
      <trkpt lat="48.68544" lon="-3.4453">
        <ele>101.56</ele>
        <time>2013-05-30T07:39:31Z</time>
      </trkpt>
      <trkpt lat="48.68427" lon="-3.44513">
        <ele>101.56</ele>
        <time>2013-05-30T07:39:49Z</time>
      </trkpt>
      <trkpt lat="48.68313" lon="-3.4449">
        <ele>101.08</ele>
        <time>2013-05-30T07:40:06Z</time>
      </trkpt>
      <trkpt lat="48.68183" lon="-3.44447">
        <ele>102.52</ele>
        <time>2013-05-30T07:40:25Z</time>
      </trkpt>
      <trkpt lat="48.68086" lon="-3.44423">
        <ele>102.04</ele>
        <time>2013-05-30T07:40:40Z</time>
      </trkpt>
      <trkpt lat="48.68005" lon="-3.44396">
        <ele>103.48</ele>
        <time>2013-05-30T07:40:53Z</time>
      </trkpt>
      <trkpt lat="48.67928" lon="-3.44379">
        <ele>104.92</ele>
        <time>2013-05-30T07:41:06Z</time>
      </trkpt>
      <trkpt lat="48.6783" lon="-3.44395">
        <ele>104.44</ele>
        <time>2013-05-30T07:41:22Z</time>
      </trkpt>
      <trkpt lat="48.67727" lon="-3.44459">
        <ele>105.4</ele>
        <time>2013-05-30T07:41:40Z</time>
      </trkpt>
      <trkpt lat="48.67634" lon="-3.44502">
        <ele>106.36</ele>
        <time>2013-05-30T07:41:56Z</time>
      </trkpt>
      <trkpt lat="48.67534" lon="-3.44515">
        <ele>105.4</ele>
        <time>2013-05-30T07:42:12Z</time>
      </trkpt>
      <trkpt lat="48.67435" lon="-3.44505">
        <ele>104.44</ele>
        <time>2013-05-30T07:42:27Z</time>
      </trkpt>
      <trkpt lat="48.67329" lon="-3.44475">
        <ele>105.4</ele>
        <time>2013-05-30T07:42:43Z</time>
      </trkpt>
      <trkpt lat="48.67226" lon="-3.44451">
        <ele>104.44</ele>
        <time>2013-05-30T07:42:58Z</time>
      </trkpt>
      <trkpt lat="48.67119" lon="-3.44446">
        <ele>103.48</ele>
        <time>2013-05-30T07:43:13Z</time>
      </trkpt>
      <trkpt lat="48.67016" lon="-3.44471">
        <ele>103.96</ele>
        <time>2013-05-30T07:43:29Z</time>
      </trkpt>
      <trkpt lat="48.6693" lon="-3.44482">
        <ele>105.4</ele>
        <time>2013-05-30T07:43:43Z</time>
      </trkpt>
      <trkpt lat="48.66831" lon="-3.44472">
        <ele>106.36</ele>
        <time>2013-05-30T07:43:59Z</time>
      </trkpt>
      <trkpt lat="48.66688" lon="-3.44456">
        <ele>108.29</ele>
        <time>2013-05-30T07:44:22Z</time>
      </trkpt>
      <trkpt lat="48.66573" lon="-3.44448">
        <ele>109.25</ele>
        <time>2013-05-30T07:44:40Z</time>
      </trkpt>
      <trkpt lat="48.66488" lon="-3.44451">
        <ele>108.29</ele>
        <time>2013-05-30T07:44:53Z</time>
      </trkpt>
      <trkpt lat="48.66375" lon="-3.44452">
        <ele>108.77</ele>
        <time>2013-05-30T07:45:10Z</time>
      </trkpt>
      <trkpt lat="48.66285" lon="-3.44432">
        <ele>107.32</ele>
        <time>2013-05-30T07:45:23Z</time>
      </trkpt>
      <trkpt lat="48.66155" lon="-3.444">
        <ele>104.44</ele>
        <time>2013-05-30T07:45:40Z</time>
      </trkpt>
      <trkpt lat="48.66017" lon="-3.44367">
        <ele>103.96</ele>
        <time>2013-05-30T07:45:58Z</time>
      </trkpt>
      <trkpt lat="48.65909" lon="-3.44352">
        <ele>105.4</ele>
        <time>2013-05-30T07:46:15Z</time>
      </trkpt>
      <trkpt lat="48.65806" lon="-3.44368">
        <ele>107.32</ele>
        <time>2013-05-30T07:46:32Z</time>
      </trkpt>
      <trkpt lat="48.65699" lon="-3.44406">
        <ele>109.73</ele>
        <time>2013-05-30T07:46:50Z</time>
      </trkpt>
      <trkpt lat="48.65598" lon="-3.44447">
        <ele>111.65</ele>
        <time>2013-05-30T07:47:08Z</time>
      </trkpt>
      <trkpt lat="48.65486" lon="-3.4449">
        <ele>113.57</ele>
        <time>2013-05-30T07:47:28Z</time>
      </trkpt>
      <trkpt lat="48.65371" lon="-3.4454">
        <ele>114.53</ele>
        <time>2013-05-30T07:47:48Z</time>
      </trkpt>
      <trkpt lat="48.65276" lon="-3.4458">
        <ele>115.5</ele>
        <time>2013-05-30T07:48:04Z</time>
      </trkpt>
      <trkpt lat="48.6518" lon="-3.44609">
        <ele>115.5</ele>
        <time>2013-05-30T07:48:20Z</time>
      </trkpt>
      <trkpt lat="48.6506" lon="-3.44638">
        <ele>115.5</ele>
        <time>2013-05-30T07:48:39Z</time>
      </trkpt>
      <trkpt lat="48.64943" lon="-3.44643">
        <ele>114.53</ele>
        <time>2013-05-30T07:48:57Z</time>
      </trkpt>
      <trkpt lat="48.64811" lon="-3.4462">
        <ele>114.05</ele>
        <time>2013-05-30T07:49:16Z</time>
      </trkpt>
      <trkpt lat="48.64709" lon="-3.44598">
        <ele>113.57</ele>
        <time>2013-05-30T07:49:31Z</time>
      </trkpt>
      <trkpt lat="48.64638" lon="-3.44592">
        <ele>115.01</ele>
        <time>2013-05-30T07:49:42Z</time>
      </trkpt>
      <trkpt lat="48.64536" lon="-3.44621">
        <ele>117.42</ele>
        <time>2013-05-30T07:49:59Z</time>
      </trkpt>
      <trkpt lat="48.64447" lon="-3.44684">
        <ele>118.38</ele>
        <time>2013-05-30T07:50:15Z</time>
      </trkpt>
      <trkpt lat="48.64357" lon="-3.44798">
        <ele>119.34</ele>
        <time>2013-05-30T07:50:34Z</time>
      </trkpt>
      <trkpt lat="48.64266" lon="-3.44934">
        <ele>119.82</ele>
        <time>2013-05-30T07:50:54Z</time>
      </trkpt>
      <trkpt lat="48.64157" lon="-3.45094">
        <ele>118.38</ele>
        <time>2013-05-30T07:51:17Z</time>
      </trkpt>
      <trkpt lat="48.6406" lon="-3.45239">
        <ele>116.94</ele>
        <time>2013-05-30T07:51:37Z</time>
      </trkpt>
      <trkpt lat="48.63975" lon="-3.45364">
        <ele>115.5</ele>
        <time>2013-05-30T07:51:56Z</time>
      </trkpt>
      <trkpt lat="48.63907" lon="-3.45467">
        <ele>117.42</ele>
        <time>2013-05-30T07:52:12Z</time>
      </trkpt>
      <trkpt lat="48.63873" lon="-3.4552">
        <ele>119.82</ele>
        <time>2013-05-30T07:52:20Z</time>
      </trkpt>
      <trkpt lat="48.63801" lon="-3.45621">
        <ele>120.78</ele>
        <time>2013-05-30T07:52:36Z</time>
      </trkpt>
      <trkpt lat="48.63706" lon="-3.45757">
        <ele>121.74</ele>
        <time>2013-05-30T07:52:57Z</time>
      </trkpt>
      <trkpt lat="48.63612" lon="-3.45863">
        <ele>123.19</ele>
        <time>2013-05-30T07:53:16Z</time>
      </trkpt>
      <trkpt lat="48.63518" lon="-3.45962">
        <ele>124.63</ele>
        <time>2013-05-30T07:53:35Z</time>
      </trkpt>
      <trkpt lat="48.63431" lon="-3.46055">
        <ele>126.55</ele>
        <time>2013-05-30T07:53:53Z</time>
      </trkpt>
      <trkpt lat="48.63344" lon="-3.46146">
        <ele>127.51</ele>
        <time>2013-05-30T07:54:11Z</time>
      </trkpt>
      <trkpt lat="48.63251" lon="-3.46243">
        <ele>129.43</ele>
        <time>2013-05-30T07:54:30Z</time>
      </trkpt>
      <trkpt lat="48.63171" lon="-3.46328">
        <ele>130.4</ele>
        <time>2013-05-30T07:54:46Z</time>
      </trkpt>
      <trkpt lat="48.63065" lon="-3.4644">
        <ele>132.32</ele>
        <time>2013-05-30T07:55:07Z</time>
      </trkpt>
      <trkpt lat="48.62968" lon="-3.46534">
        <ele>134.24</ele>
        <time>2013-05-30T07:55:26Z</time>
      </trkpt>
      <trkpt lat="48.62866" lon="-3.46588">
        <ele>134.24</ele>
        <time>2013-05-30T07:55:44Z</time>
      </trkpt>
      <trkpt lat="48.62757" lon="-3.46609">
        <ele>135.68</ele>
        <time>2013-05-30T07:56:02Z</time>
      </trkpt>
      <trkpt lat="48.6262" lon="-3.4663">
        <ele>137.13</ele>
        <time>2013-05-30T07:56:24Z</time>
      </trkpt>
      <trkpt lat="48.62514" lon="-3.46643">
        <ele>139.05</ele>
        <time>2013-05-30T07:56:41Z</time>
      </trkpt>
      <trkpt lat="48.62403" lon="-3.46676">
        <ele>139.05</ele>
        <time>2013-05-30T07:56:59Z</time>
      </trkpt>
      <trkpt lat="48.62312" lon="-3.4672">
        <ele>137.13</ele>
        <time>2013-05-30T07:57:13Z</time>
      </trkpt>
      <trkpt lat="48.62197" lon="-3.46747">
        <ele>135.2</ele>
        <time>2013-05-30T07:57:28Z</time>
      </trkpt>
      <trkpt lat="48.621" lon="-3.46789">
        <ele>132.32</ele>
        <time>2013-05-30T07:57:42Z</time>
      </trkpt>
      <trkpt lat="48.61986" lon="-3.46805">
        <ele>131.84</ele>
        <time>2013-05-30T07:57:58Z</time>
      </trkpt>
      <trkpt lat="48.61887" lon="-3.46824">
        <ele>130.4</ele>
        <time>2013-05-30T07:58:11Z</time>
      </trkpt>
      <trkpt lat="48.61878" lon="-3.46824">
        <ele>129.92</ele>
        <time>2013-05-30T07:58:12Z</time>
      </trkpt>
      <trkpt lat="48.61825" lon="-3.46807">
        <ele>127.03</ele>
        <time>2013-05-30T07:58:18Z</time>
      </trkpt>
      <trkpt lat="48.61788" lon="-3.46798">
        <ele>126.07</ele>
        <time>2013-05-30T07:58:22Z</time>
      </trkpt>
      <trkpt lat="48.61779" lon="-3.46798">
        <ele>125.59</ele>
        <time>2013-05-30T07:58:23Z</time>
      </trkpt>
      <trkpt lat="48.6177" lon="-3.468">
        <ele>125.11</ele>
        <time>2013-05-30T07:58:24Z</time>
      </trkpt>
      <trkpt lat="48.61752" lon="-3.46805">
        <ele>125.11</ele>
        <time>2013-05-30T07:58:26Z</time>
      </trkpt>
      <trkpt lat="48.61677" lon="-3.46853">
        <ele>121.74</ele>
        <time>2013-05-30T07:58:36Z</time>
      </trkpt>
      <trkpt lat="48.61569" lon="-3.46959">
        <ele>119.34</ele>
        <time>2013-05-30T07:58:52Z</time>
      </trkpt>
      <trkpt lat="48.61509" lon="-3.47012">
        <ele>116.46</ele>
        <time>2013-05-30T07:59:00Z</time>
      </trkpt>
      <trkpt lat="48.61502" lon="-3.47019">
        <ele>115.98</ele>
        <time>2013-05-30T07:59:01Z</time>
      </trkpt>
      <trkpt lat="48.61436" lon="-3.47075">
        <ele>117.42</ele>
        <time>2013-05-30T07:59:12Z</time>
      </trkpt>
      <trkpt lat="48.61389" lon="-3.47122">
        <ele>119.82</ele>
        <time>2013-05-30T07:59:23Z</time>
      </trkpt>
      <trkpt lat="48.61351" lon="-3.47184">
        <ele>123.19</ele>
        <time>2013-05-30T07:59:35Z</time>
      </trkpt>
      <trkpt lat="48.61312" lon="-3.47244">
        <ele>126.07</ele>
        <time>2013-05-30T07:59:47Z</time>
      </trkpt>
      <trkpt lat="48.61301" lon="-3.47257">
        <ele>127.03</ele>
        <time>2013-05-30T07:59:50Z</time>
      </trkpt>
      <trkpt lat="48.61261" lon="-3.4728">
        <ele>127.99</ele>
        <time>2013-05-30T07:59:59Z</time>
      </trkpt>
      <trkpt lat="48.61258" lon="-3.47285">
        <ele>127.51</ele>
        <time>2013-05-30T08:00:00Z</time>
      </trkpt>
      <trkpt lat="48.61254" lon="-3.4729">
        <ele>127.51</ele>
        <time>2013-05-30T08:00:01Z</time>
      </trkpt>
      <trkpt lat="48.61215" lon="-3.47362">
        <ele>126.07</ele>
        <time>2013-05-30T08:00:12Z</time>
      </trkpt>
      <trkpt lat="48.6121" lon="-3.47365">
        <ele>126.55</ele>
        <time>2013-05-30T08:00:13Z</time>
      </trkpt>
      <trkpt lat="48.61204" lon="-3.47365">
        <ele>126.07</ele>
        <time>2013-05-30T08:00:14Z</time>
      </trkpt>
      <trkpt lat="48.61199" lon="-3.47363">
        <ele>126.07</ele>
        <time>2013-05-30T08:00:15Z</time>
      </trkpt>
      <trkpt lat="48.61194" lon="-3.4736">
        <ele>126.07</ele>
        <time>2013-05-30T08:00:16Z</time>
      </trkpt>
      <trkpt lat="48.61177" lon="-3.47355">
        <ele>124.63</ele>
        <time>2013-05-30T08:00:23Z</time>
      </trkpt>
      <trkpt lat="48.61177" lon="-3.47354">
        <ele>125.59</ele>
        <time>2013-05-30T08:00:28Z</time>
      </trkpt>
      <trkpt lat="48.61175" lon="-3.47356">
        <ele>124.63</ele>
        <time>2013-05-30T08:00:29Z</time>
      </trkpt>
      <trkpt lat="48.61174" lon="-3.47357">
        <ele>124.63</ele>
        <time>2013-05-30T08:00:30Z</time>
      </trkpt>
      <trkpt lat="48.61172" lon="-3.47361">
        <ele>124.63</ele>
        <time>2013-05-30T08:00:31Z</time>
      </trkpt>
      <trkpt lat="48.61171" lon="-3.47365">
        <ele>124.15</ele>
        <time>2013-05-30T08:00:32Z</time>
      </trkpt>
      <trkpt lat="48.61169" lon="-3.4737">
        <ele>124.15</ele>
        <time>2013-05-30T08:00:33Z</time>
      </trkpt>
      <trkpt lat="48.61168" lon="-3.47377">
        <ele>124.15</ele>
        <time>2013-05-30T08:00:34Z</time>
      </trkpt>
      <trkpt lat="48.61162" lon="-3.47407">
        <ele>124.15</ele>
        <time>2013-05-30T08:00:38Z</time>
      </trkpt>
      <trkpt lat="48.61152" lon="-3.47437">
        <ele>123.67</ele>
        <time>2013-05-30T08:00:42Z</time>
      </trkpt>
      <trkpt lat="48.61149" lon="-3.47444">
        <ele>123.67</ele>
        <time>2013-05-30T08:00:43Z</time>
      </trkpt>
      <trkpt lat="48.61127" lon="-3.47482">
        <ele>123.67</ele>
        <time>2013-05-30T08:00:49Z</time>
      </trkpt>
      <trkpt lat="48.61043" lon="-3.47562">
        <ele>124.15</ele>
        <time>2013-05-30T08:01:06Z</time>
      </trkpt>
      <trkpt lat="48.60954" lon="-3.47654">
        <ele>124.63</ele>
        <time>2013-05-30T08:01:23Z</time>
      </trkpt>
      <trkpt lat="48.60876" lon="-3.47748">
        <ele>125.11</ele>
        <time>2013-05-30T08:01:39Z</time>
      </trkpt>
      <trkpt lat="48.60812" lon="-3.47826">
        <ele>127.99</ele>
        <time>2013-05-30T08:01:55Z</time>
      </trkpt>
      <trkpt lat="48.60808" lon="-3.4783">
        <ele>127.99</ele>
        <time>2013-05-30T08:01:56Z</time>
      </trkpt>
      <trkpt lat="48.608" lon="-3.47838">
        <ele>127.99</ele>
        <time>2013-05-30T08:01:58Z</time>
      </trkpt>
      <trkpt lat="48.60779" lon="-3.4785">
        <ele>128.47</ele>
        <time>2013-05-30T08:02:02Z</time>
      </trkpt>
      <trkpt lat="48.60774" lon="-3.47853">
        <ele>127.99</ele>
        <time>2013-05-30T08:02:03Z</time>
      </trkpt>
      <trkpt lat="48.60769" lon="-3.47855">
        <ele>127.99</ele>
        <time>2013-05-30T08:02:04Z</time>
      </trkpt>
      <trkpt lat="48.60744" lon="-3.4787">
        <ele>128.47</ele>
        <time>2013-05-30T08:02:09Z</time>
      </trkpt>
      <trkpt lat="48.60739" lon="-3.47874">
        <ele>128.47</ele>
        <time>2013-05-30T08:02:10Z</time>
      </trkpt>
      <trkpt lat="48.60735" lon="-3.47879">
        <ele>128.95</ele>
        <time>2013-05-30T08:02:11Z</time>
      </trkpt>
      <trkpt lat="48.6073" lon="-3.47891">
        <ele>129.92</ele>
        <time>2013-05-30T08:02:13Z</time>
      </trkpt>
      <trkpt lat="48.60728" lon="-3.47898">
        <ele>129.92</ele>
        <time>2013-05-30T08:02:14Z</time>
      </trkpt>
      <trkpt lat="48.60726" lon="-3.47904">
        <ele>130.4</ele>
        <time>2013-05-30T08:02:15Z</time>
      </trkpt>
      <trkpt lat="48.60703" lon="-3.47975">
        <ele>133.28</ele>
        <time>2013-05-30T08:02:27Z</time>
      </trkpt>
      <trkpt lat="48.60677" lon="-3.48049">
        <ele>136.64</ele>
        <time>2013-05-30T08:02:40Z</time>
      </trkpt>
      <trkpt lat="48.60648" lon="-3.48134">
        <ele>140.01</ele>
        <time>2013-05-30T08:02:55Z</time>
      </trkpt>
      <trkpt lat="48.60608" lon="-3.48228">
        <ele>142.89</ele>
        <time>2013-05-30T08:03:12Z</time>
      </trkpt>
      <trkpt lat="48.60569" lon="-3.48301">
        <ele>146.26</ele>
        <time>2013-05-30T08:03:26Z</time>
      </trkpt>
      <trkpt lat="48.60535" lon="-3.48369">
        <ele>147.7</ele>
        <time>2013-05-30T08:03:39Z</time>
      </trkpt>
      <trkpt lat="48.60499" lon="-3.48459">
        <ele>151.06</ele>
        <time>2013-05-30T08:03:55Z</time>
      </trkpt>
      <trkpt lat="48.60441" lon="-3.48559">
        <ele>154.43</ele>
        <time>2013-05-30T08:04:15Z</time>
      </trkpt>
      <trkpt lat="48.60392" lon="-3.48608">
        <ele>158.27</ele>
        <time>2013-05-30T08:04:28Z</time>
      </trkpt>
      <trkpt lat="48.60322" lon="-3.48668">
        <ele>160.2</ele>
        <time>2013-05-30T08:04:46Z</time>
      </trkpt>
      <trkpt lat="48.60269" lon="-3.4873">
        <ele>163.56</ele>
        <time>2013-05-30T08:05:01Z</time>
      </trkpt>
      <trkpt lat="48.60225" lon="-3.48817">
        <ele>166.93</ele>
        <time>2013-05-30T08:05:17Z</time>
      </trkpt>
      <trkpt lat="48.60155" lon="-3.48891">
        <ele>168.85</ele>
        <time>2013-05-30T08:05:35Z</time>
      </trkpt>
      <trkpt lat="48.60076" lon="-3.4896">
        <ele>169.33</ele>
        <time>2013-05-30T08:05:52Z</time>
      </trkpt>
      <trkpt lat="48.59977" lon="-3.49045">
        <ele>170.77</ele>
        <time>2013-05-30T08:06:13Z</time>
      </trkpt>
      <trkpt lat="48.5989" lon="-3.4912">
        <ele>172.69</ele>
        <time>2013-05-30T08:06:32Z</time>
      </trkpt>
      <trkpt lat="48.59805" lon="-3.49168">
        <ele>174.14</ele>
        <time>2013-05-30T08:06:49Z</time>
      </trkpt>
      <trkpt lat="48.59709" lon="-3.49206">
        <ele>174.62</ele>
        <time>2013-05-30T08:07:06Z</time>
      </trkpt>
      <trkpt lat="48.59643" lon="-3.49243">
        <ele>174.14</ele>
        <time>2013-05-30T08:07:17Z</time>
      </trkpt>
      <trkpt lat="48.59637" lon="-3.49247">
        <ele>174.14</ele>
        <time>2013-05-30T08:07:18Z</time>
      </trkpt>
      <trkpt lat="48.59519" lon="-3.49341">
        <ele>174.14</ele>
        <time>2013-05-30T08:07:38Z</time>
      </trkpt>
      <trkpt lat="48.59419" lon="-3.49442">
        <ele>173.66</ele>
        <time>2013-05-30T08:07:56Z</time>
      </trkpt>
      <trkpt lat="48.59311" lon="-3.49512">
        <ele>172.69</ele>
        <time>2013-05-30T08:08:13Z</time>
      </trkpt>
      <trkpt lat="48.59177" lon="-3.49568">
        <ele>171.25</ele>
        <time>2013-05-30T08:08:32Z</time>
      </trkpt>
      <trkpt lat="48.59068" lon="-3.49596">
        <ele>170.77</ele>
        <time>2013-05-30T08:08:48Z</time>
      </trkpt>
      <trkpt lat="48.58964" lon="-3.49587">
        <ele>171.73</ele>
        <time>2013-05-30T08:09:04Z</time>
      </trkpt>
      <trkpt lat="48.58852" lon="-3.49562">
        <ele>172.21</ele>
        <time>2013-05-30T08:09:21Z</time>
      </trkpt>
      <trkpt lat="48.58714" lon="-3.49531">
        <ele>171.25</ele>
        <time>2013-05-30T08:09:41Z</time>
      </trkpt>
      <trkpt lat="48.58588" lon="-3.49499">
        <ele>168.37</ele>
        <time>2013-05-30T08:09:58Z</time>
      </trkpt>
      <trkpt lat="48.58441" lon="-3.49478">
        <ele>164.52</ele>
        <time>2013-05-30T08:10:16Z</time>
      </trkpt>
      <trkpt lat="48.58424" lon="-3.49476">
        <ele>163.56</ele>
        <time>2013-05-30T08:10:18Z</time>
      </trkpt>
      <trkpt lat="48.58295" lon="-3.49458">
        <ele>160.2</ele>
        <time>2013-05-30T08:10:33Z</time>
      </trkpt>
      <trkpt lat="48.58203" lon="-3.49456">
        <ele>157.31</ele>
        <time>2013-05-30T08:10:44Z</time>
      </trkpt>
      <trkpt lat="48.58074" lon="-3.49464">
        <ele>156.83</ele>
        <time>2013-05-30T08:11:00Z</time>
      </trkpt>
      <trkpt lat="48.57929" lon="-3.49472">
        <ele>154.43</ele>
        <time>2013-05-30T08:11:19Z</time>
      </trkpt>
      <trkpt lat="48.57809" lon="-3.49478">
        <ele>152.99</ele>
        <time>2013-05-30T08:11:35Z</time>
      </trkpt>
      <trkpt lat="48.57697" lon="-3.49484">
        <ele>152.51</ele>
        <time>2013-05-30T08:11:51Z</time>
      </trkpt>
      <trkpt lat="48.57598" lon="-3.49489">
        <ele>152.99</ele>
        <time>2013-05-30T08:12:06Z</time>
      </trkpt>
      <trkpt lat="48.57504" lon="-3.49496">
        <ele>154.43</ele>
        <time>2013-05-30T08:12:21Z</time>
      </trkpt>
      <trkpt lat="48.5738" lon="-3.49504">
        <ele>154.91</ele>
        <time>2013-05-30T08:12:40Z</time>
      </trkpt>
      <trkpt lat="48.57251" lon="-3.49511">
        <ele>157.31</ele>
        <time>2013-05-30T08:13:00Z</time>
      </trkpt>
      <trkpt lat="48.57163" lon="-3.49516">
        <ele>160.68</ele>
        <time>2013-05-30T08:13:15Z</time>
      </trkpt>
      <trkpt lat="48.57054" lon="-3.49521">
        <ele>163.56</ele>
        <time>2013-05-30T08:13:34Z</time>
      </trkpt>
      <trkpt lat="48.56954" lon="-3.49526">
        <ele>166.45</ele>
        <time>2013-05-30T08:13:52Z</time>
      </trkpt>
      <trkpt lat="48.56856" lon="-3.49533">
        <ele>169.81</ele>
        <time>2013-05-30T08:14:10Z</time>
      </trkpt>
      <trkpt lat="48.56761" lon="-3.49558">
        <ele>171.25</ele>
        <time>2013-05-30T08:14:28Z</time>
      </trkpt>
      <trkpt lat="48.56663" lon="-3.49596">
        <ele>174.62</ele>
        <time>2013-05-30T08:14:47Z</time>
      </trkpt>
      <trkpt lat="48.566" lon="-3.49632">
        <ele>177.5</ele>
        <time>2013-05-30T08:15:01Z</time>
      </trkpt>
      <trkpt lat="48.56556" lon="-3.49659">
        <ele>180.38</ele>
        <time>2013-05-30T08:15:12Z</time>
      </trkpt>
      <trkpt lat="48.56513" lon="-3.4969">
        <ele>183.27</ele>
        <time>2013-05-30T08:15:23Z</time>
      </trkpt>
      <trkpt lat="48.56462" lon="-3.49727">
        <ele>187.11</ele>
        <time>2013-05-30T08:15:36Z</time>
      </trkpt>
      <trkpt lat="48.56415" lon="-3.49762">
        <ele>190</ele>
        <time>2013-05-30T08:15:48Z</time>
      </trkpt>
      <trkpt lat="48.56369" lon="-3.49794">
        <ele>193.36</ele>
        <time>2013-05-30T08:16:00Z</time>
      </trkpt>
      <trkpt lat="48.56307" lon="-3.4984">
        <ele>196.25</ele>
        <time>2013-05-30T08:16:16Z</time>
      </trkpt>
      <trkpt lat="48.56249" lon="-3.49879">
        <ele>197.69</ele>
        <time>2013-05-30T08:16:32Z</time>
      </trkpt>
      <trkpt lat="48.56235" lon="-3.49889">
        <ele>197.69</ele>
        <time>2013-05-30T08:16:36Z</time>
      </trkpt>
      <trkpt lat="48.5618" lon="-3.49932">
        <ele>199.61</ele>
        <time>2013-05-30T08:16:49Z</time>
      </trkpt>
      <trkpt lat="48.56119" lon="-3.50008">
        <ele>198.17</ele>
        <time>2013-05-30T08:17:03Z</time>
      </trkpt>
      <trkpt lat="48.56059" lon="-3.50102">
        <ele>196.73</ele>
        <time>2013-05-30T08:17:16Z</time>
      </trkpt>
      <trkpt lat="48.55984" lon="-3.50201">
        <ele>195.28</ele>
        <time>2013-05-30T08:17:32Z</time>
      </trkpt>
      <trkpt lat="48.55903" lon="-3.50291">
        <ele>193.84</ele>
        <time>2013-05-30T08:17:48Z</time>
      </trkpt>
      <trkpt lat="48.55868" lon="-3.50328">
        <ele>192.4</ele>
        <time>2013-05-30T08:17:54Z</time>
      </trkpt>
      <trkpt lat="48.55788" lon="-3.5041">
        <ele>189.04</ele>
        <time>2013-05-30T08:18:07Z</time>
      </trkpt>
      <trkpt lat="48.55678" lon="-3.50517">
        <ele>186.63</ele>
        <time>2013-05-30T08:18:25Z</time>
      </trkpt>
      <trkpt lat="48.55565" lon="-3.50606">
        <ele>184.71</ele>
        <time>2013-05-30T08:18:43Z</time>
      </trkpt>
      <trkpt lat="48.55508" lon="-3.50645">
        <ele>183.27</ele>
        <time>2013-05-30T08:18:52Z</time>
      </trkpt>
      <trkpt lat="48.55503" lon="-3.50648">
        <ele>182.79</ele>
        <time>2013-05-30T08:18:53Z</time>
      </trkpt>
      <trkpt lat="48.55499" lon="-3.50652">
        <ele>182.31</ele>
        <time>2013-05-30T08:18:54Z</time>
      </trkpt>
      <trkpt lat="48.55497" lon="-3.50656">
        <ele>181.83</ele>
        <time>2013-05-30T08:18:55Z</time>
      </trkpt>
      <trkpt lat="48.55495" lon="-3.5066">
        <ele>181.35</ele>
        <time>2013-05-30T08:18:56Z</time>
      </trkpt>
      <trkpt lat="48.55495" lon="-3.50663">
        <ele>181.83</ele>
        <time>2013-05-30T08:18:57Z</time>
      </trkpt>
      <trkpt lat="48.55494" lon="-3.50664">
        <ele>180.87</ele>
        <time>2013-05-30T08:19:06Z</time>
      </trkpt>
      <trkpt lat="48.55495" lon="-3.50663">
        <ele>180.87</ele>
        <time>2013-05-30T08:19:27Z</time>
      </trkpt>
      <trkpt lat="48.55495" lon="-3.50662">
        <ele>181.35</ele>
        <time>2013-05-30T08:19:56Z</time>
      </trkpt>
      <trkpt lat="48.55495" lon="-3.50666">
        <ele>181.35</ele>
        <time>2013-05-30T08:20:05Z</time>
      </trkpt>
      <trkpt lat="48.55493" lon="-3.50667">
        <ele>181.35</ele>
        <time>2013-05-30T08:20:06Z</time>
      </trkpt>
      <trkpt lat="48.55492" lon="-3.50667">
        <ele>180.87</ele>
        <time>2013-05-30T08:20:07Z</time>
      </trkpt>
      <trkpt lat="48.5549" lon="-3.50666">
        <ele>180.87</ele>
        <time>2013-05-30T08:20:08Z</time>
      </trkpt>
      <trkpt lat="48.55488" lon="-3.50665">
        <ele>180.87</ele>
        <time>2013-05-30T08:20:09Z</time>
      </trkpt>
      <trkpt lat="48.55486" lon="-3.50662">
        <ele>180.87</ele>
        <time>2013-05-30T08:20:10Z</time>
      </trkpt>
      <trkpt lat="48.55472" lon="-3.50657">
        <ele>180.38</ele>
        <time>2013-05-30T08:20:14Z</time>
      </trkpt>
      <trkpt lat="48.55444" lon="-3.50664">
        <ele>179.42</ele>
        <time>2013-05-30T08:20:19Z</time>
      </trkpt>
      <trkpt lat="48.55343" lon="-3.50655">
        <ele>178.46</ele>
        <time>2013-05-30T08:20:33Z</time>
      </trkpt>
      <trkpt lat="48.55243" lon="-3.50603">
        <ele>175.1</ele>
        <time>2013-05-30T08:20:47Z</time>
      </trkpt>
      <trkpt lat="48.55149" lon="-3.50491">
        <ele>172.69</ele>
        <time>2013-05-30T08:21:01Z</time>
      </trkpt>
      <trkpt lat="48.55071" lon="-3.50443">
        <ele>169.33</ele>
        <time>2013-05-30T08:21:11Z</time>
      </trkpt>
      <trkpt lat="48.55054" lon="-3.50435">
        <ele>167.89</ele>
        <time>2013-05-30T08:21:13Z</time>
      </trkpt>
      <trkpt lat="48.54966" lon="-3.50398">
        <ele>165</ele>
        <time>2013-05-30T08:21:23Z</time>
      </trkpt>
      <trkpt lat="48.5488" lon="-3.50361">
        <ele>165.48</ele>
        <time>2013-05-30T08:21:36Z</time>
      </trkpt>
      <trkpt lat="48.548" lon="-3.50337">
        <ele>168.85</ele>
        <time>2013-05-30T08:21:50Z</time>
      </trkpt>
      <trkpt lat="48.54687" lon="-3.50293">
        <ele>167.89</ele>
        <time>2013-05-30T08:22:08Z</time>
      </trkpt>
      <trkpt lat="48.54625" lon="-3.50269">
        <ele>165.48</ele>
        <time>2013-05-30T08:22:16Z</time>
      </trkpt>
      <trkpt lat="48.54541" lon="-3.50241">
        <ele>164.52</ele>
        <time>2013-05-30T08:22:27Z</time>
      </trkpt>
      <trkpt lat="48.54441" lon="-3.50212">
        <ele>166.45</ele>
        <time>2013-05-30T08:22:42Z</time>
      </trkpt>
      <trkpt lat="48.54354" lon="-3.50174">
        <ele>167.89</ele>
        <time>2013-05-30T08:22:57Z</time>
      </trkpt>
      <trkpt lat="48.5427" lon="-3.50127">
        <ele>169.81</ele>
        <time>2013-05-30T08:23:11Z</time>
      </trkpt>
      <trkpt lat="48.54204" lon="-3.50094">
        <ele>172.69</ele>
        <time>2013-05-30T08:23:24Z</time>
      </trkpt>
      <trkpt lat="48.54123" lon="-3.50069">
        <ele>176.54</ele>
        <time>2013-05-30T08:23:40Z</time>
      </trkpt>
      <trkpt lat="48.54027" lon="-3.50042">
        <ele>179.42</ele>
        <time>2013-05-30T08:23:58Z</time>
      </trkpt>
      <trkpt lat="48.53932" lon="-3.50031">
        <ele>180.38</ele>
        <time>2013-05-30T08:24:14Z</time>
      </trkpt>
      <trkpt lat="48.53877" lon="-3.5006">
        <ele>182.79</ele>
        <time>2013-05-30T08:24:25Z</time>
      </trkpt>
      <trkpt lat="48.53807" lon="-3.50129">
        <ele>185.19</ele>
        <time>2013-05-30T08:24:41Z</time>
      </trkpt>
      <trkpt lat="48.53711" lon="-3.50175">
        <ele>185.19</ele>
        <time>2013-05-30T08:24:57Z</time>
      </trkpt>
      <trkpt lat="48.53587" lon="-3.50184">
        <ele>183.27</ele>
        <time>2013-05-30T08:25:15Z</time>
      </trkpt>
      <trkpt lat="48.53435" lon="-3.50165">
        <ele>180.38</ele>
        <time>2013-05-30T08:25:34Z</time>
      </trkpt>
      <trkpt lat="48.53326" lon="-3.50143">
        <ele>177.02</ele>
        <time>2013-05-30T08:25:47Z</time>
      </trkpt>
      <trkpt lat="48.53317" lon="-3.50141">
        <ele>176.54</ele>
        <time>2013-05-30T08:25:48Z</time>
      </trkpt>
      <trkpt lat="48.53192" lon="-3.50102">
        <ele>176.54</ele>
        <time>2013-05-30T08:26:04Z</time>
      </trkpt>
      <trkpt lat="48.53126" lon="-3.50054">
        <ele>176.06</ele>
        <time>2013-05-30T08:26:14Z</time>
      </trkpt>
      <trkpt lat="48.53063" lon="-3.49966">
        <ele>173.17</ele>
        <time>2013-05-30T08:26:25Z</time>
      </trkpt>
      <trkpt lat="48.53058" lon="-3.49956">
        <ele>172.69</ele>
        <time>2013-05-30T08:26:26Z</time>
      </trkpt>
      <trkpt lat="48.53037" lon="-3.49919">
        <ele>170.77</ele>
        <time>2013-05-30T08:26:30Z</time>
      </trkpt>
      <trkpt lat="48.52954" lon="-3.49821">
        <ele>169.81</ele>
        <time>2013-05-30T08:26:43Z</time>
      </trkpt>
      <trkpt lat="48.52846" lon="-3.49734">
        <ele>168.37</ele>
        <time>2013-05-30T08:26:59Z</time>
      </trkpt>
      <trkpt lat="48.52838" lon="-3.49732">
        <ele>167.89</ele>
        <time>2013-05-30T08:27:00Z</time>
      </trkpt>
      <trkpt lat="48.52741" lon="-3.49719">
        <ele>167.89</ele>
        <time>2013-05-30T08:27:13Z</time>
      </trkpt>
      <trkpt lat="48.52667" lon="-3.4966">
        <ele>167.41</ele>
        <time>2013-05-30T08:27:24Z</time>
      </trkpt>
      <trkpt lat="48.52637" lon="-3.49606">
        <ele>165.96</ele>
        <time>2013-05-30T08:27:30Z</time>
      </trkpt>
      <trkpt lat="48.52624" lon="-3.49563">
        <ele>165</ele>
        <time>2013-05-30T08:27:34Z</time>
      </trkpt>
      <trkpt lat="48.52607" lon="-3.49376">
        <ele>162.6</ele>
        <time>2013-05-30T08:27:49Z</time>
      </trkpt>
      <trkpt lat="48.52589" lon="-3.4914">
        <ele>160.68</ele>
        <time>2013-05-30T08:28:08Z</time>
      </trkpt>
      <trkpt lat="48.52582" lon="-3.49073">
        <ele>160.68</ele>
        <time>2013-05-30T08:28:14Z</time>
      </trkpt>
      <trkpt lat="48.52579" lon="-3.49062">
        <ele>160.68</ele>
        <time>2013-05-30T08:28:15Z</time>
      </trkpt>
      <trkpt lat="48.52573" lon="-3.49041">
        <ele>160.2</ele>
        <time>2013-05-30T08:28:17Z</time>
      </trkpt>
      <trkpt lat="48.52559" lon="-3.49014">
        <ele>160.68</ele>
        <time>2013-05-30T08:28:20Z</time>
      </trkpt>
      <trkpt lat="48.52458" lon="-3.48864">
        <ele>159.72</ele>
        <time>2013-05-30T08:28:38Z</time>
      </trkpt>
      <trkpt lat="48.52376" lon="-3.48769">
        <ele>156.83</ele>
        <time>2013-05-30T08:28:50Z</time>
      </trkpt>
      <trkpt lat="48.52369" lon="-3.48762">
        <ele>156.35</ele>
        <time>2013-05-30T08:28:51Z</time>
      </trkpt>
      <trkpt lat="48.52277" lon="-3.48697">
        <ele>152.99</ele>
        <time>2013-05-30T08:29:03Z</time>
      </trkpt>
      <trkpt lat="48.52253" lon="-3.48688">
        <ele>151.54</ele>
        <time>2013-05-30T08:29:06Z</time>
      </trkpt>
      <trkpt lat="48.52244" lon="-3.48687">
        <ele>151.54</ele>
        <time>2013-05-30T08:29:07Z</time>
      </trkpt>
      <trkpt lat="48.52236" lon="-3.48688">
        <ele>151.54</ele>
        <time>2013-05-30T08:29:08Z</time>
      </trkpt>
      <trkpt lat="48.52228" lon="-3.4869">
        <ele>151.54</ele>
        <time>2013-05-30T08:29:09Z</time>
      </trkpt>
      <trkpt lat="48.52221" lon="-3.48693">
        <ele>151.54</ele>
        <time>2013-05-30T08:29:10Z</time>
      </trkpt>
      <trkpt lat="48.52214" lon="-3.48698">
        <ele>151.54</ele>
        <time>2013-05-30T08:29:11Z</time>
      </trkpt>
      <trkpt lat="48.52208" lon="-3.48703">
        <ele>151.06</ele>
        <time>2013-05-30T08:29:12Z</time>
      </trkpt>
      <trkpt lat="48.52203" lon="-3.4871">
        <ele>151.06</ele>
        <time>2013-05-30T08:29:13Z</time>
      </trkpt>
      <trkpt lat="48.52198" lon="-3.48718">
        <ele>151.06</ele>
        <time>2013-05-30T08:29:14Z</time>
      </trkpt>
      <trkpt lat="48.52194" lon="-3.48727">
        <ele>151.06</ele>
        <time>2013-05-30T08:29:15Z</time>
      </trkpt>
      <trkpt lat="48.5219" lon="-3.48736">
        <ele>151.06</ele>
        <time>2013-05-30T08:29:16Z</time>
      </trkpt>
      <trkpt lat="48.5218" lon="-3.48762">
        <ele>151.54</ele>
        <time>2013-05-30T08:29:19Z</time>
      </trkpt>
      <trkpt lat="48.52172" lon="-3.48786">
        <ele>151.54</ele>
        <time>2013-05-30T08:29:22Z</time>
      </trkpt>
      <trkpt lat="48.52169" lon="-3.4879">
        <ele>151.54</ele>
        <time>2013-05-30T08:29:23Z</time>
      </trkpt>
      <trkpt lat="48.52164" lon="-3.48792">
        <ele>151.54</ele>
        <time>2013-05-30T08:29:24Z</time>
      </trkpt>
      <trkpt lat="48.52159" lon="-3.48792">
        <ele>151.54</ele>
        <time>2013-05-30T08:29:25Z</time>
      </trkpt>
      <trkpt lat="48.52153" lon="-3.4879">
        <ele>151.54</ele>
        <time>2013-05-30T08:29:26Z</time>
      </trkpt>
      <trkpt lat="48.52148" lon="-3.48788">
        <ele>151.06</ele>
        <time>2013-05-30T08:29:27Z</time>
      </trkpt>
      <trkpt lat="48.52142" lon="-3.48785">
        <ele>151.54</ele>
        <time>2013-05-30T08:29:28Z</time>
      </trkpt>
      <trkpt lat="48.52136" lon="-3.48783">
        <ele>151.54</ele>
        <time>2013-05-30T08:29:29Z</time>
      </trkpt>
      <trkpt lat="48.52131" lon="-3.4878">
        <ele>151.54</ele>
        <time>2013-05-30T08:29:30Z</time>
      </trkpt>
      <trkpt lat="48.52127" lon="-3.48777">
        <ele>151.54</ele>
        <time>2013-05-30T08:29:31Z</time>
      </trkpt>
      <trkpt lat="48.52118" lon="-3.48768">
        <ele>152.03</ele>
        <time>2013-05-30T08:29:33Z</time>
      </trkpt>
      <trkpt lat="48.52114" lon="-3.48761">
        <ele>152.03</ele>
        <time>2013-05-30T08:29:34Z</time>
      </trkpt>
      <trkpt lat="48.52112" lon="-3.48753">
        <ele>152.51</ele>
        <time>2013-05-30T08:29:35Z</time>
      </trkpt>
      <trkpt lat="48.52111" lon="-3.4873">
        <ele>152.51</ele>
        <time>2013-05-30T08:29:38Z</time>
      </trkpt>
      <trkpt lat="48.52112" lon="-3.48723">
        <ele>152.51</ele>
        <time>2013-05-30T08:29:39Z</time>
      </trkpt>
      <trkpt lat="48.52113" lon="-3.48716">
        <ele>152.51</ele>
        <time>2013-05-30T08:29:40Z</time>
      </trkpt>
      <trkpt lat="48.52115" lon="-3.4871">
        <ele>152.51</ele>
        <time>2013-05-30T08:29:41Z</time>
      </trkpt>
      <trkpt lat="48.52118" lon="-3.48703">
        <ele>152.99</ele>
        <time>2013-05-30T08:29:42Z</time>
      </trkpt>
      <trkpt lat="48.52133" lon="-3.48672">
        <ele>152.99</ele>
        <time>2013-05-30T08:29:47Z</time>
      </trkpt>
      <trkpt lat="48.52137" lon="-3.48666">
        <ele>152.51</ele>
        <time>2013-05-30T08:29:48Z</time>
      </trkpt>
      <trkpt lat="48.52146" lon="-3.48655">
        <ele>152.51</ele>
        <time>2013-05-30T08:29:50Z</time>
      </trkpt>
      <trkpt lat="48.52155" lon="-3.48634">
        <ele>152.51</ele>
        <time>2013-05-30T08:29:53Z</time>
      </trkpt>
      <trkpt lat="48.52157" lon="-3.48626">
        <ele>152.03</ele>
        <time>2013-05-30T08:29:54Z</time>
      </trkpt>
      <trkpt lat="48.52175" lon="-3.48526">
        <ele>154.43</ele>
        <time>2013-05-30T08:30:07Z</time>
      </trkpt>
      <trkpt lat="48.52189" lon="-3.48457">
        <ele>156.83</ele>
        <time>2013-05-30T08:30:18Z</time>
      </trkpt>
      <trkpt lat="48.5219" lon="-3.4845">
        <ele>157.31</ele>
        <time>2013-05-30T08:30:19Z</time>
      </trkpt>
      <trkpt lat="48.52184" lon="-3.4839">
        <ele>158.27</ele>
        <time>2013-05-30T08:30:28Z</time>
      </trkpt>
      <trkpt lat="48.52183" lon="-3.48383">
        <ele>158.75</ele>
        <time>2013-05-30T08:30:29Z</time>
      </trkpt>
      <trkpt lat="48.52182" lon="-3.48375">
        <ele>158.75</ele>
        <time>2013-05-30T08:30:30Z</time>
      </trkpt>
      <trkpt lat="48.52169" lon="-3.48279">
        <ele>159.24</ele>
        <time>2013-05-30T08:30:43Z</time>
      </trkpt>
      <trkpt lat="48.52167" lon="-3.48271">
        <ele>159.24</ele>
        <time>2013-05-30T08:30:44Z</time>
      </trkpt>
      <trkpt lat="48.52143" lon="-3.48209">
        <ele>160.2</ele>
        <time>2013-05-30T08:30:53Z</time>
      </trkpt>
      <trkpt lat="48.52139" lon="-3.48205">
        <ele>160.2</ele>
        <time>2013-05-30T08:30:54Z</time>
      </trkpt>
      <trkpt lat="48.52111" lon="-3.48184">
        <ele>163.56</ele>
        <time>2013-05-30T08:31:03Z</time>
      </trkpt>
      <trkpt lat="48.52077" lon="-3.48179">
        <ele>166.93</ele>
        <time>2013-05-30T08:31:13Z</time>
      </trkpt>
      <trkpt lat="48.52017" lon="-3.48184">
        <ele>169.81</ele>
        <time>2013-05-30T08:31:29Z</time>
      </trkpt>
      <trkpt lat="48.5196" lon="-3.48188">
        <ele>172.69</ele>
        <time>2013-05-30T08:31:44Z</time>
      </trkpt>
      <trkpt lat="48.51893" lon="-3.48188">
        <ele>175.1</ele>
        <time>2013-05-30T08:32:02Z</time>
      </trkpt>
      <trkpt lat="48.51857" lon="-3.48178">
        <ele>178.46</ele>
        <time>2013-05-30T08:32:12Z</time>
      </trkpt>
      <trkpt lat="48.51799" lon="-3.48153">
        <ele>181.83</ele>
        <time>2013-05-30T08:32:28Z</time>
      </trkpt>
      <trkpt lat="48.51735" lon="-3.48095">
        <ele>184.71</ele>
        <time>2013-05-30T08:32:46Z</time>
      </trkpt>
      <trkpt lat="48.51668" lon="-3.48018">
        <ele>187.59</ele>
        <time>2013-05-30T08:33:06Z</time>
      </trkpt>
      <trkpt lat="48.51651" lon="-3.47999">
        <ele>188.56</ele>
        <time>2013-05-30T08:33:11Z</time>
      </trkpt>
      <trkpt lat="48.51649" lon="-3.47994">
        <ele>188.56</ele>
        <time>2013-05-30T08:33:12Z</time>
      </trkpt>
      <trkpt lat="48.51636" lon="-3.47954">
        <ele>190.48</ele>
        <time>2013-05-30T08:33:25Z</time>
      </trkpt>
      <trkpt lat="48.51636" lon="-3.47952">
        <ele>190.48</ele>
        <time>2013-05-30T08:33:26Z</time>
      </trkpt>
      <trkpt lat="48.51637" lon="-3.47951">
        <ele>190.48</ele>
        <time>2013-05-30T08:33:27Z</time>
      </trkpt>
      <trkpt lat="48.51638" lon="-3.47949">
        <ele>190.48</ele>
        <time>2013-05-30T08:33:28Z</time>
      </trkpt>
      <trkpt lat="48.51639" lon="-3.47949">
        <ele>190.48</ele>
        <time>2013-05-30T08:33:29Z</time>
      </trkpt>
      <trkpt lat="48.5164" lon="-3.47951">
        <ele>190.48</ele>
        <time>2013-05-30T08:33:30Z</time>
      </trkpt>
      <trkpt lat="48.51641" lon="-3.47954">
        <ele>190.48</ele>
        <time>2013-05-30T08:33:31Z</time>
      </trkpt>
      <trkpt lat="48.51641" lon="-3.47958">
        <ele>190.96</ele>
        <time>2013-05-30T08:33:32Z</time>
      </trkpt>
      <trkpt lat="48.51641" lon="-3.47961">
        <ele>190</ele>
        <time>2013-05-30T08:33:33Z</time>
      </trkpt>
      <trkpt lat="48.51641" lon="-3.47965">
        <ele>190.48</ele>
        <time>2013-05-30T08:33:34Z</time>
      </trkpt>
      <trkpt lat="48.51641" lon="-3.47969">
        <ele>190.48</ele>
        <time>2013-05-30T08:33:35Z</time>
      </trkpt>
      <trkpt lat="48.51641" lon="-3.47973">
        <ele>190.48</ele>
        <time>2013-05-30T08:33:36Z</time>
      </trkpt>
      <trkpt lat="48.51642" lon="-3.47976">
        <ele>190.48</ele>
        <time>2013-05-30T08:33:37Z</time>
      </trkpt>
      <trkpt lat="48.51644" lon="-3.4798">
        <ele>190.48</ele>
        <time>2013-05-30T08:33:38Z</time>
      </trkpt>
      <trkpt lat="48.51646" lon="-3.47984">
        <ele>190.48</ele>
        <time>2013-05-30T08:33:39Z</time>
      </trkpt>
      <trkpt lat="48.51648" lon="-3.47986">
        <ele>190</ele>
        <time>2013-05-30T08:33:40Z</time>
      </trkpt>
      <trkpt lat="48.5165" lon="-3.47989">
        <ele>190</ele>
        <time>2013-05-30T08:33:41Z</time>
      </trkpt>
      <trkpt lat="48.5165" lon="-3.47993">
        <ele>189.52</ele>
        <time>2013-05-30T08:33:42Z</time>
      </trkpt>
      <trkpt lat="48.51649" lon="-3.47995">
        <ele>189.52</ele>
        <time>2013-05-30T08:33:43Z</time>
      </trkpt>
      <trkpt lat="48.51647" lon="-3.47994">
        <ele>189.04</ele>
        <time>2013-05-30T08:33:44Z</time>
      </trkpt>
      <trkpt lat="48.51646" lon="-3.47992">
        <ele>189.04</ele>
        <time>2013-05-30T08:33:45Z</time>
      </trkpt>
      <trkpt lat="48.51646" lon="-3.47988">
        <ele>189.04</ele>
        <time>2013-05-30T08:33:46Z</time>
      </trkpt>
      <trkpt lat="48.5164" lon="-3.47949">
        <ele>190.48</ele>
        <time>2013-05-30T08:33:54Z</time>
      </trkpt>
      <trkpt lat="48.51641" lon="-3.47944">
        <ele>190.48</ele>
        <time>2013-05-30T08:33:55Z</time>
      </trkpt>
      <trkpt lat="48.51643" lon="-3.47939">
        <ele>190.48</ele>
        <time>2013-05-30T08:33:56Z</time>
      </trkpt>
      <trkpt lat="48.51646" lon="-3.47934">
        <ele>190</ele>
        <time>2013-05-30T08:33:57Z</time>
      </trkpt>
      <trkpt lat="48.51649" lon="-3.47928">
        <ele>189.52</ele>
        <time>2013-05-30T08:33:58Z</time>
      </trkpt>
      <trkpt lat="48.51652" lon="-3.47922">
        <ele>190</ele>
        <time>2013-05-30T08:33:59Z</time>
      </trkpt>
      <trkpt lat="48.51655" lon="-3.47917">
        <ele>189.52</ele>
        <time>2013-05-30T08:34:00Z</time>
      </trkpt>
      <trkpt lat="48.51672" lon="-3.47877">
        <ele>190</ele>
        <time>2013-05-30T08:34:06Z</time>
      </trkpt>
      <trkpt lat="48.51726" lon="-3.47766">
        <ele>190.48</ele>
        <time>2013-05-30T08:34:23Z</time>
      </trkpt>
      <trkpt lat="48.51737" lon="-3.47673">
        <ele>190</ele>
        <time>2013-05-30T08:34:35Z</time>
      </trkpt>
      <trkpt lat="48.51737" lon="-3.47655">
        <ele>189.52</ele>
        <time>2013-05-30T08:34:37Z</time>
      </trkpt>
      <trkpt lat="48.51738" lon="-3.47645">
        <ele>189.52</ele>
        <time>2013-05-30T08:34:38Z</time>
      </trkpt>
      <trkpt lat="48.51739" lon="-3.47636">
        <ele>189.52</ele>
        <time>2013-05-30T08:34:39Z</time>
      </trkpt>
      <trkpt lat="48.51741" lon="-3.47626">
        <ele>189.04</ele>
        <time>2013-05-30T08:34:40Z</time>
      </trkpt>
      <trkpt lat="48.51744" lon="-3.47616">
        <ele>188.56</ele>
        <time>2013-05-30T08:34:41Z</time>
      </trkpt>
      <trkpt lat="48.51748" lon="-3.47606">
        <ele>188.08</ele>
        <time>2013-05-30T08:34:42Z</time>
      </trkpt>
      <trkpt lat="48.51799" lon="-3.47501">
        <ele>185.67</ele>
        <time>2013-05-30T08:34:54Z</time>
      </trkpt>
      <trkpt lat="48.51829" lon="-3.4746">
        <ele>184.71</ele>
        <time>2013-05-30T08:35:00Z</time>
      </trkpt>
      <trkpt lat="48.5185" lon="-3.47437">
        <ele>184.23</ele>
        <time>2013-05-30T08:35:04Z</time>
      </trkpt>
      <trkpt lat="48.51871" lon="-3.47419">
        <ele>185.19</ele>
        <time>2013-05-30T08:35:08Z</time>
      </trkpt>
      <trkpt lat="48.51936" lon="-3.47367">
        <ele>187.11</ele>
        <time>2013-05-30T08:35:22Z</time>
      </trkpt>
      <trkpt lat="48.51939" lon="-3.47361">
        <ele>186.63</ele>
        <time>2013-05-30T08:35:23Z</time>
      </trkpt>
      <trkpt lat="48.51942" lon="-3.47354">
        <ele>186.63</ele>
        <time>2013-05-30T08:35:24Z</time>
      </trkpt>
      <trkpt lat="48.51945" lon="-3.47347">
        <ele>187.11</ele>
        <time>2013-05-30T08:35:25Z</time>
      </trkpt>
      <trkpt lat="48.51947" lon="-3.47339">
        <ele>187.11</ele>
        <time>2013-05-30T08:35:26Z</time>
      </trkpt>
      <trkpt lat="48.51949" lon="-3.47331">
        <ele>186.63</ele>
        <time>2013-05-30T08:35:27Z</time>
      </trkpt>
      <trkpt lat="48.5195" lon="-3.47323">
        <ele>186.63</ele>
        <time>2013-05-30T08:35:28Z</time>
      </trkpt>
      <trkpt lat="48.51951" lon="-3.47314">
        <ele>186.15</ele>
        <time>2013-05-30T08:35:29Z</time>
      </trkpt>
      <trkpt lat="48.51951" lon="-3.47305">
        <ele>186.63</ele>
        <time>2013-05-30T08:35:30Z</time>
      </trkpt>
      <trkpt lat="48.51951" lon="-3.47295">
        <ele>185.67</ele>
        <time>2013-05-30T08:35:31Z</time>
      </trkpt>
      <trkpt lat="48.51944" lon="-3.47137">
        <ele>186.15</ele>
        <time>2013-05-30T08:35:48Z</time>
      </trkpt>
      <trkpt lat="48.51942" lon="-3.47009">
        <ele>184.23</ele>
        <time>2013-05-30T08:36:01Z</time>
      </trkpt>
      <trkpt lat="48.51953" lon="-3.46835">
        <ele>182.31</ele>
        <time>2013-05-30T08:36:16Z</time>
      </trkpt>
      <trkpt lat="48.51963" lon="-3.46714">
        <ele>178.94</ele>
        <time>2013-05-30T08:36:26Z</time>
      </trkpt>
      <trkpt lat="48.51952" lon="-3.4656">
        <ele>176.06</ele>
        <time>2013-05-30T08:36:39Z</time>
      </trkpt>
      <trkpt lat="48.5195" lon="-3.46545">
        <ele>175.58</ele>
        <time>2013-05-30T08:36:40Z</time>
      </trkpt>
      <trkpt lat="48.51943" lon="-3.46483">
        <ele>171.73</ele>
        <time>2013-05-30T08:36:44Z</time>
      </trkpt>
      <trkpt lat="48.51941" lon="-3.46468">
        <ele>171.25</ele>
        <time>2013-05-30T08:36:45Z</time>
      </trkpt>
      <trkpt lat="48.51934" lon="-3.46429">
        <ele>169.33</ele>
        <time>2013-05-30T08:36:48Z</time>
      </trkpt>
      <trkpt lat="48.51927" lon="-3.46406">
        <ele>168.37</ele>
        <time>2013-05-30T08:36:50Z</time>
      </trkpt>
      <trkpt lat="48.51922" lon="-3.46395">
        <ele>168.37</ele>
        <time>2013-05-30T08:36:51Z</time>
      </trkpt>
      <trkpt lat="48.51916" lon="-3.46385">
        <ele>167.41</ele>
        <time>2013-05-30T08:36:52Z</time>
      </trkpt>
      <trkpt lat="48.51855" lon="-3.46296">
        <ele>167.89</ele>
        <time>2013-05-30T08:37:04Z</time>
      </trkpt>
      <trkpt lat="48.51843" lon="-3.46282">
        <ele>165.96</ele>
        <time>2013-05-30T08:37:08Z</time>
      </trkpt>
      <trkpt lat="48.51844" lon="-3.46282">
        <ele>165.96</ele>
        <time>2013-05-30T08:37:19Z</time>
      </trkpt>
      <trkpt lat="48.51843" lon="-3.4628">
        <ele>165.48</ele>
        <time>2013-05-30T08:37:21Z</time>
      </trkpt>
      <trkpt lat="48.51842" lon="-3.46278">
        <ele>165.48</ele>
        <time>2013-05-30T08:37:22Z</time>
      </trkpt>
      <trkpt lat="48.5184" lon="-3.46275">
        <ele>165.48</ele>
        <time>2013-05-30T08:37:23Z</time>
      </trkpt>
      <trkpt lat="48.51838" lon="-3.46272">
        <ele>165</ele>
        <time>2013-05-30T08:37:24Z</time>
      </trkpt>
      <trkpt lat="48.51834" lon="-3.46267">
        <ele>164.52</ele>
        <time>2013-05-30T08:37:25Z</time>
      </trkpt>
      <trkpt lat="48.51809" lon="-3.46231">
        <ele>162.6</ele>
        <time>2013-05-30T08:37:30Z</time>
      </trkpt>
      <trkpt lat="48.51786" lon="-3.462">
        <ele>159.24</ele>
        <time>2013-05-30T08:37:33Z</time>
      </trkpt>
      <trkpt lat="48.51762" lon="-3.46166">
        <ele>154.91</ele>
        <time>2013-05-30T08:37:36Z</time>
      </trkpt>
      <trkpt lat="48.51737" lon="-3.46132">
        <ele>151.06</ele>
        <time>2013-05-30T08:37:39Z</time>
      </trkpt>
      <trkpt lat="48.51706" lon="-3.46103">
        <ele>147.22</ele>
        <time>2013-05-30T08:37:42Z</time>
      </trkpt>
      <trkpt lat="48.51661" lon="-3.46067">
        <ele>143.85</ele>
        <time>2013-05-30T08:37:46Z</time>
      </trkpt>
      <trkpt lat="48.51651" lon="-3.46058">
        <ele>143.85</ele>
        <time>2013-05-30T08:37:47Z</time>
      </trkpt>
      <trkpt lat="48.51582" lon="-3.46016">
        <ele>144.82</ele>
        <time>2013-05-30T08:37:55Z</time>
      </trkpt>
      <trkpt lat="48.51543" lon="-3.45994">
        <ele>147.7</ele>
        <time>2013-05-30T08:38:05Z</time>
      </trkpt>
      <trkpt lat="48.51497" lon="-3.45993">
        <ele>151.06</ele>
        <time>2013-05-30T08:38:18Z</time>
      </trkpt>
      <trkpt lat="48.51484" lon="-3.46002">
        <ele>151.06</ele>
        <time>2013-05-30T08:38:27Z</time>
      </trkpt>
      <trkpt lat="48.51484" lon="-3.46003">
        <ele>151.54</ele>
        <time>2013-05-30T08:38:41Z</time>
      </trkpt>
      <trkpt lat="48.51484" lon="-3.46003">
        <ele>152.03</ele>
        <time>2013-05-30T08:39:04Z</time>
      </trkpt>
      <trkpt lat="48.51484" lon="-3.46003">
        <ele>151.54</ele>
        <time>2013-05-30T08:39:31Z</time>
      </trkpt>
      <trkpt lat="48.51483" lon="-3.46003">
        <ele>151.54</ele>
        <time>2013-05-30T08:40:00Z</time>
      </trkpt>
      <trkpt lat="48.51484" lon="-3.46002">
        <ele>151.54</ele>
        <time>2013-05-30T08:40:30Z</time>
      </trkpt>
      <trkpt lat="48.51485" lon="-3.46002">
        <ele>151.54</ele>
        <time>2013-05-30T08:40:54Z</time>
      </trkpt>
      <trkpt lat="48.51485" lon="-3.46002">
        <ele>152.51</ele>
        <time>2013-05-30T08:41:20Z</time>
      </trkpt>
      <trkpt lat="48.51484" lon="-3.46002">
        <ele>151.54</ele>
        <time>2013-05-30T08:41:44Z</time>
      </trkpt>
      <trkpt lat="48.51484" lon="-3.46002">
        <ele>151.54</ele>
        <time>2013-05-30T08:42:14Z</time>
      </trkpt>
      <trkpt lat="48.51485" lon="-3.46003">
        <ele>151.54</ele>
        <time>2013-05-30T08:42:41Z</time>
      </trkpt>
      <trkpt lat="48.51485" lon="-3.46">
        <ele>151.54</ele>
        <time>2013-05-30T08:42:56Z</time>
      </trkpt>
      <trkpt lat="48.51487" lon="-3.45999">
        <ele>151.54</ele>
        <time>2013-05-30T08:42:57Z</time>
      </trkpt>
      <trkpt lat="48.51488" lon="-3.45997">
        <ele>151.54</ele>
        <time>2013-05-30T08:42:58Z</time>
      </trkpt>
      <trkpt lat="48.51518" lon="-3.45978">
        <ele>151.54</ele>
        <time>2013-05-30T08:43:06Z</time>
      </trkpt>
      <trkpt lat="48.51522" lon="-3.45974">
        <ele>151.06</ele>
        <time>2013-05-30T08:43:07Z</time>
      </trkpt>
      <trkpt lat="48.51554" lon="-3.45921">
        <ele>152.03</ele>
        <time>2013-05-30T08:43:20Z</time>
      </trkpt>
      <trkpt lat="48.51568" lon="-3.4589">
        <ele>152.03</ele>
        <time>2013-05-30T08:43:26Z</time>
      </trkpt>
      <trkpt lat="48.51596" lon="-3.45787">
        <ele>152.99</ele>
        <time>2013-05-30T08:43:42Z</time>
      </trkpt>
      <trkpt lat="48.51607" lon="-3.45742">
        <ele>152.99</ele>
        <time>2013-05-30T08:43:49Z</time>
      </trkpt>
      <trkpt lat="48.51626" lon="-3.45667">
        <ele>153.95</ele>
        <time>2013-05-30T08:44:00Z</time>
      </trkpt>
      <trkpt lat="48.51662" lon="-3.45556">
        <ele>154.43</ele>
        <time>2013-05-30T08:44:17Z</time>
      </trkpt>
      <trkpt lat="48.51668" lon="-3.45533">
        <ele>154.91</ele>
        <time>2013-05-30T08:44:25Z</time>
      </trkpt>
      <trkpt lat="48.51668" lon="-3.45534">
        <ele>154.91</ele>
        <time>2013-05-30T08:44:26Z</time>
      </trkpt>
      <trkpt lat="48.51668" lon="-3.45536">
        <ele>154.91</ele>
        <time>2013-05-30T08:44:27Z</time>
      </trkpt>
      <trkpt lat="48.51667" lon="-3.45538">
        <ele>154.91</ele>
        <time>2013-05-30T08:44:28Z</time>
      </trkpt>
      <trkpt lat="48.51667" lon="-3.45542">
        <ele>154.91</ele>
        <time>2013-05-30T08:44:29Z</time>
      </trkpt>
      <trkpt lat="48.51666" lon="-3.45546">
        <ele>155.87</ele>
        <time>2013-05-30T08:44:30Z</time>
      </trkpt>
      <trkpt lat="48.51665" lon="-3.45551">
        <ele>155.87</ele>
        <time>2013-05-30T08:44:31Z</time>
      </trkpt>
      <trkpt lat="48.51663" lon="-3.45556">
        <ele>155.87</ele>
        <time>2013-05-30T08:44:32Z</time>
      </trkpt>
      <trkpt lat="48.51662" lon="-3.45563">
        <ele>156.35</ele>
        <time>2013-05-30T08:44:33Z</time>
      </trkpt>
      <trkpt lat="48.51634" lon="-3.45652">
        <ele>154.43</ele>
        <time>2013-05-30T08:44:46Z</time>
      </trkpt>
      <trkpt lat="48.51632" lon="-3.4566">
        <ele>154.43</ele>
        <time>2013-05-30T08:44:47Z</time>
      </trkpt>
      <trkpt lat="48.51596" lon="-3.45798">
        <ele>153.47</ele>
        <time>2013-05-30T08:45:05Z</time>
      </trkpt>
      <trkpt lat="48.51567" lon="-3.45894">
        <ele>153.95</ele>
        <time>2013-05-30T08:45:18Z</time>
      </trkpt>
      <trkpt lat="48.51561" lon="-3.45907">
        <ele>153.95</ele>
        <time>2013-05-30T08:45:20Z</time>
      </trkpt>
      <trkpt lat="48.51559" lon="-3.45914">
        <ele>153.47</ele>
        <time>2013-05-30T08:45:21Z</time>
      </trkpt>
      <trkpt lat="48.51556" lon="-3.45921">
        <ele>153.47</ele>
        <time>2013-05-30T08:45:22Z</time>
      </trkpt>
      <trkpt lat="48.5152" lon="-3.45978">
        <ele>152.03</ele>
        <time>2013-05-30T08:45:31Z</time>
      </trkpt>
      <trkpt lat="48.51515" lon="-3.45983">
        <ele>151.54</ele>
        <time>2013-05-30T08:45:32Z</time>
      </trkpt>
      <trkpt lat="48.51509" lon="-3.45987">
        <ele>151.54</ele>
        <time>2013-05-30T08:45:33Z</time>
      </trkpt>
      <trkpt lat="48.51503" lon="-3.4599">
        <ele>151.54</ele>
        <time>2013-05-30T08:45:34Z</time>
      </trkpt>
      <trkpt lat="48.51498" lon="-3.45993">
        <ele>151.06</ele>
        <time>2013-05-30T08:45:35Z</time>
      </trkpt>
      <trkpt lat="48.51488" lon="-3.45999">
        <ele>150.58</ele>
        <time>2013-05-30T08:45:37Z</time>
      </trkpt>
      <trkpt lat="48.51483" lon="-3.46003">
        <ele>151.06</ele>
        <time>2013-05-30T08:45:38Z</time>
      </trkpt>
      <trkpt lat="48.5148" lon="-3.46007">
        <ele>151.06</ele>
        <time>2013-05-30T08:45:39Z</time>
      </trkpt>
      <trkpt lat="48.5147" lon="-3.46023">
        <ele>151.54</ele>
        <time>2013-05-30T08:45:42Z</time>
      </trkpt>
      <trkpt lat="48.51465" lon="-3.46033">
        <ele>152.99</ele>
        <time>2013-05-30T08:45:44Z</time>
      </trkpt>
      <trkpt lat="48.51452" lon="-3.4606">
        <ele>153.95</ele>
        <time>2013-05-30T08:45:49Z</time>
      </trkpt>
      <trkpt lat="48.51449" lon="-3.46064">
        <ele>153.95</ele>
        <time>2013-05-30T08:45:50Z</time>
      </trkpt>
      <trkpt lat="48.5142" lon="-3.46126">
        <ele>156.83</ele>
        <time>2013-05-30T08:46:03Z</time>
      </trkpt>
      <trkpt lat="48.514" lon="-3.46178">
        <ele>158.27</ele>
        <time>2013-05-30T08:46:15Z</time>
      </trkpt>
      <trkpt lat="48.51395" lon="-3.46181">
        <ele>158.75</ele>
        <time>2013-05-30T08:46:21Z</time>
      </trkpt>
      <trkpt lat="48.51395" lon="-3.46179">
        <ele>158.75</ele>
        <time>2013-05-30T08:46:22Z</time>
      </trkpt>
      <trkpt lat="48.51396" lon="-3.46177">
        <ele>158.75</ele>
        <time>2013-05-30T08:46:23Z</time>
      </trkpt>
      <trkpt lat="48.51398" lon="-3.46174">
        <ele>158.27</ele>
        <time>2013-05-30T08:46:24Z</time>
      </trkpt>
      <trkpt lat="48.51401" lon="-3.46165">
        <ele>158.27</ele>
        <time>2013-05-30T08:46:26Z</time>
      </trkpt>
      <trkpt lat="48.51404" lon="-3.46159">
        <ele>158.27</ele>
        <time>2013-05-30T08:46:27Z</time>
      </trkpt>
      <trkpt lat="48.51435" lon="-3.46078">
        <ele>155.87</ele>
        <time>2013-05-30T08:46:37Z</time>
      </trkpt>
      <trkpt lat="48.51472" lon="-3.46011">
        <ele>152.99</ele>
        <time>2013-05-30T08:46:45Z</time>
      </trkpt>
      <trkpt lat="48.51474" lon="-3.46005">
        <ele>152.51</ele>
        <time>2013-05-30T08:46:46Z</time>
      </trkpt>
      <trkpt lat="48.51474" lon="-3.45998">
        <ele>152.03</ele>
        <time>2013-05-30T08:46:47Z</time>
      </trkpt>
      <trkpt lat="48.51473" lon="-3.45993">
        <ele>151.54</ele>
        <time>2013-05-30T08:46:48Z</time>
      </trkpt>
      <trkpt lat="48.51471" lon="-3.45989">
        <ele>152.03</ele>
        <time>2013-05-30T08:46:49Z</time>
      </trkpt>
      <trkpt lat="48.51468" lon="-3.45987">
        <ele>152.51</ele>
        <time>2013-05-30T08:46:50Z</time>
      </trkpt>
      <trkpt lat="48.51465" lon="-3.45986">
        <ele>153.47</ele>
        <time>2013-05-30T08:46:51Z</time>
      </trkpt>
      <trkpt lat="48.51462" lon="-3.45985">
        <ele>154.43</ele>
        <time>2013-05-30T08:46:52Z</time>
      </trkpt>
      <trkpt lat="48.51459" lon="-3.45985">
        <ele>154.43</ele>
        <time>2013-05-30T08:46:53Z</time>
      </trkpt>
      <trkpt lat="48.51408" lon="-3.45971">
        <ele>157.31</ele>
        <time>2013-05-30T08:47:07Z</time>
      </trkpt>
      <trkpt lat="48.51341" lon="-3.45958">
        <ele>159.24</ele>
        <time>2013-05-30T08:47:24Z</time>
      </trkpt>
      <trkpt lat="48.51337" lon="-3.45956">
        <ele>159.72</ele>
        <time>2013-05-30T08:47:25Z</time>
      </trkpt>
      <trkpt lat="48.51333" lon="-3.45953">
        <ele>159.72</ele>
        <time>2013-05-30T08:47:26Z</time>
      </trkpt>
      <trkpt lat="48.5133" lon="-3.4595">
        <ele>160.68</ele>
        <time>2013-05-30T08:47:27Z</time>
      </trkpt>
      <trkpt lat="48.51327" lon="-3.45945">
        <ele>159.72</ele>
        <time>2013-05-30T08:47:28Z</time>
      </trkpt>
      <trkpt lat="48.51325" lon="-3.4594">
        <ele>159.72</ele>
        <time>2013-05-30T08:47:29Z</time>
      </trkpt>
      <trkpt lat="48.51324" lon="-3.45935">
        <ele>159.24</ele>
        <time>2013-05-30T08:47:30Z</time>
      </trkpt>
      <trkpt lat="48.51324" lon="-3.45932">
        <ele>159.24</ele>
        <time>2013-05-30T08:47:31Z</time>
      </trkpt>
      <trkpt lat="48.51324" lon="-3.4593">
        <ele>159.24</ele>
        <time>2013-05-30T08:47:32Z</time>
      </trkpt>
      <trkpt lat="48.51326" lon="-3.4593">
        <ele>159.24</ele>
        <time>2013-05-30T08:47:40Z</time>
      </trkpt>
      <trkpt lat="48.51326" lon="-3.45933">
        <ele>159.24</ele>
        <time>2013-05-30T08:47:42Z</time>
      </trkpt>
      <trkpt lat="48.51344" lon="-3.45951">
        <ele>160.2</ele>
        <time>2013-05-30T08:47:51Z</time>
      </trkpt>
      <trkpt lat="48.51425" lon="-3.45966">
        <ele>158.75</ele>
        <time>2013-05-30T08:48:05Z</time>
      </trkpt>
      <trkpt lat="48.5146" lon="-3.4598">
        <ele>156.35</ele>
        <time>2013-05-30T08:48:10Z</time>
      </trkpt>
      <trkpt lat="48.51485" lon="-3.45987">
        <ele>153.47</ele>
        <time>2013-05-30T08:48:14Z</time>
      </trkpt>
      <trkpt lat="48.51492" lon="-3.45986">
        <ele>152.99</ele>
        <time>2013-05-30T08:48:15Z</time>
      </trkpt>
      <trkpt lat="48.51498" lon="-3.45984">
        <ele>152.99</ele>
        <time>2013-05-30T08:48:16Z</time>
      </trkpt>
      <trkpt lat="48.51511" lon="-3.45982">
        <ele>152.03</ele>
        <time>2013-05-30T08:48:18Z</time>
      </trkpt>
      <trkpt lat="48.51518" lon="-3.45983">
        <ele>152.03</ele>
        <time>2013-05-30T08:48:19Z</time>
      </trkpt>
      <trkpt lat="48.51525" lon="-3.45984">
        <ele>152.03</ele>
        <time>2013-05-30T08:48:20Z</time>
      </trkpt>
      <trkpt lat="48.51546" lon="-3.4599">
        <ele>150.58</ele>
        <time>2013-05-30T08:48:23Z</time>
      </trkpt>
      <trkpt lat="48.5157" lon="-3.45998">
        <ele>148.66</ele>
        <time>2013-05-30T08:48:26Z</time>
      </trkpt>
      <trkpt lat="48.51613" lon="-3.46017">
        <ele>145.78</ele>
        <time>2013-05-30T08:48:31Z</time>
      </trkpt>
      <trkpt lat="48.51623" lon="-3.46022">
        <ele>145.3</ele>
        <time>2013-05-30T08:48:32Z</time>
      </trkpt>
      <trkpt lat="48.51697" lon="-3.46078">
        <ele>143.85</ele>
        <time>2013-05-30T08:48:43Z</time>
      </trkpt>
      <trkpt lat="48.51735" lon="-3.46113">
        <ele>146.74</ele>
        <time>2013-05-30T08:48:55Z</time>
      </trkpt>
      <trkpt lat="48.51748" lon="-3.46128">
        <ele>148.66</ele>
        <time>2013-05-30T08:49:00Z</time>
      </trkpt>
      <trkpt lat="48.5177" lon="-3.46159">
        <ele>152.03</ele>
        <time>2013-05-30T08:49:10Z</time>
      </trkpt>
      <trkpt lat="48.51792" lon="-3.46191">
        <ele>154.91</ele>
        <time>2013-05-30T08:49:20Z</time>
      </trkpt>
      <trkpt lat="48.51804" lon="-3.46208">
        <ele>157.31</ele>
        <time>2013-05-30T08:49:26Z</time>
      </trkpt>
      <trkpt lat="48.51817" lon="-3.46228">
        <ele>160.2</ele>
        <time>2013-05-30T08:49:33Z</time>
      </trkpt>
      <trkpt lat="48.51829" lon="-3.46246">
        <ele>162.6</ele>
        <time>2013-05-30T08:49:39Z</time>
      </trkpt>
      <trkpt lat="48.51842" lon="-3.46276">
        <ele>165.48</ele>
        <time>2013-05-30T08:49:48Z</time>
      </trkpt>
      <trkpt lat="48.51876" lon="-3.46321">
        <ele>166.45</ele>
        <time>2013-05-30T08:50:02Z</time>
      </trkpt>
      <trkpt lat="48.5192" lon="-3.46383">
        <ele>165.96</ele>
        <time>2013-05-30T08:50:15Z</time>
      </trkpt>
      <trkpt lat="48.51933" lon="-3.4641">
        <ele>166.45</ele>
        <time>2013-05-30T08:50:20Z</time>
      </trkpt>
      <trkpt lat="48.51935" lon="-3.46416">
        <ele>166.45</ele>
        <time>2013-05-30T08:50:21Z</time>
      </trkpt>
      <trkpt lat="48.51936" lon="-3.46421">
        <ele>166.93</ele>
        <time>2013-05-30T08:50:22Z</time>
      </trkpt>
      <trkpt lat="48.51951" lon="-3.46508">
        <ele>169.33</ele>
        <time>2013-05-30T08:50:37Z</time>
      </trkpt>
      <trkpt lat="48.51956" lon="-3.46553">
        <ele>172.21</ele>
        <time>2013-05-30T08:50:46Z</time>
      </trkpt>
      <trkpt lat="48.51959" lon="-3.46579">
        <ele>173.66</ele>
        <time>2013-05-30T08:50:51Z</time>
      </trkpt>
      <trkpt lat="48.51961" lon="-3.46605">
        <ele>176.06</ele>
        <time>2013-05-30T08:50:56Z</time>
      </trkpt>
      <trkpt lat="48.51966" lon="-3.46686">
        <ele>178.46</ele>
        <time>2013-05-30T08:51:11Z</time>
      </trkpt>
      <trkpt lat="48.51961" lon="-3.46806">
        <ele>178.94</ele>
        <time>2013-05-30T08:51:30Z</time>
      </trkpt>
      <trkpt lat="48.5196" lon="-3.46812">
        <ele>178.94</ele>
        <time>2013-05-30T08:51:31Z</time>
      </trkpt>
      <trkpt lat="48.51952" lon="-3.46915">
        <ele>181.83</ele>
        <time>2013-05-30T08:51:48Z</time>
      </trkpt>
      <trkpt lat="48.51946" lon="-3.47016">
        <ele>182.79</ele>
        <time>2013-05-30T08:52:03Z</time>
      </trkpt>
      <trkpt lat="48.51944" lon="-3.47096">
        <ele>185.67</ele>
        <time>2013-05-30T08:52:16Z</time>
      </trkpt>
      <trkpt lat="48.51951" lon="-3.47213">
        <ele>185.19</ele>
        <time>2013-05-30T08:52:32Z</time>
      </trkpt>
      <trkpt lat="48.51952" lon="-3.47333">
        <ele>185.19</ele>
        <time>2013-05-30T08:52:48Z</time>
      </trkpt>
      <trkpt lat="48.51951" lon="-3.47339">
        <ele>185.19</ele>
        <time>2013-05-30T08:52:49Z</time>
      </trkpt>
      <trkpt lat="48.51946" lon="-3.47356">
        <ele>185.67</ele>
        <time>2013-05-30T08:52:52Z</time>
      </trkpt>
      <trkpt lat="48.51944" lon="-3.47362">
        <ele>185.67</ele>
        <time>2013-05-30T08:52:53Z</time>
      </trkpt>
      <trkpt lat="48.51938" lon="-3.47373">
        <ele>185.67</ele>
        <time>2013-05-30T08:52:55Z</time>
      </trkpt>
      <trkpt lat="48.51934" lon="-3.47378">
        <ele>185.67</ele>
        <time>2013-05-30T08:52:56Z</time>
      </trkpt>
      <trkpt lat="48.5193" lon="-3.47383">
        <ele>185.67</ele>
        <time>2013-05-30T08:52:57Z</time>
      </trkpt>
      <trkpt lat="48.51926" lon="-3.47387">
        <ele>185.19</ele>
        <time>2013-05-30T08:52:58Z</time>
      </trkpt>
      <trkpt lat="48.51921" lon="-3.47391">
        <ele>185.67</ele>
        <time>2013-05-30T08:52:59Z</time>
      </trkpt>
      <trkpt lat="48.51917" lon="-3.47395">
        <ele>185.19</ele>
        <time>2013-05-30T08:53:00Z</time>
      </trkpt>
      <trkpt lat="48.51912" lon="-3.47399">
        <ele>185.19</ele>
        <time>2013-05-30T08:53:01Z</time>
      </trkpt>
      <trkpt lat="48.51875" lon="-3.47422">
        <ele>183.75</ele>
        <time>2013-05-30T08:53:07Z</time>
      </trkpt>
      <trkpt lat="48.51863" lon="-3.47431">
        <ele>182.79</ele>
        <time>2013-05-30T08:53:09Z</time>
      </trkpt>
      <trkpt lat="48.51803" lon="-3.47506">
        <ele>182.31</ele>
        <time>2013-05-30T08:53:22Z</time>
      </trkpt>
      <trkpt lat="48.51761" lon="-3.47589">
        <ele>185.19</ele>
        <time>2013-05-30T08:53:37Z</time>
      </trkpt>
      <trkpt lat="48.51742" lon="-3.47669">
        <ele>188.08</ele>
        <time>2013-05-30T08:53:51Z</time>
      </trkpt>
      <trkpt lat="48.51732" lon="-3.47773">
        <ele>189.52</ele>
        <time>2013-05-30T08:54:07Z</time>
      </trkpt>
      <trkpt lat="48.51683" lon="-3.4787">
        <ele>189.04</ele>
        <time>2013-05-30T08:54:22Z</time>
      </trkpt>
      <trkpt lat="48.51645" lon="-3.47944">
        <ele>189.52</ele>
        <time>2013-05-30T08:54:35Z</time>
      </trkpt>
      <trkpt lat="48.51632" lon="-3.47964">
        <ele>190.96</ele>
        <time>2013-05-30T08:54:39Z</time>
      </trkpt>
      <trkpt lat="48.51629" lon="-3.47968">
        <ele>190.48</ele>
        <time>2013-05-30T08:54:40Z</time>
      </trkpt>
      <trkpt lat="48.51624" lon="-3.47971">
        <ele>190.48</ele>
        <time>2013-05-30T08:54:41Z</time>
      </trkpt>
      <trkpt lat="48.5162" lon="-3.47974">
        <ele>190</ele>
        <time>2013-05-30T08:54:42Z</time>
      </trkpt>
      <trkpt lat="48.51616" lon="-3.47978">
        <ele>190</ele>
        <time>2013-05-30T08:54:43Z</time>
      </trkpt>
      <trkpt lat="48.51592" lon="-3.48001">
        <ele>190.48</ele>
        <time>2013-05-30T08:54:49Z</time>
      </trkpt>
      <trkpt lat="48.51587" lon="-3.48003">
        <ele>190.48</ele>
        <time>2013-05-30T08:54:50Z</time>
      </trkpt>
      <trkpt lat="48.51511" lon="-3.48035">
        <ele>194.32</ele>
        <time>2013-05-30T08:55:07Z</time>
      </trkpt>
      <trkpt lat="48.51463" lon="-3.48051">
        <ele>196.25</ele>
        <time>2013-05-30T08:55:18Z</time>
      </trkpt>
      <trkpt lat="48.51459" lon="-3.48051">
        <ele>196.25</ele>
        <time>2013-05-30T08:55:19Z</time>
      </trkpt>
      <trkpt lat="48.5145" lon="-3.48049">
        <ele>196.73</ele>
        <time>2013-05-30T08:55:21Z</time>
      </trkpt>
      <trkpt lat="48.51445" lon="-3.48047">
        <ele>196.73</ele>
        <time>2013-05-30T08:55:22Z</time>
      </trkpt>
      <trkpt lat="48.5144" lon="-3.48044">
        <ele>196.25</ele>
        <time>2013-05-30T08:55:23Z</time>
      </trkpt>
      <trkpt lat="48.51434" lon="-3.4804">
        <ele>195.77</ele>
        <time>2013-05-30T08:55:24Z</time>
      </trkpt>
      <trkpt lat="48.51429" lon="-3.48035">
        <ele>195.28</ele>
        <time>2013-05-30T08:55:25Z</time>
      </trkpt>
      <trkpt lat="48.51391" lon="-3.48007">
        <ele>192.4</ele>
        <time>2013-05-30T08:55:30Z</time>
      </trkpt>
      <trkpt lat="48.51372" lon="-3.47991">
        <ele>190.96</ele>
        <time>2013-05-30T08:55:32Z</time>
      </trkpt>
      <trkpt lat="48.51325" lon="-3.47933">
        <ele>189.04</ele>
        <time>2013-05-30T08:55:37Z</time>
      </trkpt>
      <trkpt lat="48.51304" lon="-3.47897">
        <ele>185.67</ele>
        <time>2013-05-30T08:55:40Z</time>
      </trkpt>
      <trkpt lat="48.51299" lon="-3.47885">
        <ele>183.27</ele>
        <time>2013-05-30T08:55:41Z</time>
      </trkpt>
      <trkpt lat="48.51295" lon="-3.47872">
        <ele>182.79</ele>
        <time>2013-05-30T08:55:42Z</time>
      </trkpt>
      <trkpt lat="48.5128" lon="-3.47782">
        <ele>179.42</ele>
        <time>2013-05-30T08:55:48Z</time>
      </trkpt>
      <trkpt lat="48.51276" lon="-3.47768">
        <ele>178.46</ele>
        <time>2013-05-30T08:55:49Z</time>
      </trkpt>
      <trkpt lat="48.51269" lon="-3.47755">
        <ele>177.5</ele>
        <time>2013-05-30T08:55:50Z</time>
      </trkpt>
      <trkpt lat="48.51261" lon="-3.47744">
        <ele>177.5</ele>
        <time>2013-05-30T08:55:51Z</time>
      </trkpt>
      <trkpt lat="48.51253" lon="-3.47734">
        <ele>177.5</ele>
        <time>2013-05-30T08:55:52Z</time>
      </trkpt>
      <trkpt lat="48.51245" lon="-3.47725">
        <ele>177.98</ele>
        <time>2013-05-30T08:55:53Z</time>
      </trkpt>
      <trkpt lat="48.51237" lon="-3.47717">
        <ele>178.46</ele>
        <time>2013-05-30T08:55:54Z</time>
      </trkpt>
      <trkpt lat="48.51196" lon="-3.47662">
        <ele>177.98</ele>
        <time>2013-05-30T08:56:00Z</time>
      </trkpt>
      <trkpt lat="48.51181" lon="-3.47628">
        <ele>178.94</ele>
        <time>2013-05-30T08:56:04Z</time>
      </trkpt>
      <trkpt lat="48.51179" lon="-3.47619">
        <ele>179.42</ele>
        <time>2013-05-30T08:56:05Z</time>
      </trkpt>
      <trkpt lat="48.51176" lon="-3.47579">
        <ele>182.79</ele>
        <time>2013-05-30T08:56:11Z</time>
      </trkpt>
      <trkpt lat="48.5118" lon="-3.47549">
        <ele>184.71</ele>
        <time>2013-05-30T08:56:16Z</time>
      </trkpt>
      <trkpt lat="48.51186" lon="-3.47492">
        <ele>187.59</ele>
        <time>2013-05-30T08:56:25Z</time>
      </trkpt>
      <trkpt lat="48.51171" lon="-3.47447">
        <ele>191.44</ele>
        <time>2013-05-30T08:56:34Z</time>
      </trkpt>
      <trkpt lat="48.51123" lon="-3.47374">
        <ele>194.32</ele>
        <time>2013-05-30T08:56:51Z</time>
      </trkpt>
      <trkpt lat="48.5111" lon="-3.47347">
        <ele>195.28</ele>
        <time>2013-05-30T08:56:56Z</time>
      </trkpt>
      <trkpt lat="48.51109" lon="-3.4734">
        <ele>194.8</ele>
        <time>2013-05-30T08:56:57Z</time>
      </trkpt>
      <trkpt lat="48.51108" lon="-3.47334">
        <ele>193.36</ele>
        <time>2013-05-30T08:56:58Z</time>
      </trkpt>
      <trkpt lat="48.51096" lon="-3.47304">
        <ele>196.73</ele>
        <time>2013-05-30T08:57:04Z</time>
      </trkpt>
      <trkpt lat="48.51073" lon="-3.47274">
        <ele>197.69</ele>
        <time>2013-05-30T08:57:12Z</time>
      </trkpt>
      <trkpt lat="48.51042" lon="-3.47239">
        <ele>201.53</ele>
        <time>2013-05-30T08:57:22Z</time>
      </trkpt>
      <trkpt lat="48.51039" lon="-3.47235">
        <ele>201.05</ele>
        <time>2013-05-30T08:57:23Z</time>
      </trkpt>
      <trkpt lat="48.50994" lon="-3.47181">
        <ele>204.42</ele>
        <time>2013-05-30T08:57:37Z</time>
      </trkpt>
      <trkpt lat="48.50974" lon="-3.47157">
        <ele>204.9</ele>
        <time>2013-05-30T08:57:43Z</time>
      </trkpt>
      <trkpt lat="48.50942" lon="-3.47125">
        <ele>206.34</ele>
        <time>2013-05-30T08:57:52Z</time>
      </trkpt>
      <trkpt lat="48.50938" lon="-3.47121">
        <ele>206.34</ele>
        <time>2013-05-30T08:57:53Z</time>
      </trkpt>
      <trkpt lat="48.50934" lon="-3.47117">
        <ele>206.82</ele>
        <time>2013-05-30T08:57:54Z</time>
      </trkpt>
      <trkpt lat="48.5093" lon="-3.47114">
        <ele>206.82</ele>
        <time>2013-05-30T08:57:55Z</time>
      </trkpt>
      <trkpt lat="48.50927" lon="-3.47111">
        <ele>206.82</ele>
        <time>2013-05-30T08:57:56Z</time>
      </trkpt>
      <trkpt lat="48.50899" lon="-3.47077">
        <ele>207.3</ele>
        <time>2013-05-30T08:58:04Z</time>
      </trkpt>
      <trkpt lat="48.5087" lon="-3.47043">
        <ele>206.82</ele>
        <time>2013-05-30T08:58:11Z</time>
      </trkpt>
      <trkpt lat="48.50866" lon="-3.47038">
        <ele>206.82</ele>
        <time>2013-05-30T08:58:12Z</time>
      </trkpt>
      <trkpt lat="48.50825" lon="-3.46992">
        <ele>205.38</ele>
        <time>2013-05-30T08:58:20Z</time>
      </trkpt>
      <trkpt lat="48.50801" lon="-3.46945">
        <ele>203.94</ele>
        <time>2013-05-30T08:58:25Z</time>
      </trkpt>
      <trkpt lat="48.50799" lon="-3.46931">
        <ele>203.46</ele>
        <time>2013-05-30T08:58:26Z</time>
      </trkpt>
      <trkpt lat="48.50797" lon="-3.46917">
        <ele>202.98</ele>
        <time>2013-05-30T08:58:27Z</time>
      </trkpt>
      <trkpt lat="48.50783" lon="-3.4681">
        <ele>199.13</ele>
        <time>2013-05-30T08:58:34Z</time>
      </trkpt>
      <trkpt lat="48.50779" lon="-3.46797">
        <ele>199.13</ele>
        <time>2013-05-30T08:58:35Z</time>
      </trkpt>
      <trkpt lat="48.50773" lon="-3.46783">
        <ele>197.69</ele>
        <time>2013-05-30T08:58:36Z</time>
      </trkpt>
      <trkpt lat="48.50767" lon="-3.46771">
        <ele>196.73</ele>
        <time>2013-05-30T08:58:37Z</time>
      </trkpt>
      <trkpt lat="48.5076" lon="-3.4676">
        <ele>196.25</ele>
        <time>2013-05-30T08:58:38Z</time>
      </trkpt>
      <trkpt lat="48.50751" lon="-3.46749">
        <ele>194.8</ele>
        <time>2013-05-30T08:58:39Z</time>
      </trkpt>
      <trkpt lat="48.50742" lon="-3.4674">
        <ele>193.84</ele>
        <time>2013-05-30T08:58:40Z</time>
      </trkpt>
      <trkpt lat="48.50733" lon="-3.46732">
        <ele>192.88</ele>
        <time>2013-05-30T08:58:41Z</time>
      </trkpt>
      <trkpt lat="48.50723" lon="-3.46725">
        <ele>192.4</ele>
        <time>2013-05-30T08:58:42Z</time>
      </trkpt>
      <trkpt lat="48.50692" lon="-3.46702">
        <ele>190.48</ele>
        <time>2013-05-30T08:58:45Z</time>
      </trkpt>
      <trkpt lat="48.50657" lon="-3.46663">
        <ele>187.11</ele>
        <time>2013-05-30T08:58:49Z</time>
      </trkpt>
      <trkpt lat="48.50639" lon="-3.46643">
        <ele>186.15</ele>
        <time>2013-05-30T08:58:51Z</time>
      </trkpt>
      <trkpt lat="48.50597" lon="-3.46599">
        <ele>182.31</ele>
        <time>2013-05-30T08:58:56Z</time>
      </trkpt>
      <trkpt lat="48.50574" lon="-3.46576">
        <ele>179.9</ele>
        <time>2013-05-30T08:58:59Z</time>
      </trkpt>
      <trkpt lat="48.50566" lon="-3.46572">
        <ele>179.42</ele>
        <time>2013-05-30T08:59:00Z</time>
      </trkpt>
      <trkpt lat="48.50558" lon="-3.4657">
        <ele>178.94</ele>
        <time>2013-05-30T08:59:01Z</time>
      </trkpt>
      <trkpt lat="48.50548" lon="-3.46571">
        <ele>177.02</ele>
        <time>2013-05-30T08:59:02Z</time>
      </trkpt>
      <trkpt lat="48.50538" lon="-3.46574">
        <ele>176.54</ele>
        <time>2013-05-30T08:59:03Z</time>
      </trkpt>
      <trkpt lat="48.50528" lon="-3.46577">
        <ele>175.1</ele>
        <time>2013-05-30T08:59:04Z</time>
      </trkpt>
      <trkpt lat="48.50507" lon="-3.46585">
        <ele>172.21</ele>
        <time>2013-05-30T08:59:06Z</time>
      </trkpt>
      <trkpt lat="48.50485" lon="-3.4659">
        <ele>169.81</ele>
        <time>2013-05-30T08:59:08Z</time>
      </trkpt>
      <trkpt lat="48.50472" lon="-3.46591">
        <ele>168.85</ele>
        <time>2013-05-30T08:59:09Z</time>
      </trkpt>
      <trkpt lat="48.50433" lon="-3.46588">
        <ele>165.48</ele>
        <time>2013-05-30T08:59:12Z</time>
      </trkpt>
      <trkpt lat="48.50392" lon="-3.46588">
        <ele>161.16</ele>
        <time>2013-05-30T08:59:15Z</time>
      </trkpt>
      <trkpt lat="48.5035" lon="-3.46587">
        <ele>157.79</ele>
        <time>2013-05-30T08:59:18Z</time>
      </trkpt>
      <trkpt lat="48.50324" lon="-3.46582">
        <ele>154.43</ele>
        <time>2013-05-30T08:59:20Z</time>
      </trkpt>
      <trkpt lat="48.50287" lon="-3.46575">
        <ele>152.51</ele>
        <time>2013-05-30T08:59:23Z</time>
      </trkpt>
      <trkpt lat="48.50275" lon="-3.46572">
        <ele>152.03</ele>
        <time>2013-05-30T08:59:24Z</time>
      </trkpt>
      <trkpt lat="48.50264" lon="-3.46566">
        <ele>151.54</ele>
        <time>2013-05-30T08:59:25Z</time>
      </trkpt>
      <trkpt lat="48.50255" lon="-3.46559">
        <ele>151.06</ele>
        <time>2013-05-30T08:59:26Z</time>
      </trkpt>
      <trkpt lat="48.50246" lon="-3.46551">
        <ele>150.58</ele>
        <time>2013-05-30T08:59:27Z</time>
      </trkpt>
      <trkpt lat="48.50239" lon="-3.46542">
        <ele>151.06</ele>
        <time>2013-05-30T08:59:28Z</time>
      </trkpt>
      <trkpt lat="48.50234" lon="-3.46533">
        <ele>151.06</ele>
        <time>2013-05-30T08:59:29Z</time>
      </trkpt>
      <trkpt lat="48.5023" lon="-3.46523">
        <ele>150.58</ele>
        <time>2013-05-30T08:59:30Z</time>
      </trkpt>
      <trkpt lat="48.50227" lon="-3.46514">
        <ele>151.06</ele>
        <time>2013-05-30T08:59:31Z</time>
      </trkpt>
      <trkpt lat="48.50226" lon="-3.46506">
        <ele>151.06</ele>
        <time>2013-05-30T08:59:32Z</time>
      </trkpt>
      <trkpt lat="48.50226" lon="-3.46497">
        <ele>151.54</ele>
        <time>2013-05-30T08:59:33Z</time>
      </trkpt>
      <trkpt lat="48.50226" lon="-3.46489">
        <ele>151.54</ele>
        <time>2013-05-30T08:59:34Z</time>
      </trkpt>
      <trkpt lat="48.50227" lon="-3.4648">
        <ele>152.03</ele>
        <time>2013-05-30T08:59:35Z</time>
      </trkpt>
      <trkpt lat="48.50229" lon="-3.46472">
        <ele>152.03</ele>
        <time>2013-05-30T08:59:36Z</time>
      </trkpt>
      <trkpt lat="48.50231" lon="-3.46464">
        <ele>152.03</ele>
        <time>2013-05-30T08:59:37Z</time>
      </trkpt>
      <trkpt lat="48.50279" lon="-3.46379">
        <ele>152.99</ele>
        <time>2013-05-30T08:59:49Z</time>
      </trkpt>
      <trkpt lat="48.50323" lon="-3.46322">
        <ele>154.43</ele>
        <time>2013-05-30T08:59:59Z</time>
      </trkpt>
      <trkpt lat="48.50326" lon="-3.46316">
        <ele>154.91</ele>
        <time>2013-05-30T09:00:00Z</time>
      </trkpt>
      <trkpt lat="48.50335" lon="-3.46291">
        <ele>155.87</ele>
        <time>2013-05-30T09:00:04Z</time>
      </trkpt>
      <trkpt lat="48.50336" lon="-3.46284">
        <ele>155.87</ele>
        <time>2013-05-30T09:00:05Z</time>
      </trkpt>
      <trkpt lat="48.50337" lon="-3.46277">
        <ele>156.35</ele>
        <time>2013-05-30T09:00:06Z</time>
      </trkpt>
      <trkpt lat="48.50338" lon="-3.4627">
        <ele>156.35</ele>
        <time>2013-05-30T09:00:07Z</time>
      </trkpt>
      <trkpt lat="48.50338" lon="-3.46263">
        <ele>156.83</ele>
        <time>2013-05-30T09:00:08Z</time>
      </trkpt>
      <trkpt lat="48.50338" lon="-3.46256">
        <ele>156.83</ele>
        <time>2013-05-30T09:00:09Z</time>
      </trkpt>
      <trkpt lat="48.50337" lon="-3.46249">
        <ele>156.83</ele>
        <time>2013-05-30T09:00:10Z</time>
      </trkpt>
      <trkpt lat="48.50336" lon="-3.46242">
        <ele>157.31</ele>
        <time>2013-05-30T09:00:11Z</time>
      </trkpt>
      <trkpt lat="48.50334" lon="-3.46235">
        <ele>156.83</ele>
        <time>2013-05-30T09:00:12Z</time>
      </trkpt>
      <trkpt lat="48.50331" lon="-3.46228">
        <ele>157.31</ele>
        <time>2013-05-30T09:00:13Z</time>
      </trkpt>
      <trkpt lat="48.50328" lon="-3.46222">
        <ele>156.83</ele>
        <time>2013-05-30T09:00:14Z</time>
      </trkpt>
      <trkpt lat="48.50325" lon="-3.46216">
        <ele>157.31</ele>
        <time>2013-05-30T09:00:15Z</time>
      </trkpt>
      <trkpt lat="48.50321" lon="-3.4621">
        <ele>157.31</ele>
        <time>2013-05-30T09:00:16Z</time>
      </trkpt>
      <trkpt lat="48.50317" lon="-3.46204">
        <ele>157.31</ele>
        <time>2013-05-30T09:00:17Z</time>
      </trkpt>
      <trkpt lat="48.50313" lon="-3.462">
        <ele>157.79</ele>
        <time>2013-05-30T09:00:18Z</time>
      </trkpt>
      <trkpt lat="48.50245" lon="-3.46114">
        <ele>159.24</ele>
        <time>2013-05-30T09:00:35Z</time>
      </trkpt>
      <trkpt lat="48.50203" lon="-3.46064">
        <ele>158.75</ele>
        <time>2013-05-30T09:00:45Z</time>
      </trkpt>
      <trkpt lat="48.502" lon="-3.46057">
        <ele>158.75</ele>
        <time>2013-05-30T09:00:46Z</time>
      </trkpt>
      <trkpt lat="48.50197" lon="-3.4605">
        <ele>158.75</ele>
        <time>2013-05-30T09:00:47Z</time>
      </trkpt>
      <trkpt lat="48.50194" lon="-3.46043">
        <ele>158.75</ele>
        <time>2013-05-30T09:00:48Z</time>
      </trkpt>
      <trkpt lat="48.50192" lon="-3.46035">
        <ele>159.24</ele>
        <time>2013-05-30T09:00:49Z</time>
      </trkpt>
      <trkpt lat="48.50191" lon="-3.46027">
        <ele>159.24</ele>
        <time>2013-05-30T09:00:50Z</time>
      </trkpt>
      <trkpt lat="48.50189" lon="-3.46018">
        <ele>159.24</ele>
        <time>2013-05-30T09:00:51Z</time>
      </trkpt>
      <trkpt lat="48.50189" lon="-3.4601">
        <ele>159.24</ele>
        <time>2013-05-30T09:00:52Z</time>
      </trkpt>
      <trkpt lat="48.50187" lon="-3.45993">
        <ele>159.72</ele>
        <time>2013-05-30T09:00:54Z</time>
      </trkpt>
      <trkpt lat="48.5018" lon="-3.45902">
        <ele>162.6</ele>
        <time>2013-05-30T09:01:08Z</time>
      </trkpt>
      <trkpt lat="48.50175" lon="-3.45841">
        <ele>165.48</ele>
        <time>2013-05-30T09:01:18Z</time>
      </trkpt>
      <trkpt lat="48.50179" lon="-3.45788">
        <ele>168.85</ele>
        <time>2013-05-30T09:01:27Z</time>
      </trkpt>
      <trkpt lat="48.5019" lon="-3.45745">
        <ele>171.73</ele>
        <time>2013-05-30T09:01:35Z</time>
      </trkpt>
      <trkpt lat="48.50205" lon="-3.4569">
        <ele>175.1</ele>
        <time>2013-05-30T09:01:45Z</time>
      </trkpt>
      <trkpt lat="48.50226" lon="-3.45612">
        <ele>177.98</ele>
        <time>2013-05-30T09:01:59Z</time>
      </trkpt>
      <trkpt lat="48.50242" lon="-3.45541">
        <ele>179.9</ele>
        <time>2013-05-30T09:02:13Z</time>
      </trkpt>
      <trkpt lat="48.50246" lon="-3.45443">
        <ele>182.31</ele>
        <time>2013-05-30T09:02:30Z</time>
      </trkpt>
      <trkpt lat="48.50243" lon="-3.45371">
        <ele>184.23</ele>
        <time>2013-05-30T09:02:42Z</time>
      </trkpt>
      <trkpt lat="48.50248" lon="-3.45299">
        <ele>187.11</ele>
        <time>2013-05-30T09:02:54Z</time>
      </trkpt>
      <trkpt lat="48.50249" lon="-3.45223">
        <ele>190.96</ele>
        <time>2013-05-30T09:03:06Z</time>
      </trkpt>
      <trkpt lat="48.50245" lon="-3.4518">
        <ele>191.44</ele>
        <time>2013-05-30T09:03:12Z</time>
      </trkpt>
      <trkpt lat="48.50245" lon="-3.45172">
        <ele>191.44</ele>
        <time>2013-05-30T09:03:13Z</time>
      </trkpt>
      <trkpt lat="48.50261" lon="-3.45037">
        <ele>190</ele>
        <time>2013-05-30T09:03:28Z</time>
      </trkpt>
      <trkpt lat="48.50263" lon="-3.44908">
        <ele>187.59</ele>
        <time>2013-05-30T09:03:40Z</time>
      </trkpt>
      <trkpt lat="48.50256" lon="-3.44779">
        <ele>187.11</ele>
        <time>2013-05-30T09:03:53Z</time>
      </trkpt>
      <trkpt lat="48.50252" lon="-3.44647">
        <ele>183.75</ele>
        <time>2013-05-30T09:04:06Z</time>
      </trkpt>
      <trkpt lat="48.50254" lon="-3.44592">
        <ele>181.83</ele>
        <time>2013-05-30T09:04:10Z</time>
      </trkpt>
      <trkpt lat="48.50252" lon="-3.44577">
        <ele>180.87</ele>
        <time>2013-05-30T09:04:11Z</time>
      </trkpt>
      <trkpt lat="48.5025" lon="-3.44562">
        <ele>180.38</ele>
        <time>2013-05-30T09:04:12Z</time>
      </trkpt>
      <trkpt lat="48.50246" lon="-3.44547">
        <ele>179.9</ele>
        <time>2013-05-30T09:04:13Z</time>
      </trkpt>
      <trkpt lat="48.50242" lon="-3.44532">
        <ele>178.94</ele>
        <time>2013-05-30T09:04:14Z</time>
      </trkpt>
      <trkpt lat="48.50235" lon="-3.44502">
        <ele>177.98</ele>
        <time>2013-05-30T09:04:16Z</time>
      </trkpt>
      <trkpt lat="48.50233" lon="-3.44486">
        <ele>177.02</ele>
        <time>2013-05-30T09:04:17Z</time>
      </trkpt>
      <trkpt lat="48.50232" lon="-3.4447">
        <ele>176.06</ele>
        <time>2013-05-30T09:04:18Z</time>
      </trkpt>
      <trkpt lat="48.50233" lon="-3.44454">
        <ele>175.1</ele>
        <time>2013-05-30T09:04:19Z</time>
      </trkpt>
      <trkpt lat="48.50235" lon="-3.44438">
        <ele>174.62</ele>
        <time>2013-05-30T09:04:20Z</time>
      </trkpt>
      <trkpt lat="48.50237" lon="-3.44421">
        <ele>173.66</ele>
        <time>2013-05-30T09:04:21Z</time>
      </trkpt>
      <trkpt lat="48.5024" lon="-3.44406">
        <ele>173.66</ele>
        <time>2013-05-30T09:04:22Z</time>
      </trkpt>
      <trkpt lat="48.50252" lon="-3.44345">
        <ele>172.69</ele>
        <time>2013-05-30T09:04:26Z</time>
      </trkpt>
      <trkpt lat="48.50257" lon="-3.44331">
        <ele>172.21</ele>
        <time>2013-05-30T09:04:27Z</time>
      </trkpt>
      <trkpt lat="48.50262" lon="-3.44318">
        <ele>171.73</ele>
        <time>2013-05-30T09:04:28Z</time>
      </trkpt>
      <trkpt lat="48.50278" lon="-3.44278">
        <ele>171.25</ele>
        <time>2013-05-30T09:04:31Z</time>
      </trkpt>
      <trkpt lat="48.50281" lon="-3.44264">
        <ele>170.29</ele>
        <time>2013-05-30T09:04:32Z</time>
      </trkpt>
      <trkpt lat="48.50281" lon="-3.44234">
        <ele>169.81</ele>
        <time>2013-05-30T09:04:34Z</time>
      </trkpt>
      <trkpt lat="48.50279" lon="-3.44219">
        <ele>169.33</ele>
        <time>2013-05-30T09:04:35Z</time>
      </trkpt>
      <trkpt lat="48.50275" lon="-3.44205">
        <ele>169.33</ele>
        <time>2013-05-30T09:04:36Z</time>
      </trkpt>
      <trkpt lat="48.50261" lon="-3.44163">
        <ele>165.48</ele>
        <time>2013-05-30T09:04:39Z</time>
      </trkpt>
      <trkpt lat="48.50248" lon="-3.44118">
        <ele>163.56</ele>
        <time>2013-05-30T09:04:42Z</time>
      </trkpt>
      <trkpt lat="48.50244" lon="-3.44087">
        <ele>163.08</ele>
        <time>2013-05-30T09:04:44Z</time>
      </trkpt>
      <trkpt lat="48.50243" lon="-3.44072">
        <ele>162.6</ele>
        <time>2013-05-30T09:04:45Z</time>
      </trkpt>
      <trkpt lat="48.50243" lon="-3.44057">
        <ele>162.6</ele>
        <time>2013-05-30T09:04:46Z</time>
      </trkpt>
      <trkpt lat="48.50243" lon="-3.44017">
        <ele>160.68</ele>
        <time>2013-05-30T09:04:49Z</time>
      </trkpt>
      <trkpt lat="48.50243" lon="-3.44004">
        <ele>161.16</ele>
        <time>2013-05-30T09:04:50Z</time>
      </trkpt>
      <trkpt lat="48.5022" lon="-3.43872">
        <ele>160.68</ele>
        <time>2013-05-30T09:05:02Z</time>
      </trkpt>
      <trkpt lat="48.50201" lon="-3.438">
        <ele>163.08</ele>
        <time>2013-05-30T09:05:11Z</time>
      </trkpt>
      <trkpt lat="48.50175" lon="-3.43763">
        <ele>166.45</ele>
        <time>2013-05-30T09:05:21Z</time>
      </trkpt>
      <trkpt lat="48.50161" lon="-3.43751">
        <ele>168.37</ele>
        <time>2013-05-30T09:05:26Z</time>
      </trkpt>
      <trkpt lat="48.50143" lon="-3.43732">
        <ele>171.73</ele>
        <time>2013-05-30T09:05:33Z</time>
      </trkpt>
      <trkpt lat="48.50124" lon="-3.4371">
        <ele>175.1</ele>
        <time>2013-05-30T09:05:42Z</time>
      </trkpt>
      <trkpt lat="48.50106" lon="-3.43692">
        <ele>178.46</ele>
        <time>2013-05-30T09:05:50Z</time>
      </trkpt>
      <trkpt lat="48.50097" lon="-3.43663">
        <ele>181.83</ele>
        <time>2013-05-30T09:05:57Z</time>
      </trkpt>
      <trkpt lat="48.50096" lon="-3.43659">
        <ele>182.31</ele>
        <time>2013-05-30T09:05:58Z</time>
      </trkpt>
      <trkpt lat="48.50088" lon="-3.43619">
        <ele>185.67</ele>
        <time>2013-05-30T09:06:07Z</time>
      </trkpt>
      <trkpt lat="48.50085" lon="-3.43604">
        <ele>187.11</ele>
        <time>2013-05-30T09:06:11Z</time>
      </trkpt>
      <trkpt lat="48.50085" lon="-3.436">
        <ele>187.11</ele>
        <time>2013-05-30T09:06:12Z</time>
      </trkpt>
      <trkpt lat="48.50078" lon="-3.43559">
        <ele>190.48</ele>
        <time>2013-05-30T09:06:23Z</time>
      </trkpt>
      <trkpt lat="48.5007" lon="-3.43507">
        <ele>193.36</ele>
        <time>2013-05-30T09:06:36Z</time>
      </trkpt>
      <trkpt lat="48.50057" lon="-3.43436">
        <ele>193.36</ele>
        <time>2013-05-30T09:06:49Z</time>
      </trkpt>
      <trkpt lat="48.50039" lon="-3.43314">
        <ele>193.36</ele>
        <time>2013-05-30T09:07:06Z</time>
      </trkpt>
      <trkpt lat="48.50022" lon="-3.432">
        <ele>193.84</ele>
        <time>2013-05-30T09:07:21Z</time>
      </trkpt>
      <trkpt lat="48.50004" lon="-3.43113">
        <ele>193.84</ele>
        <time>2013-05-30T09:07:33Z</time>
      </trkpt>
      <trkpt lat="48.50002" lon="-3.43105">
        <ele>193.84</ele>
        <time>2013-05-30T09:07:34Z</time>
      </trkpt>
      <trkpt lat="48.49999" lon="-3.4309">
        <ele>194.32</ele>
        <time>2013-05-30T09:07:36Z</time>
      </trkpt>
      <trkpt lat="48.49997" lon="-3.43083">
        <ele>194.8</ele>
        <time>2013-05-30T09:07:37Z</time>
      </trkpt>
      <trkpt lat="48.49992" lon="-3.4307">
        <ele>194.8</ele>
        <time>2013-05-30T09:07:39Z</time>
      </trkpt>
      <trkpt lat="48.49989" lon="-3.43064">
        <ele>194.8</ele>
        <time>2013-05-30T09:07:40Z</time>
      </trkpt>
      <trkpt lat="48.49986" lon="-3.43058">
        <ele>195.28</ele>
        <time>2013-05-30T09:07:41Z</time>
      </trkpt>
      <trkpt lat="48.49925" lon="-3.42984">
        <ele>198.65</ele>
        <time>2013-05-30T09:07:58Z</time>
      </trkpt>
      <trkpt lat="48.49889" lon="-3.42944">
        <ele>201.05</ele>
        <time>2013-05-30T09:08:09Z</time>
      </trkpt>
      <trkpt lat="48.49886" lon="-3.4294">
        <ele>201.05</ele>
        <time>2013-05-30T09:08:10Z</time>
      </trkpt>
      <trkpt lat="48.49883" lon="-3.42936">
        <ele>201.05</ele>
        <time>2013-05-30T09:08:11Z</time>
      </trkpt>
      <trkpt lat="48.49856" lon="-3.42867">
        <ele>203.46</ele>
        <time>2013-05-30T09:08:25Z</time>
      </trkpt>
      <trkpt lat="48.4984" lon="-3.42801">
        <ele>206.34</ele>
        <time>2013-05-30T09:08:36Z</time>
      </trkpt>
      <trkpt lat="48.49839" lon="-3.42794">
        <ele>205.38</ele>
        <time>2013-05-30T09:08:37Z</time>
      </trkpt>
      <trkpt lat="48.49818" lon="-3.42683">
        <ele>208.74</ele>
        <time>2013-05-30T09:08:55Z</time>
      </trkpt>
      <trkpt lat="48.49804" lon="-3.42598">
        <ele>211.63</ele>
        <time>2013-05-30T09:09:10Z</time>
      </trkpt>
      <trkpt lat="48.4978" lon="-3.42491">
        <ele>214.03</ele>
        <time>2013-05-30T09:09:27Z</time>
      </trkpt>
      <trkpt lat="48.4976" lon="-3.42412">
        <ele>214.51</ele>
        <time>2013-05-30T09:09:38Z</time>
      </trkpt>
      <trkpt lat="48.49757" lon="-3.42405">
        <ele>214.51</ele>
        <time>2013-05-30T09:09:39Z</time>
      </trkpt>
      <trkpt lat="48.49722" lon="-3.42348">
        <ele>212.59</ele>
        <time>2013-05-30T09:09:47Z</time>
      </trkpt>
      <trkpt lat="48.49716" lon="-3.42342">
        <ele>212.11</ele>
        <time>2013-05-30T09:09:48Z</time>
      </trkpt>
      <trkpt lat="48.49709" lon="-3.42337">
        <ele>211.63</ele>
        <time>2013-05-30T09:09:49Z</time>
      </trkpt>
      <trkpt lat="48.49701" lon="-3.42332">
        <ele>211.63</ele>
        <time>2013-05-30T09:09:50Z</time>
      </trkpt>
      <trkpt lat="48.49694" lon="-3.42327">
        <ele>210.67</ele>
        <time>2013-05-30T09:09:51Z</time>
      </trkpt>
      <trkpt lat="48.49631" lon="-3.42283">
        <ele>207.3</ele>
        <time>2013-05-30T09:09:58Z</time>
      </trkpt>
      <trkpt lat="48.49587" lon="-3.42233">
        <ele>202.49</ele>
        <time>2013-05-30T09:10:03Z</time>
      </trkpt>
      <trkpt lat="48.49554" lon="-3.42196">
        <ele>199.13</ele>
        <time>2013-05-30T09:10:07Z</time>
      </trkpt>
      <trkpt lat="48.49545" lon="-3.42191">
        <ele>199.13</ele>
        <time>2013-05-30T09:10:08Z</time>
      </trkpt>
      <trkpt lat="48.49536" lon="-3.42186">
        <ele>198.17</ele>
        <time>2013-05-30T09:10:09Z</time>
      </trkpt>
      <trkpt lat="48.49475" lon="-3.42168">
        <ele>194.8</ele>
        <time>2013-05-30T09:10:15Z</time>
      </trkpt>
      <trkpt lat="48.49392" lon="-3.42156">
        <ele>190.96</ele>
        <time>2013-05-30T09:10:23Z</time>
      </trkpt>
      <trkpt lat="48.49362" lon="-3.42155">
        <ele>189.04</ele>
        <time>2013-05-30T09:10:26Z</time>
      </trkpt>
      <trkpt lat="48.49313" lon="-3.42156">
        <ele>188.08</ele>
        <time>2013-05-30T09:10:31Z</time>
      </trkpt>
      <trkpt lat="48.49304" lon="-3.42152">
        <ele>187.11</ele>
        <time>2013-05-30T09:10:32Z</time>
      </trkpt>
      <trkpt lat="48.49295" lon="-3.42146">
        <ele>187.11</ele>
        <time>2013-05-30T09:10:33Z</time>
      </trkpt>
      <trkpt lat="48.49286" lon="-3.42138">
        <ele>185.67</ele>
        <time>2013-05-30T09:10:34Z</time>
      </trkpt>
      <trkpt lat="48.49278" lon="-3.42128">
        <ele>185.67</ele>
        <time>2013-05-30T09:10:35Z</time>
      </trkpt>
      <trkpt lat="48.49271" lon="-3.42118">
        <ele>185.19</ele>
        <time>2013-05-30T09:10:36Z</time>
      </trkpt>
      <trkpt lat="48.49264" lon="-3.42106">
        <ele>184.71</ele>
        <time>2013-05-30T09:10:37Z</time>
      </trkpt>
      <trkpt lat="48.49258" lon="-3.42093">
        <ele>183.75</ele>
        <time>2013-05-30T09:10:38Z</time>
      </trkpt>
      <trkpt lat="48.49252" lon="-3.42079">
        <ele>182.79</ele>
        <time>2013-05-30T09:10:39Z</time>
      </trkpt>
      <trkpt lat="48.49246" lon="-3.42065">
        <ele>182.79</ele>
        <time>2013-05-30T09:10:40Z</time>
      </trkpt>
      <trkpt lat="48.49216" lon="-3.41969">
        <ele>179.42</ele>
        <time>2013-05-30T09:10:47Z</time>
      </trkpt>
      <trkpt lat="48.49209" lon="-3.41943">
        <ele>177.98</ele>
        <time>2013-05-30T09:10:49Z</time>
      </trkpt>
      <trkpt lat="48.49178" lon="-3.41844">
        <ele>177.02</ele>
        <time>2013-05-30T09:10:58Z</time>
      </trkpt>
      <trkpt lat="48.49155" lon="-3.41815">
        <ele>179.42</ele>
        <time>2013-05-30T09:11:03Z</time>
      </trkpt>
      <trkpt lat="48.49141" lon="-3.41799">
        <ele>180.87</ele>
        <time>2013-05-30T09:11:07Z</time>
      </trkpt>
      <trkpt lat="48.49128" lon="-3.41784">
        <ele>181.83</ele>
        <time>2013-05-30T09:11:11Z</time>
      </trkpt>
      <trkpt lat="48.49087" lon="-3.41746">
        <ele>185.19</ele>
        <time>2013-05-30T09:11:23Z</time>
      </trkpt>
      <trkpt lat="48.49046" lon="-3.41695">
        <ele>188.56</ele>
        <time>2013-05-30T09:11:36Z</time>
      </trkpt>
      <trkpt lat="48.49011" lon="-3.41647">
        <ele>191.44</ele>
        <time>2013-05-30T09:11:49Z</time>
      </trkpt>
      <trkpt lat="48.48984" lon="-3.41614">
        <ele>194.8</ele>
        <time>2013-05-30T09:11:59Z</time>
      </trkpt>
      <trkpt lat="48.48952" lon="-3.41576">
        <ele>197.69</ele>
        <time>2013-05-30T09:12:12Z</time>
      </trkpt>
      <trkpt lat="48.48928" lon="-3.41549">
        <ele>200.57</ele>
        <time>2013-05-30T09:12:22Z</time>
      </trkpt>
      <trkpt lat="48.48907" lon="-3.41509">
        <ele>203.94</ele>
        <time>2013-05-30T09:12:32Z</time>
      </trkpt>
      <trkpt lat="48.48887" lon="-3.41472">
        <ele>207.3</ele>
        <time>2013-05-30T09:12:42Z</time>
      </trkpt>
      <trkpt lat="48.48875" lon="-3.41404">
        <ele>210.19</ele>
        <time>2013-05-30T09:12:55Z</time>
      </trkpt>
      <trkpt lat="48.48874" lon="-3.41327">
        <ele>213.55</ele>
        <time>2013-05-30T09:13:09Z</time>
      </trkpt>
      <trkpt lat="48.48874" lon="-3.41258">
        <ele>216.91</ele>
        <time>2013-05-30T09:13:22Z</time>
      </trkpt>
      <trkpt lat="48.48874" lon="-3.41206">
        <ele>219.8</ele>
        <time>2013-05-30T09:13:32Z</time>
      </trkpt>
      <trkpt lat="48.48872" lon="-3.41138">
        <ele>223.16</ele>
        <time>2013-05-30T09:13:45Z</time>
      </trkpt>
      <trkpt lat="48.48871" lon="-3.41071">
        <ele>227.01</ele>
        <time>2013-05-30T09:13:58Z</time>
      </trkpt>
      <trkpt lat="48.48876" lon="-3.40999">
        <ele>229.89</ele>
        <time>2013-05-30T09:14:12Z</time>
      </trkpt>
      <trkpt lat="48.48898" lon="-3.40926">
        <ele>231.81</ele>
        <time>2013-05-30T09:14:26Z</time>
      </trkpt>
      <trkpt lat="48.48899" lon="-3.40911">
        <ele>231.81</ele>
        <time>2013-05-30T09:14:28Z</time>
      </trkpt>
      <trkpt lat="48.489" lon="-3.40896">
        <ele>231.81</ele>
        <time>2013-05-30T09:14:30Z</time>
      </trkpt>
      <trkpt lat="48.48902" lon="-3.40863">
        <ele>230.85</ele>
        <time>2013-05-30T09:14:34Z</time>
      </trkpt>
      <trkpt lat="48.48902" lon="-3.40854">
        <ele>230.85</ele>
        <time>2013-05-30T09:14:35Z</time>
      </trkpt>
      <trkpt lat="48.48902" lon="-3.40844">
        <ele>230.85</ele>
        <time>2013-05-30T09:14:36Z</time>
      </trkpt>
      <trkpt lat="48.48895" lon="-3.40731">
        <ele>227.49</ele>
        <time>2013-05-30T09:14:46Z</time>
      </trkpt>
      <trkpt lat="48.48892" lon="-3.4072">
        <ele>227.01</ele>
        <time>2013-05-30T09:14:47Z</time>
      </trkpt>
      <trkpt lat="48.48887" lon="-3.40709">
        <ele>226.05</ele>
        <time>2013-05-30T09:14:48Z</time>
      </trkpt>
      <trkpt lat="48.48882" lon="-3.407">
        <ele>225.57</ele>
        <time>2013-05-30T09:14:49Z</time>
      </trkpt>
      <trkpt lat="48.48875" lon="-3.40691">
        <ele>225.57</ele>
        <time>2013-05-30T09:14:50Z</time>
      </trkpt>
      <trkpt lat="48.48868" lon="-3.40684">
        <ele>225.57</ele>
        <time>2013-05-30T09:14:51Z</time>
      </trkpt>
      <trkpt lat="48.48861" lon="-3.40676">
        <ele>225.57</ele>
        <time>2013-05-30T09:14:52Z</time>
      </trkpt>
      <trkpt lat="48.48808" lon="-3.40619">
        <ele>222.2</ele>
        <time>2013-05-30T09:14:59Z</time>
      </trkpt>
      <trkpt lat="48.48784" lon="-3.4059">
        <ele>221.24</ele>
        <time>2013-05-30T09:15:02Z</time>
      </trkpt>
      <trkpt lat="48.48778" lon="-3.40577">
        <ele>219.8</ele>
        <time>2013-05-30T09:15:03Z</time>
      </trkpt>
      <trkpt lat="48.48772" lon="-3.40563">
        <ele>218.84</ele>
        <time>2013-05-30T09:15:04Z</time>
      </trkpt>
      <trkpt lat="48.48766" lon="-3.40548">
        <ele>218.36</ele>
        <time>2013-05-30T09:15:05Z</time>
      </trkpt>
      <trkpt lat="48.48761" lon="-3.40532">
        <ele>217.88</ele>
        <time>2013-05-30T09:15:06Z</time>
      </trkpt>
      <trkpt lat="48.48757" lon="-3.40514">
        <ele>216.91</ele>
        <time>2013-05-30T09:15:07Z</time>
      </trkpt>
      <trkpt lat="48.48755" lon="-3.40496">
        <ele>215.47</ele>
        <time>2013-05-30T09:15:08Z</time>
      </trkpt>
      <trkpt lat="48.48753" lon="-3.40476">
        <ele>214.99</ele>
        <time>2013-05-30T09:15:09Z</time>
      </trkpt>
      <trkpt lat="48.48752" lon="-3.40457">
        <ele>214.03</ele>
        <time>2013-05-30T09:15:10Z</time>
      </trkpt>
      <trkpt lat="48.48752" lon="-3.40437">
        <ele>213.55</ele>
        <time>2013-05-30T09:15:11Z</time>
      </trkpt>
      <trkpt lat="48.48753" lon="-3.40418">
        <ele>212.59</ele>
        <time>2013-05-30T09:15:12Z</time>
      </trkpt>
      <trkpt lat="48.48755" lon="-3.40398">
        <ele>209.7</ele>
        <time>2013-05-30T09:15:13Z</time>
      </trkpt>
      <trkpt lat="48.48758" lon="-3.40378">
        <ele>209.22</ele>
        <time>2013-05-30T09:15:14Z</time>
      </trkpt>
      <trkpt lat="48.48767" lon="-3.40322">
        <ele>205.86</ele>
        <time>2013-05-30T09:15:17Z</time>
      </trkpt>
      <trkpt lat="48.48771" lon="-3.40304">
        <ele>205.38</ele>
        <time>2013-05-30T09:15:18Z</time>
      </trkpt>
      <trkpt lat="48.48782" lon="-3.40233">
        <ele>203.46</ele>
        <time>2013-05-30T09:15:22Z</time>
      </trkpt>
      <trkpt lat="48.48785" lon="-3.40145">
        <ele>199.61</ele>
        <time>2013-05-30T09:15:27Z</time>
      </trkpt>
      <trkpt lat="48.48771" lon="-3.4001">
        <ele>198.17</ele>
        <time>2013-05-30T09:15:36Z</time>
      </trkpt>
      <trkpt lat="48.48736" lon="-3.39897">
        <ele>199.13</ele>
        <time>2013-05-30T09:15:48Z</time>
      </trkpt>
      <trkpt lat="48.48685" lon="-3.39783">
        <ele>202.01</ele>
        <time>2013-05-30T09:16:04Z</time>
      </trkpt>
      <trkpt lat="48.48668" lon="-3.39739">
        <ele>202.49</ele>
        <time>2013-05-30T09:16:10Z</time>
      </trkpt>
      <trkpt lat="48.48613" lon="-3.39643">
        <ele>203.46</ele>
        <time>2013-05-30T09:16:25Z</time>
      </trkpt>
      <trkpt lat="48.48558" lon="-3.39549">
        <ele>203.46</ele>
        <time>2013-05-30T09:16:40Z</time>
      </trkpt>
      <trkpt lat="48.48492" lon="-3.39435">
        <ele>204.9</ele>
        <time>2013-05-30T09:16:58Z</time>
      </trkpt>
      <trkpt lat="48.48473" lon="-3.39394">
        <ele>205.38</ele>
        <time>2013-05-30T09:17:04Z</time>
      </trkpt>
      <trkpt lat="48.48469" lon="-3.39379">
        <ele>205.38</ele>
        <time>2013-05-30T09:17:06Z</time>
      </trkpt>
      <trkpt lat="48.48466" lon="-3.39371">
        <ele>205.86</ele>
        <time>2013-05-30T09:17:07Z</time>
      </trkpt>
      <trkpt lat="48.4845" lon="-3.39267">
        <ele>207.3</ele>
        <time>2013-05-30T09:17:20Z</time>
      </trkpt>
      <trkpt lat="48.48418" lon="-3.39147">
        <ele>209.22</ele>
        <time>2013-05-30T09:17:36Z</time>
      </trkpt>
      <trkpt lat="48.48411" lon="-3.39132">
        <ele>208.74</ele>
        <time>2013-05-30T09:17:38Z</time>
      </trkpt>
      <trkpt lat="48.4834" lon="-3.39021">
        <ele>207.3</ele>
        <time>2013-05-30T09:17:54Z</time>
      </trkpt>
      <trkpt lat="48.483" lon="-3.3891">
        <ele>207.3</ele>
        <time>2013-05-30T09:18:07Z</time>
      </trkpt>
      <trkpt lat="48.48288" lon="-3.38868">
        <ele>206.82</ele>
        <time>2013-05-30T09:18:12Z</time>
      </trkpt>
      <trkpt lat="48.48284" lon="-3.3886">
        <ele>206.82</ele>
        <time>2013-05-30T09:18:13Z</time>
      </trkpt>
      <trkpt lat="48.48227" lon="-3.3877">
        <ele>206.82</ele>
        <time>2013-05-30T09:18:26Z</time>
      </trkpt>
      <trkpt lat="48.48216" lon="-3.38748">
        <ele>207.3</ele>
        <time>2013-05-30T09:18:29Z</time>
      </trkpt>
      <trkpt lat="48.4821" lon="-3.38732">
        <ele>207.3</ele>
        <time>2013-05-30T09:18:31Z</time>
      </trkpt>
      <trkpt lat="48.48207" lon="-3.38723">
        <ele>207.3</ele>
        <time>2013-05-30T09:18:32Z</time>
      </trkpt>
      <trkpt lat="48.48203" lon="-3.38705">
        <ele>206.82</ele>
        <time>2013-05-30T09:18:34Z</time>
      </trkpt>
      <trkpt lat="48.48202" lon="-3.38696">
        <ele>206.82</ele>
        <time>2013-05-30T09:18:35Z</time>
      </trkpt>
      <trkpt lat="48.48202" lon="-3.38687">
        <ele>206.82</ele>
        <time>2013-05-30T09:18:36Z</time>
      </trkpt>
      <trkpt lat="48.48217" lon="-3.38575">
        <ele>208.26</ele>
        <time>2013-05-30T09:18:49Z</time>
      </trkpt>
      <trkpt lat="48.48235" lon="-3.38464">
        <ele>211.15</ele>
        <time>2013-05-30T09:19:04Z</time>
      </trkpt>
      <trkpt lat="48.48238" lon="-3.38444">
        <ele>212.11</ele>
        <time>2013-05-30T09:19:07Z</time>
      </trkpt>
      <trkpt lat="48.48249" lon="-3.38386">
        <ele>214.99</ele>
        <time>2013-05-30T09:19:17Z</time>
      </trkpt>
      <trkpt lat="48.48266" lon="-3.38326">
        <ele>218.36</ele>
        <time>2013-05-30T09:19:28Z</time>
      </trkpt>
      <trkpt lat="48.48292" lon="-3.3826">
        <ele>220.28</ele>
        <time>2013-05-30T09:19:40Z</time>
      </trkpt>
      <trkpt lat="48.48322" lon="-3.38171">
        <ele>222.68</ele>
        <time>2013-05-30T09:19:56Z</time>
      </trkpt>
      <trkpt lat="48.48323" lon="-3.38166">
        <ele>223.16</ele>
        <time>2013-05-30T09:19:57Z</time>
      </trkpt>
      <trkpt lat="48.4833" lon="-3.38075">
        <ele>226.05</ele>
        <time>2013-05-30T09:20:12Z</time>
      </trkpt>
      <trkpt lat="48.48334" lon="-3.38018">
        <ele>227.01</ele>
        <time>2013-05-30T09:20:21Z</time>
      </trkpt>
      <trkpt lat="48.48334" lon="-3.38012">
        <ele>227.49</ele>
        <time>2013-05-30T09:20:22Z</time>
      </trkpt>
      <trkpt lat="48.48334" lon="-3.38005">
        <ele>227.49</ele>
        <time>2013-05-30T09:20:23Z</time>
      </trkpt>
      <trkpt lat="48.48334" lon="-3.37999">
        <ele>227.49</ele>
        <time>2013-05-30T09:20:24Z</time>
      </trkpt>
      <trkpt lat="48.48335" lon="-3.37993">
        <ele>227.49</ele>
        <time>2013-05-30T09:20:25Z</time>
      </trkpt>
      <trkpt lat="48.48337" lon="-3.37961">
        <ele>229.41</ele>
        <time>2013-05-30T09:20:31Z</time>
      </trkpt>
      <trkpt lat="48.48338" lon="-3.37955">
        <ele>229.41</ele>
        <time>2013-05-30T09:20:32Z</time>
      </trkpt>
      <trkpt lat="48.48339" lon="-3.37949">
        <ele>229.89</ele>
        <time>2013-05-30T09:20:33Z</time>
      </trkpt>
      <trkpt lat="48.4834" lon="-3.37944">
        <ele>229.89</ele>
        <time>2013-05-30T09:20:34Z</time>
      </trkpt>
      <trkpt lat="48.48341" lon="-3.37939">
        <ele>230.37</ele>
        <time>2013-05-30T09:20:35Z</time>
      </trkpt>
      <trkpt lat="48.48343" lon="-3.37934">
        <ele>230.37</ele>
        <time>2013-05-30T09:20:36Z</time>
      </trkpt>
      <trkpt lat="48.48345" lon="-3.37929">
        <ele>230.37</ele>
        <time>2013-05-30T09:20:37Z</time>
      </trkpt>
      <trkpt lat="48.48359" lon="-3.37902">
        <ele>232.78</ele>
        <time>2013-05-30T09:20:43Z</time>
      </trkpt>
      <trkpt lat="48.48386" lon="-3.37851">
        <ele>233.74</ele>
        <time>2013-05-30T09:20:55Z</time>
      </trkpt>
      <trkpt lat="48.48389" lon="-3.37846">
        <ele>234.22</ele>
        <time>2013-05-30T09:20:56Z</time>
      </trkpt>
      <trkpt lat="48.48392" lon="-3.37842">
        <ele>234.22</ele>
        <time>2013-05-30T09:20:57Z</time>
      </trkpt>
      <trkpt lat="48.48396" lon="-3.37838">
        <ele>233.74</ele>
        <time>2013-05-30T09:20:58Z</time>
      </trkpt>
      <trkpt lat="48.484" lon="-3.37835">
        <ele>234.22</ele>
        <time>2013-05-30T09:20:59Z</time>
      </trkpt>
      <trkpt lat="48.48404" lon="-3.37832">
        <ele>234.22</ele>
        <time>2013-05-30T09:21:00Z</time>
      </trkpt>
      <trkpt lat="48.48408" lon="-3.3783">
        <ele>234.7</ele>
        <time>2013-05-30T09:21:01Z</time>
      </trkpt>
      <trkpt lat="48.48437" lon="-3.37824">
        <ele>234.7</ele>
        <time>2013-05-30T09:21:07Z</time>
      </trkpt>
      <trkpt lat="48.48488" lon="-3.37804">
        <ele>235.18</ele>
        <time>2013-05-30T09:21:17Z</time>
      </trkpt>
      <trkpt lat="48.48504" lon="-3.37801">
        <ele>234.7</ele>
        <time>2013-05-30T09:21:20Z</time>
      </trkpt>
      <trkpt lat="48.48509" lon="-3.378">
        <ele>234.7</ele>
        <time>2013-05-30T09:21:21Z</time>
      </trkpt>
      <trkpt lat="48.48585" lon="-3.3779">
        <ele>235.18</ele>
        <time>2013-05-30T09:21:34Z</time>
      </trkpt>
      <trkpt lat="48.48611" lon="-3.37788">
        <ele>235.18</ele>
        <time>2013-05-30T09:21:39Z</time>
      </trkpt>
      <trkpt lat="48.48669" lon="-3.37779">
        <ele>237.1</ele>
        <time>2013-05-30T09:21:51Z</time>
      </trkpt>
      <trkpt lat="48.48714" lon="-3.37774">
        <ele>240.47</ele>
        <time>2013-05-30T09:22:02Z</time>
      </trkpt>
      <trkpt lat="48.48727" lon="-3.37771">
        <ele>241.91</ele>
        <time>2013-05-30T09:22:05Z</time>
      </trkpt>
      <trkpt lat="48.48748" lon="-3.37771">
        <ele>241.91</ele>
        <time>2013-05-30T09:22:10Z</time>
      </trkpt>
      <trkpt lat="48.48778" lon="-3.37774">
        <ele>244.79</ele>
        <time>2013-05-30T09:22:18Z</time>
      </trkpt>
      <trkpt lat="48.4884" lon="-3.37786">
        <ele>246.23</ele>
        <time>2013-05-30T09:22:33Z</time>
      </trkpt>
      <trkpt lat="48.48886" lon="-3.37794">
        <ele>246.23</ele>
        <time>2013-05-30T09:22:43Z</time>
      </trkpt>
      <trkpt lat="48.48891" lon="-3.37794">
        <ele>246.23</ele>
        <time>2013-05-30T09:22:44Z</time>
      </trkpt>
      <trkpt lat="48.48981" lon="-3.37798">
        <ele>246.23</ele>
        <time>2013-05-30T09:23:01Z</time>
      </trkpt>
      <trkpt lat="48.49036" lon="-3.37791">
        <ele>245.75</ele>
        <time>2013-05-30T09:23:11Z</time>
      </trkpt>
      <trkpt lat="48.49109" lon="-3.37742">
        <ele>246.23</ele>
        <time>2013-05-30T09:23:25Z</time>
      </trkpt>
      <trkpt lat="48.49175" lon="-3.37669">
        <ele>247.68</ele>
        <time>2013-05-30T09:23:40Z</time>
      </trkpt>
      <trkpt lat="48.4925" lon="-3.37582">
        <ele>249.12</ele>
        <time>2013-05-30T09:23:57Z</time>
      </trkpt>
      <trkpt lat="48.49318" lon="-3.37505">
        <ele>249.6</ele>
        <time>2013-05-30T09:24:12Z</time>
      </trkpt>
      <trkpt lat="48.49409" lon="-3.37403">
        <ele>247.2</ele>
        <time>2013-05-30T09:24:29Z</time>
      </trkpt>
      <trkpt lat="48.49474" lon="-3.37326">
        <ele>247.68</ele>
        <time>2013-05-30T09:24:41Z</time>
      </trkpt>
      <trkpt lat="48.49489" lon="-3.3731">
        <ele>246.23</ele>
        <time>2013-05-30T09:24:44Z</time>
      </trkpt>
      <trkpt lat="48.49569" lon="-3.37228">
        <ele>243.83</ele>
        <time>2013-05-30T09:24:57Z</time>
      </trkpt>
      <trkpt lat="48.49626" lon="-3.3719">
        <ele>242.39</ele>
        <time>2013-05-30T09:25:05Z</time>
      </trkpt>
      <trkpt lat="48.49704" lon="-3.37159">
        <ele>239.51</ele>
        <time>2013-05-30T09:25:15Z</time>
      </trkpt>
      <trkpt lat="48.49777" lon="-3.37124">
        <ele>236.14</ele>
        <time>2013-05-30T09:25:24Z</time>
      </trkpt>
      <trkpt lat="48.49785" lon="-3.37118">
        <ele>235.66</ele>
        <time>2013-05-30T09:25:25Z</time>
      </trkpt>
      <trkpt lat="48.49876" lon="-3.37039">
        <ele>232.3</ele>
        <time>2013-05-30T09:25:37Z</time>
      </trkpt>
      <trkpt lat="48.49922" lon="-3.37006">
        <ele>229.89</ele>
        <time>2013-05-30T09:25:43Z</time>
      </trkpt>
      <trkpt lat="48.50024" lon="-3.36977">
        <ele>226.53</ele>
        <time>2013-05-30T09:25:55Z</time>
      </trkpt>
      <trkpt lat="48.50123" lon="-3.37003">
        <ele>223.64</ele>
        <time>2013-05-30T09:26:07Z</time>
      </trkpt>
      <trkpt lat="48.50171" lon="-3.37022">
        <ele>221.24</ele>
        <time>2013-05-30T09:26:13Z</time>
      </trkpt>
      <trkpt lat="48.50295" lon="-3.37051">
        <ele>218.36</ele>
        <time>2013-05-30T09:26:29Z</time>
      </trkpt>
      <trkpt lat="48.50386" lon="-3.37073">
        <ele>214.51</ele>
        <time>2013-05-30T09:26:40Z</time>
      </trkpt>
      <trkpt lat="48.50395" lon="-3.37074">
        <ele>214.03</ele>
        <time>2013-05-30T09:26:41Z</time>
      </trkpt>
      <trkpt lat="48.50438" lon="-3.37084">
        <ele>212.11</ele>
        <time>2013-05-30T09:26:46Z</time>
      </trkpt>
      <trkpt lat="48.50514" lon="-3.37101">
        <ele>209.22</ele>
        <time>2013-05-30T09:26:55Z</time>
      </trkpt>
      <trkpt lat="48.50623" lon="-3.37144">
        <ele>206.82</ele>
        <time>2013-05-30T09:27:10Z</time>
      </trkpt>
      <trkpt lat="48.50708" lon="-3.37215">
        <ele>204.9</ele>
        <time>2013-05-30T09:27:24Z</time>
      </trkpt>
      <trkpt lat="48.50794" lon="-3.37328">
        <ele>202.98</ele>
        <time>2013-05-30T09:27:40Z</time>
      </trkpt>
      <trkpt lat="48.50878" lon="-3.37462">
        <ele>201.05</ele>
        <time>2013-05-30T09:27:57Z</time>
      </trkpt>
      <trkpt lat="48.50946" lon="-3.37574">
        <ele>197.69</ele>
        <time>2013-05-30T09:28:11Z</time>
      </trkpt>
      <trkpt lat="48.51031" lon="-3.37667">
        <ele>195.77</ele>
        <time>2013-05-30T09:28:25Z</time>
      </trkpt>
      <trkpt lat="48.51078" lon="-3.37696">
        <ele>193.84</ele>
        <time>2013-05-30T09:28:32Z</time>
      </trkpt>
      <trkpt lat="48.51166" lon="-3.37715">
        <ele>192.4</ele>
        <time>2013-05-30T09:28:44Z</time>
      </trkpt>
      <trkpt lat="48.5127" lon="-3.37733">
        <ele>189.52</ele>
        <time>2013-05-30T09:28:58Z</time>
      </trkpt>
      <trkpt lat="48.51284" lon="-3.37736">
        <ele>188.56</ele>
        <time>2013-05-30T09:29:00Z</time>
      </trkpt>
      <trkpt lat="48.51389" lon="-3.37766">
        <ele>185.19</ele>
        <time>2013-05-30T09:29:14Z</time>
      </trkpt>
      <trkpt lat="48.51479" lon="-3.37803">
        <ele>182.79</ele>
        <time>2013-05-30T09:29:26Z</time>
      </trkpt>
      <trkpt lat="48.51588" lon="-3.37849">
        <ele>180.87</ele>
        <time>2013-05-30T09:29:40Z</time>
      </trkpt>
      <trkpt lat="48.51678" lon="-3.37885">
        <ele>180.87</ele>
        <time>2013-05-30T09:29:54Z</time>
      </trkpt>
      <trkpt lat="48.51687" lon="-3.37889">
        <ele>180.87</ele>
        <time>2013-05-30T09:29:56Z</time>
      </trkpt>
      <trkpt lat="48.51737" lon="-3.37905">
        <ele>184.23</ele>
        <time>2013-05-30T09:30:07Z</time>
      </trkpt>
      <trkpt lat="48.51753" lon="-3.37911">
        <ele>185.67</ele>
        <time>2013-05-30T09:30:11Z</time>
      </trkpt>
      <trkpt lat="48.5179" lon="-3.37925">
        <ele>188.56</ele>
        <time>2013-05-30T09:30:21Z</time>
      </trkpt>
      <trkpt lat="48.51828" lon="-3.37939">
        <ele>191.92</ele>
        <time>2013-05-30T09:30:31Z</time>
      </trkpt>
      <trkpt lat="48.51878" lon="-3.37957">
        <ele>194.32</ele>
        <time>2013-05-30T09:30:44Z</time>
      </trkpt>
      <trkpt lat="48.51928" lon="-3.37973">
        <ele>196.73</ele>
        <time>2013-05-30T09:30:57Z</time>
      </trkpt>
      <trkpt lat="48.52005" lon="-3.38002">
        <ele>198.17</ele>
        <time>2013-05-30T09:31:15Z</time>
      </trkpt>
      <trkpt lat="48.5208" lon="-3.38035">
        <ele>199.13</ele>
        <time>2013-05-30T09:31:31Z</time>
      </trkpt>
      <trkpt lat="48.52151" lon="-3.38064">
        <ele>199.61</ele>
        <time>2013-05-30T09:31:45Z</time>
      </trkpt>
      <trkpt lat="48.5225" lon="-3.38107">
        <ele>200.09</ele>
        <time>2013-05-30T09:32:04Z</time>
      </trkpt>
      <trkpt lat="48.52353" lon="-3.38149">
        <ele>198.65</ele>
        <time>2013-05-30T09:32:22Z</time>
      </trkpt>
      <trkpt lat="48.5244" lon="-3.38186">
        <ele>195.77</ele>
        <time>2013-05-30T09:32:35Z</time>
      </trkpt>
      <trkpt lat="48.52497" lon="-3.38202">
        <ele>193.36</ele>
        <time>2013-05-30T09:32:42Z</time>
      </trkpt>
      <trkpt lat="48.52556" lon="-3.38222">
        <ele>189.52</ele>
        <time>2013-05-30T09:32:49Z</time>
      </trkpt>
      <trkpt lat="48.52564" lon="-3.38224">
        <ele>189.52</ele>
        <time>2013-05-30T09:32:50Z</time>
      </trkpt>
      <trkpt lat="48.52589" lon="-3.38231">
        <ele>188.08</ele>
        <time>2013-05-30T09:32:53Z</time>
      </trkpt>
      <trkpt lat="48.52614" lon="-3.38239">
        <ele>186.63</ele>
        <time>2013-05-30T09:32:56Z</time>
      </trkpt>
      <trkpt lat="48.52679" lon="-3.38258">
        <ele>182.79</ele>
        <time>2013-05-30T09:33:04Z</time>
      </trkpt>
      <trkpt lat="48.52687" lon="-3.3826">
        <ele>182.79</ele>
        <time>2013-05-30T09:33:05Z</time>
      </trkpt>
      <trkpt lat="48.52798" lon="-3.38298">
        <ele>178.94</ele>
        <time>2013-05-30T09:33:20Z</time>
      </trkpt>
      <trkpt lat="48.52888" lon="-3.38361">
        <ele>178.46</ele>
        <time>2013-05-30T09:33:35Z</time>
      </trkpt>
      <trkpt lat="48.52975" lon="-3.38427">
        <ele>177.98</ele>
        <time>2013-05-30T09:33:50Z</time>
      </trkpt>
      <trkpt lat="48.53059" lon="-3.38486">
        <ele>176.06</ele>
        <time>2013-05-30T09:34:05Z</time>
      </trkpt>
      <trkpt lat="48.53153" lon="-3.3855">
        <ele>175.1</ele>
        <time>2013-05-30T09:34:22Z</time>
      </trkpt>
      <trkpt lat="48.53229" lon="-3.38628">
        <ele>172.21</ele>
        <time>2013-05-30T09:34:35Z</time>
      </trkpt>
      <trkpt lat="48.53277" lon="-3.38656">
        <ele>169.33</ele>
        <time>2013-05-30T09:34:41Z</time>
      </trkpt>
      <trkpt lat="48.53322" lon="-3.38668">
        <ele>165.96</ele>
        <time>2013-05-30T09:34:46Z</time>
      </trkpt>
      <trkpt lat="48.53352" lon="-3.3867">
        <ele>164.52</ele>
        <time>2013-05-30T09:34:49Z</time>
      </trkpt>
      <trkpt lat="48.53439" lon="-3.38688">
        <ele>160.2</ele>
        <time>2013-05-30T09:34:58Z</time>
      </trkpt>
      <trkpt lat="48.53483" lon="-3.38709">
        <ele>157.31</ele>
        <time>2013-05-30T09:35:03Z</time>
      </trkpt>
      <trkpt lat="48.53503" lon="-3.38721">
        <ele>153.95</ele>
        <time>2013-05-30T09:35:07Z</time>
      </trkpt>
      <trkpt lat="48.53503" lon="-3.38722">
        <ele>153.95</ele>
        <time>2013-05-30T09:35:16Z</time>
      </trkpt>
      <trkpt lat="48.53501" lon="-3.3872">
        <ele>153.47</ele>
        <time>2013-05-30T09:35:42Z</time>
      </trkpt>
      <trkpt lat="48.53503" lon="-3.3872">
        <ele>153.95</ele>
        <time>2013-05-30T09:35:43Z</time>
      </trkpt>
      <trkpt lat="48.53505" lon="-3.3872">
        <ele>153.95</ele>
        <time>2013-05-30T09:35:44Z</time>
      </trkpt>
      <trkpt lat="48.53512" lon="-3.3872">
        <ele>153.95</ele>
        <time>2013-05-30T09:35:46Z</time>
      </trkpt>
      <trkpt lat="48.53516" lon="-3.38722">
        <ele>153.95</ele>
        <time>2013-05-30T09:35:47Z</time>
      </trkpt>
      <trkpt lat="48.5352" lon="-3.38723">
        <ele>153.95</ele>
        <time>2013-05-30T09:35:48Z</time>
      </trkpt>
      <trkpt lat="48.5356" lon="-3.3874">
        <ele>153.95</ele>
        <time>2013-05-30T09:35:55Z</time>
      </trkpt>
      <trkpt lat="48.53566" lon="-3.38744">
        <ele>153.95</ele>
        <time>2013-05-30T09:35:56Z</time>
      </trkpt>
      <trkpt lat="48.53595" lon="-3.38759">
        <ele>154.43</ele>
        <time>2013-05-30T09:36:01Z</time>
      </trkpt>
      <trkpt lat="48.5368" lon="-3.38792">
        <ele>153.47</ele>
        <time>2013-05-30T09:36:14Z</time>
      </trkpt>
      <trkpt lat="48.53712" lon="-3.38811">
        <ele>150.1</ele>
        <time>2013-05-30T09:36:19Z</time>
      </trkpt>
      <trkpt lat="48.53716" lon="-3.38812">
        <ele>148.66</ele>
        <time>2013-05-30T09:36:20Z</time>
      </trkpt>
      <trkpt lat="48.53718" lon="-3.38812">
        <ele>148.18</ele>
        <time>2013-05-30T09:36:21Z</time>
      </trkpt>
      <trkpt lat="48.5372" lon="-3.3881">
        <ele>147.7</ele>
        <time>2013-05-30T09:36:22Z</time>
      </trkpt>
      <trkpt lat="48.5372" lon="-3.38808">
        <ele>147.7</ele>
        <time>2013-05-30T09:36:23Z</time>
      </trkpt>
      <trkpt lat="48.5372" lon="-3.38806">
        <ele>147.7</ele>
        <time>2013-05-30T09:36:24Z</time>
      </trkpt>
      <trkpt lat="48.53719" lon="-3.38805">
        <ele>148.18</ele>
        <time>2013-05-30T09:36:25Z</time>
      </trkpt>
      <trkpt lat="48.53717" lon="-3.38802">
        <ele>148.18</ele>
        <time>2013-05-30T09:36:26Z</time>
      </trkpt>
      <trkpt lat="48.53715" lon="-3.388">
        <ele>148.66</ele>
        <time>2013-05-30T09:36:27Z</time>
      </trkpt>
      <trkpt lat="48.53703" lon="-3.38785">
        <ele>149.14</ele>
        <time>2013-05-30T09:36:31Z</time>
      </trkpt>
      <trkpt lat="48.53701" lon="-3.3878">
        <ele>149.62</ele>
        <time>2013-05-30T09:36:32Z</time>
      </trkpt>
      <trkpt lat="48.53697" lon="-3.3877">
        <ele>150.58</ele>
        <time>2013-05-30T09:36:34Z</time>
      </trkpt>
      <trkpt lat="48.53695" lon="-3.38764">
        <ele>151.06</ele>
        <time>2013-05-30T09:36:35Z</time>
      </trkpt>
      <trkpt lat="48.53689" lon="-3.38739">
        <ele>152.03</ele>
        <time>2013-05-30T09:36:39Z</time>
      </trkpt>
      <trkpt lat="48.53688" lon="-3.38732">
        <ele>153.47</ele>
        <time>2013-05-30T09:36:40Z</time>
      </trkpt>
      <trkpt lat="48.53673" lon="-3.38626">
        <ele>152.99</ele>
        <time>2013-05-30T09:36:54Z</time>
      </trkpt>
      <trkpt lat="48.53662" lon="-3.38517">
        <ele>152.03</ele>
        <time>2013-05-30T09:37:06Z</time>
      </trkpt>
      <trkpt lat="48.5366" lon="-3.38508">
        <ele>152.03</ele>
        <time>2013-05-30T09:37:07Z</time>
      </trkpt>
      <trkpt lat="48.53653" lon="-3.38491">
        <ele>152.51</ele>
        <time>2013-05-30T09:37:10Z</time>
      </trkpt>
      <trkpt lat="48.53649" lon="-3.38486">
        <ele>152.51</ele>
        <time>2013-05-30T09:37:11Z</time>
      </trkpt>
      <trkpt lat="48.53641" lon="-3.38477">
        <ele>152.51</ele>
        <time>2013-05-30T09:37:13Z</time>
      </trkpt>
      <trkpt lat="48.53637" lon="-3.38474">
        <ele>152.51</ele>
        <time>2013-05-30T09:37:14Z</time>
      </trkpt>
      <trkpt lat="48.53627" lon="-3.38462">
        <ele>151.54</ele>
        <time>2013-05-30T09:37:23Z</time>
      </trkpt>
      <trkpt lat="48.53627" lon="-3.38459">
        <ele>151.54</ele>
        <time>2013-05-30T09:37:42Z</time>
      </trkpt>
      <trkpt lat="48.53626" lon="-3.38457">
        <ele>152.51</ele>
        <time>2013-05-30T09:38:11Z</time>
      </trkpt>
      <trkpt lat="48.53626" lon="-3.38457">
        <ele>151.54</ele>
        <time>2013-05-30T09:38:36Z</time>
      </trkpt>
      <trkpt lat="48.53626" lon="-3.38455">
        <ele>151.54</ele>
        <time>2013-05-30T09:38:37Z</time>
      </trkpt>
      <trkpt lat="48.53628" lon="-3.38453">
        <ele>151.54</ele>
        <time>2013-05-30T09:38:38Z</time>
      </trkpt>
      <trkpt lat="48.53631" lon="-3.38454">
        <ele>152.99</ele>
        <time>2013-05-30T09:38:40Z</time>
      </trkpt>
      <trkpt lat="48.53633" lon="-3.38457">
        <ele>152.51</ele>
        <time>2013-05-30T09:38:41Z</time>
      </trkpt>
      <trkpt lat="48.53635" lon="-3.38461">
        <ele>152.51</ele>
        <time>2013-05-30T09:38:42Z</time>
      </trkpt>
      <trkpt lat="48.53637" lon="-3.38465">
        <ele>152.51</ele>
        <time>2013-05-30T09:38:43Z</time>
      </trkpt>
      <trkpt lat="48.5364" lon="-3.38469">
        <ele>152.99</ele>
        <time>2013-05-30T09:38:44Z</time>
      </trkpt>
      <trkpt lat="48.53644" lon="-3.38472">
        <ele>153.47</ele>
        <time>2013-05-30T09:38:45Z</time>
      </trkpt>
      <trkpt lat="48.53655" lon="-3.38486">
        <ele>153.47</ele>
        <time>2013-05-30T09:38:48Z</time>
      </trkpt>
      <trkpt lat="48.53658" lon="-3.38491">
        <ele>153.47</ele>
        <time>2013-05-30T09:38:49Z</time>
      </trkpt>
      <trkpt lat="48.53661" lon="-3.38498">
        <ele>153.95</ele>
        <time>2013-05-30T09:38:50Z</time>
      </trkpt>
      <trkpt lat="48.53664" lon="-3.38505">
        <ele>153.95</ele>
        <time>2013-05-30T09:38:51Z</time>
      </trkpt>
      <trkpt lat="48.53666" lon="-3.38513">
        <ele>153.47</ele>
        <time>2013-05-30T09:38:52Z</time>
      </trkpt>
      <trkpt lat="48.53668" lon="-3.38521">
        <ele>153.47</ele>
        <time>2013-05-30T09:38:53Z</time>
      </trkpt>
      <trkpt lat="48.53686" lon="-3.38653">
        <ele>152.99</ele>
        <time>2013-05-30T09:39:08Z</time>
      </trkpt>
      <trkpt lat="48.53703" lon="-3.38756">
        <ele>152.99</ele>
        <time>2013-05-30T09:39:20Z</time>
      </trkpt>
      <trkpt lat="48.53717" lon="-3.38794">
        <ele>151.06</ele>
        <time>2013-05-30T09:39:24Z</time>
      </trkpt>
      <trkpt lat="48.53738" lon="-3.3883">
        <ele>148.66</ele>
        <time>2013-05-30T09:39:29Z</time>
      </trkpt>
      <trkpt lat="48.53741" lon="-3.38836">
        <ele>147.7</ele>
        <time>2013-05-30T09:39:30Z</time>
      </trkpt>
      <trkpt lat="48.53761" lon="-3.38879">
        <ele>147.7</ele>
        <time>2013-05-30T09:39:35Z</time>
      </trkpt>
      <trkpt lat="48.53767" lon="-3.38899">
        <ele>146.74</ele>
        <time>2013-05-30T09:39:37Z</time>
      </trkpt>
      <trkpt lat="48.53777" lon="-3.3894">
        <ele>143.85</ele>
        <time>2013-05-30T09:39:41Z</time>
      </trkpt>
      <trkpt lat="48.53786" lon="-3.3898">
        <ele>143.37</ele>
        <time>2013-05-30T09:39:45Z</time>
      </trkpt>
      <trkpt lat="48.5383" lon="-3.39105">
        <ele>141.93</ele>
        <time>2013-05-30T09:40:00Z</time>
      </trkpt>
      <trkpt lat="48.53844" lon="-3.39147">
        <ele>140.97</ele>
        <time>2013-05-30T09:40:06Z</time>
      </trkpt>
      <trkpt lat="48.53846" lon="-3.39154">
        <ele>140.97</ele>
        <time>2013-05-30T09:40:07Z</time>
      </trkpt>
      <trkpt lat="48.53859" lon="-3.39217">
        <ele>138.09</ele>
        <time>2013-05-30T09:40:14Z</time>
      </trkpt>
      <trkpt lat="48.5388" lon="-3.39344">
        <ele>135.2</ele>
        <time>2013-05-30T09:40:26Z</time>
      </trkpt>
      <trkpt lat="48.539" lon="-3.39413">
        <ele>132.8</ele>
        <time>2013-05-30T09:40:32Z</time>
      </trkpt>
      <trkpt lat="48.53923" lon="-3.39467">
        <ele>130.4</ele>
        <time>2013-05-30T09:40:37Z</time>
      </trkpt>
      <trkpt lat="48.53955" lon="-3.39532">
        <ele>127.03</ele>
        <time>2013-05-30T09:40:43Z</time>
      </trkpt>
      <trkpt lat="48.53961" lon="-3.39542">
        <ele>127.03</ele>
        <time>2013-05-30T09:40:44Z</time>
      </trkpt>
      <trkpt lat="48.53967" lon="-3.39551">
        <ele>126.07</ele>
        <time>2013-05-30T09:40:45Z</time>
      </trkpt>
      <trkpt lat="48.53974" lon="-3.39559">
        <ele>126.07</ele>
        <time>2013-05-30T09:40:46Z</time>
      </trkpt>
      <trkpt lat="48.53981" lon="-3.39564">
        <ele>125.59</ele>
        <time>2013-05-30T09:40:47Z</time>
      </trkpt>
      <trkpt lat="48.53988" lon="-3.39568">
        <ele>124.63</ele>
        <time>2013-05-30T09:40:48Z</time>
      </trkpt>
      <trkpt lat="48.53997" lon="-3.3957">
        <ele>124.15</ele>
        <time>2013-05-30T09:40:49Z</time>
      </trkpt>
      <trkpt lat="48.54005" lon="-3.39572">
        <ele>124.15</ele>
        <time>2013-05-30T09:40:50Z</time>
      </trkpt>
      <trkpt lat="48.54014" lon="-3.39573">
        <ele>123.19</ele>
        <time>2013-05-30T09:40:51Z</time>
      </trkpt>
      <trkpt lat="48.54067" lon="-3.39573">
        <ele>119.82</ele>
        <time>2013-05-30T09:40:57Z</time>
      </trkpt>
      <trkpt lat="48.54077" lon="-3.39574">
        <ele>119.34</ele>
        <time>2013-05-30T09:40:58Z</time>
      </trkpt>
      <trkpt lat="48.54096" lon="-3.39576">
        <ele>118.38</ele>
        <time>2013-05-30T09:41:00Z</time>
      </trkpt>
      <trkpt lat="48.54132" lon="-3.39579">
        <ele>116.94</ele>
        <time>2013-05-30T09:41:04Z</time>
      </trkpt>
      <trkpt lat="48.54177" lon="-3.39585">
        <ele>114.05</ele>
        <time>2013-05-30T09:41:09Z</time>
      </trkpt>
      <trkpt lat="48.54204" lon="-3.39585">
        <ele>111.17</ele>
        <time>2013-05-30T09:41:12Z</time>
      </trkpt>
      <trkpt lat="48.54223" lon="-3.39584">
        <ele>110.21</ele>
        <time>2013-05-30T09:41:14Z</time>
      </trkpt>
      <trkpt lat="48.54241" lon="-3.39581">
        <ele>108.29</ele>
        <time>2013-05-30T09:41:16Z</time>
      </trkpt>
      <trkpt lat="48.54256" lon="-3.39574">
        <ele>107.32</ele>
        <time>2013-05-30T09:41:18Z</time>
      </trkpt>
      <trkpt lat="48.54269" lon="-3.39567">
        <ele>105.4</ele>
        <time>2013-05-30T09:41:21Z</time>
      </trkpt>
      <trkpt lat="48.54273" lon="-3.39564">
        <ele>104.92</ele>
        <time>2013-05-30T09:41:24Z</time>
      </trkpt>
      <trkpt lat="48.54275" lon="-3.39564">
        <ele>105.4</ele>
        <time>2013-05-30T09:41:25Z</time>
      </trkpt>
      <trkpt lat="48.54278" lon="-3.39564">
        <ele>104.92</ele>
        <time>2013-05-30T09:41:26Z</time>
      </trkpt>
      <trkpt lat="48.5428" lon="-3.39565">
        <ele>105.4</ele>
        <time>2013-05-30T09:41:27Z</time>
      </trkpt>
      <trkpt lat="48.54284" lon="-3.39567">
        <ele>105.88</ele>
        <time>2013-05-30T09:41:28Z</time>
      </trkpt>
      <trkpt lat="48.54287" lon="-3.39569">
        <ele>105.4</ele>
        <time>2013-05-30T09:41:29Z</time>
      </trkpt>
      <trkpt lat="48.54292" lon="-3.3957">
        <ele>105.4</ele>
        <time>2013-05-30T09:41:30Z</time>
      </trkpt>
      <trkpt lat="48.54334" lon="-3.39575">
        <ele>103.48</ele>
        <time>2013-05-30T09:41:37Z</time>
      </trkpt>
      <trkpt lat="48.54378" lon="-3.39565">
        <ele>101.56</ele>
        <time>2013-05-30T09:41:46Z</time>
      </trkpt>
      <trkpt lat="48.54385" lon="-3.39552">
        <ele>101.08</ele>
        <time>2013-05-30T09:41:49Z</time>
      </trkpt>
      <trkpt lat="48.54387" lon="-3.39545">
        <ele>101.08</ele>
        <time>2013-05-30T09:41:50Z</time>
      </trkpt>
      <trkpt lat="48.54389" lon="-3.39537">
        <ele>101.08</ele>
        <time>2013-05-30T09:41:51Z</time>
      </trkpt>
      <trkpt lat="48.54393" lon="-3.39529">
        <ele>101.08</ele>
        <time>2013-05-30T09:41:52Z</time>
      </trkpt>
      <trkpt lat="48.54396" lon="-3.39522">
        <ele>101.08</ele>
        <time>2013-05-30T09:41:53Z</time>
      </trkpt>
      <trkpt lat="48.54402" lon="-3.39515">
        <ele>101.08</ele>
        <time>2013-05-30T09:41:54Z</time>
      </trkpt>
      <trkpt lat="48.54407" lon="-3.3951">
        <ele>101.08</ele>
        <time>2013-05-30T09:41:55Z</time>
      </trkpt>
      <trkpt lat="48.54413" lon="-3.39506">
        <ele>100.6</ele>
        <time>2013-05-30T09:41:56Z</time>
      </trkpt>
      <trkpt lat="48.5442" lon="-3.39503">
        <ele>100.11</ele>
        <time>2013-05-30T09:41:57Z</time>
      </trkpt>
      <trkpt lat="48.54425" lon="-3.39498">
        <ele>99.63</ele>
        <time>2013-05-30T09:41:58Z</time>
      </trkpt>
      <trkpt lat="48.54431" lon="-3.39493">
        <ele>99.15</ele>
        <time>2013-05-30T09:41:59Z</time>
      </trkpt>
      <trkpt lat="48.54436" lon="-3.39489">
        <ele>99.15</ele>
        <time>2013-05-30T09:42:00Z</time>
      </trkpt>
      <trkpt lat="48.54441" lon="-3.39488">
        <ele>98.67</ele>
        <time>2013-05-30T09:42:01Z</time>
      </trkpt>
      <trkpt lat="48.54447" lon="-3.39487">
        <ele>99.15</ele>
        <time>2013-05-30T09:42:02Z</time>
      </trkpt>
      <trkpt lat="48.54453" lon="-3.39487">
        <ele>99.15</ele>
        <time>2013-05-30T09:42:03Z</time>
      </trkpt>
      <trkpt lat="48.54458" lon="-3.39488">
        <ele>99.15</ele>
        <time>2013-05-30T09:42:04Z</time>
      </trkpt>
      <trkpt lat="48.54484" lon="-3.39497">
        <ele>98.19</ele>
        <time>2013-05-30T09:42:10Z</time>
      </trkpt>
      <trkpt lat="48.54486" lon="-3.39494">
        <ele>98.19</ele>
        <time>2013-05-30T09:42:11Z</time>
      </trkpt>
      <trkpt lat="48.54492" lon="-3.39464">
        <ele>98.67</ele>
        <time>2013-05-30T09:42:16Z</time>
      </trkpt>
      <trkpt lat="48.54506" lon="-3.3941">
        <ele>99.15</ele>
        <time>2013-05-30T09:42:24Z</time>
      </trkpt>
      <trkpt lat="48.54509" lon="-3.39404">
        <ele>99.63</ele>
        <time>2013-05-30T09:42:25Z</time>
      </trkpt>
      <trkpt lat="48.54514" lon="-3.39401">
        <ele>100.11</ele>
        <time>2013-05-30T09:42:26Z</time>
      </trkpt>
      <trkpt lat="48.5452" lon="-3.39401">
        <ele>100.11</ele>
        <time>2013-05-30T09:42:27Z</time>
      </trkpt>
      <trkpt lat="48.54525" lon="-3.39403">
        <ele>99.63</ele>
        <time>2013-05-30T09:42:28Z</time>
      </trkpt>
      <trkpt lat="48.54531" lon="-3.39407">
        <ele>100.11</ele>
        <time>2013-05-30T09:42:29Z</time>
      </trkpt>
      <trkpt lat="48.54536" lon="-3.39411">
        <ele>99.15</ele>
        <time>2013-05-30T09:42:30Z</time>
      </trkpt>
      <trkpt lat="48.54565" lon="-3.39432">
        <ele>99.15</ele>
        <time>2013-05-30T09:42:35Z</time>
      </trkpt>
      <trkpt lat="48.54571" lon="-3.39435">
        <ele>98.67</ele>
        <time>2013-05-30T09:42:36Z</time>
      </trkpt>
      <trkpt lat="48.54577" lon="-3.39436">
        <ele>99.15</ele>
        <time>2013-05-30T09:42:37Z</time>
      </trkpt>
      <trkpt lat="48.54583" lon="-3.39436">
        <ele>98.67</ele>
        <time>2013-05-30T09:42:38Z</time>
      </trkpt>
      <trkpt lat="48.54589" lon="-3.39435">
        <ele>98.67</ele>
        <time>2013-05-30T09:42:39Z</time>
      </trkpt>
      <trkpt lat="48.54595" lon="-3.39434">
        <ele>99.63</ele>
        <time>2013-05-30T09:42:40Z</time>
      </trkpt>
      <trkpt lat="48.54607" lon="-3.39429">
        <ele>99.63</ele>
        <time>2013-05-30T09:42:42Z</time>
      </trkpt>
      <trkpt lat="48.54654" lon="-3.39392">
        <ele>98.67</ele>
        <time>2013-05-30T09:42:51Z</time>
      </trkpt>
      <trkpt lat="48.54684" lon="-3.39375">
        <ele>99.63</ele>
        <time>2013-05-30T09:42:57Z</time>
      </trkpt>
      <trkpt lat="48.54689" lon="-3.39375">
        <ele>99.63</ele>
        <time>2013-05-30T09:42:58Z</time>
      </trkpt>
      <trkpt lat="48.54693" lon="-3.39375">
        <ele>99.63</ele>
        <time>2013-05-30T09:42:59Z</time>
      </trkpt>
      <trkpt lat="48.54698" lon="-3.39376">
        <ele>100.11</ele>
        <time>2013-05-30T09:43:00Z</time>
      </trkpt>
      <trkpt lat="48.54703" lon="-3.39378">
        <ele>100.6</ele>
        <time>2013-05-30T09:43:01Z</time>
      </trkpt>
      <trkpt lat="48.54708" lon="-3.39381">
        <ele>101.08</ele>
        <time>2013-05-30T09:43:02Z</time>
      </trkpt>
      <trkpt lat="48.54712" lon="-3.39384">
        <ele>101.56</ele>
        <time>2013-05-30T09:43:03Z</time>
      </trkpt>
      <trkpt lat="48.54716" lon="-3.39388">
        <ele>102.04</ele>
        <time>2013-05-30T09:43:04Z</time>
      </trkpt>
      <trkpt lat="48.54778" lon="-3.3944">
        <ele>103.96</ele>
        <time>2013-05-30T09:43:18Z</time>
      </trkpt>
      <trkpt lat="48.54841" lon="-3.39495">
        <ele>103.48</ele>
        <time>2013-05-30T09:43:32Z</time>
      </trkpt>
      <trkpt lat="48.54871" lon="-3.39518">
        <ele>103.48</ele>
        <time>2013-05-30T09:43:39Z</time>
      </trkpt>
      <trkpt lat="48.54876" lon="-3.39519">
        <ele>103.48</ele>
        <time>2013-05-30T09:43:40Z</time>
      </trkpt>
      <trkpt lat="48.54881" lon="-3.3952">
        <ele>103.48</ele>
        <time>2013-05-30T09:43:41Z</time>
      </trkpt>
      <trkpt lat="48.54886" lon="-3.39519">
        <ele>103.48</ele>
        <time>2013-05-30T09:43:42Z</time>
      </trkpt>
      <trkpt lat="48.54891" lon="-3.39518">
        <ele>103.48</ele>
        <time>2013-05-30T09:43:43Z</time>
      </trkpt>
      <trkpt lat="48.54907" lon="-3.39516">
        <ele>103.96</ele>
        <time>2013-05-30T09:43:46Z</time>
      </trkpt>
      <trkpt lat="48.54912" lon="-3.39516">
        <ele>104.44</ele>
        <time>2013-05-30T09:43:47Z</time>
      </trkpt>
      <trkpt lat="48.54917" lon="-3.39515">
        <ele>103.96</ele>
        <time>2013-05-30T09:43:48Z</time>
      </trkpt>
      <trkpt lat="48.54927" lon="-3.39513">
        <ele>103.96</ele>
        <time>2013-05-30T09:43:50Z</time>
      </trkpt>
      <trkpt lat="48.54932" lon="-3.39513">
        <ele>103.96</ele>
        <time>2013-05-30T09:43:51Z</time>
      </trkpt>
      <trkpt lat="48.54965" lon="-3.39515">
        <ele>104.44</ele>
        <time>2013-05-30T09:43:57Z</time>
      </trkpt>
      <trkpt lat="48.5504" lon="-3.39528">
        <ele>103.96</ele>
        <time>2013-05-30T09:44:11Z</time>
      </trkpt>
      <trkpt lat="48.55045" lon="-3.39527">
        <ele>103.96</ele>
        <time>2013-05-30T09:44:12Z</time>
      </trkpt>
      <trkpt lat="48.55058" lon="-3.39523">
        <ele>103.96</ele>
        <time>2013-05-30T09:44:15Z</time>
      </trkpt>
      <trkpt lat="48.55063" lon="-3.3952">
        <ele>104.44</ele>
        <time>2013-05-30T09:44:16Z</time>
      </trkpt>
      <trkpt lat="48.55067" lon="-3.39518">
        <ele>103.96</ele>
        <time>2013-05-30T09:44:17Z</time>
      </trkpt>
      <trkpt lat="48.55072" lon="-3.39514">
        <ele>103.96</ele>
        <time>2013-05-30T09:44:18Z</time>
      </trkpt>
      <trkpt lat="48.55079" lon="-3.39512">
        <ele>103.96</ele>
        <time>2013-05-30T09:44:19Z</time>
      </trkpt>
      <trkpt lat="48.55085" lon="-3.39511">
        <ele>103.96</ele>
        <time>2013-05-30T09:44:20Z</time>
      </trkpt>
      <trkpt lat="48.55091" lon="-3.39511">
        <ele>103.96</ele>
        <time>2013-05-30T09:44:21Z</time>
      </trkpt>
      <trkpt lat="48.55096" lon="-3.39513">
        <ele>104.44</ele>
        <time>2013-05-30T09:44:22Z</time>
      </trkpt>
      <trkpt lat="48.55167" lon="-3.39532">
        <ele>104.92</ele>
        <time>2013-05-30T09:44:35Z</time>
      </trkpt>
      <trkpt lat="48.55231" lon="-3.39582">
        <ele>105.4</ele>
        <time>2013-05-30T09:44:48Z</time>
      </trkpt>
      <trkpt lat="48.55246" lon="-3.39595">
        <ele>105.88</ele>
        <time>2013-05-30T09:44:51Z</time>
      </trkpt>
      <trkpt lat="48.55303" lon="-3.39604">
        <ele>104.44</ele>
        <time>2013-05-30T09:45:02Z</time>
      </trkpt>
      <trkpt lat="48.55368" lon="-3.39624">
        <ele>105.4</ele>
        <time>2013-05-30T09:45:14Z</time>
      </trkpt>
      <trkpt lat="48.55395" lon="-3.39641">
        <ele>105.88</ele>
        <time>2013-05-30T09:45:19Z</time>
      </trkpt>
      <trkpt lat="48.55464" lon="-3.39702">
        <ele>105.88</ele>
        <time>2013-05-30T09:45:33Z</time>
      </trkpt>
      <trkpt lat="48.55524" lon="-3.39752">
        <ele>106.36</ele>
        <time>2013-05-30T09:45:45Z</time>
      </trkpt>
      <trkpt lat="48.55554" lon="-3.39765">
        <ele>105.88</ele>
        <time>2013-05-30T09:45:50Z</time>
      </trkpt>
      <trkpt lat="48.55573" lon="-3.39764">
        <ele>106.36</ele>
        <time>2013-05-30T09:45:53Z</time>
      </trkpt>
      <trkpt lat="48.55579" lon="-3.39762">
        <ele>106.36</ele>
        <time>2013-05-30T09:45:54Z</time>
      </trkpt>
      <trkpt lat="48.55586" lon="-3.3976">
        <ele>106.36</ele>
        <time>2013-05-30T09:45:55Z</time>
      </trkpt>
      <trkpt lat="48.55591" lon="-3.39757">
        <ele>106.36</ele>
        <time>2013-05-30T09:45:56Z</time>
      </trkpt>
      <trkpt lat="48.55596" lon="-3.39753">
        <ele>106.36</ele>
        <time>2013-05-30T09:45:57Z</time>
      </trkpt>
      <trkpt lat="48.55602" lon="-3.3975">
        <ele>106.36</ele>
        <time>2013-05-30T09:45:58Z</time>
      </trkpt>
      <trkpt lat="48.55668" lon="-3.3971">
        <ele>107.81</ele>
        <time>2013-05-30T09:46:10Z</time>
      </trkpt>
      <trkpt lat="48.55686" lon="-3.3969">
        <ele>107.81</ele>
        <time>2013-05-30T09:46:14Z</time>
      </trkpt>
      <trkpt lat="48.5569" lon="-3.39685">
        <ele>107.32</ele>
        <time>2013-05-30T09:46:15Z</time>
      </trkpt>
      <trkpt lat="48.55698" lon="-3.39674">
        <ele>107.32</ele>
        <time>2013-05-30T09:46:17Z</time>
      </trkpt>
      <trkpt lat="48.55765" lon="-3.39581">
        <ele>107.32</ele>
        <time>2013-05-30T09:46:31Z</time>
      </trkpt>
      <trkpt lat="48.55777" lon="-3.39562">
        <ele>106.84</ele>
        <time>2013-05-30T09:46:34Z</time>
      </trkpt>
      <trkpt lat="48.55781" lon="-3.39554">
        <ele>106.84</ele>
        <time>2013-05-30T09:46:35Z</time>
      </trkpt>
      <trkpt lat="48.55838" lon="-3.39446">
        <ele>105.88</ele>
        <time>2013-05-30T09:46:47Z</time>
      </trkpt>
      <trkpt lat="48.55894" lon="-3.39357">
        <ele>102.52</ele>
        <time>2013-05-30T09:46:56Z</time>
      </trkpt>
      <trkpt lat="48.55902" lon="-3.3935">
        <ele>102.52</ele>
        <time>2013-05-30T09:46:57Z</time>
      </trkpt>
      <trkpt lat="48.5591" lon="-3.39343">
        <ele>102.04</ele>
        <time>2013-05-30T09:46:58Z</time>
      </trkpt>
      <trkpt lat="48.55918" lon="-3.39338">
        <ele>103</ele>
        <time>2013-05-30T09:46:59Z</time>
      </trkpt>
      <trkpt lat="48.55927" lon="-3.39334">
        <ele>102.52</ele>
        <time>2013-05-30T09:47:00Z</time>
      </trkpt>
      <trkpt lat="48.55935" lon="-3.39331">
        <ele>101.56</ele>
        <time>2013-05-30T09:47:01Z</time>
      </trkpt>
      <trkpt lat="48.55943" lon="-3.39329">
        <ele>101.08</ele>
        <time>2013-05-30T09:47:02Z</time>
      </trkpt>
      <trkpt lat="48.5595" lon="-3.39327">
        <ele>101.08</ele>
        <time>2013-05-30T09:47:03Z</time>
      </trkpt>
      <trkpt lat="48.55958" lon="-3.39328">
        <ele>100.6</ele>
        <time>2013-05-30T09:47:04Z</time>
      </trkpt>
      <trkpt lat="48.55965" lon="-3.3933">
        <ele>101.56</ele>
        <time>2013-05-30T09:47:05Z</time>
      </trkpt>
      <trkpt lat="48.55971" lon="-3.39332">
        <ele>101.56</ele>
        <time>2013-05-30T09:47:06Z</time>
      </trkpt>
      <trkpt lat="48.55977" lon="-3.39334">
        <ele>101.56</ele>
        <time>2013-05-30T09:47:07Z</time>
      </trkpt>
      <trkpt lat="48.55982" lon="-3.39337">
        <ele>102.04</ele>
        <time>2013-05-30T09:47:08Z</time>
      </trkpt>
      <trkpt lat="48.55987" lon="-3.3934">
        <ele>102.52</ele>
        <time>2013-05-30T09:47:09Z</time>
      </trkpt>
      <trkpt lat="48.55995" lon="-3.39347">
        <ele>103</ele>
        <time>2013-05-30T09:47:11Z</time>
      </trkpt>
      <trkpt lat="48.56036" lon="-3.39383">
        <ele>105.88</ele>
        <time>2013-05-30T09:47:22Z</time>
      </trkpt>
      <trkpt lat="48.56084" lon="-3.39417">
        <ele>109.25</ele>
        <time>2013-05-30T09:47:35Z</time>
      </trkpt>
      <trkpt lat="48.56139" lon="-3.39432">
        <ele>112.13</ele>
        <time>2013-05-30T09:47:47Z</time>
      </trkpt>
      <trkpt lat="48.56143" lon="-3.39436">
        <ele>112.13</ele>
        <time>2013-05-30T09:47:48Z</time>
      </trkpt>
      <trkpt lat="48.56148" lon="-3.3944">
        <ele>112.61</ele>
        <time>2013-05-30T09:47:49Z</time>
      </trkpt>
      <trkpt lat="48.56191" lon="-3.39493">
        <ele>115.98</ele>
        <time>2013-05-30T09:48:02Z</time>
      </trkpt>
      <trkpt lat="48.56208" lon="-3.3952">
        <ele>116.94</ele>
        <time>2013-05-30T09:48:08Z</time>
      </trkpt>
      <trkpt lat="48.56211" lon="-3.39525">
        <ele>116.94</ele>
        <time>2013-05-30T09:48:09Z</time>
      </trkpt>
      <trkpt lat="48.56253" lon="-3.39565">
        <ele>119.82</ele>
        <time>2013-05-30T09:48:22Z</time>
      </trkpt>
      <trkpt lat="48.563" lon="-3.3957">
        <ele>122.71</ele>
        <time>2013-05-30T09:48:34Z</time>
      </trkpt>
      <trkpt lat="48.56366" lon="-3.39556">
        <ele>125.59</ele>
        <time>2013-05-30T09:48:50Z</time>
      </trkpt>
      <trkpt lat="48.56434" lon="-3.39546">
        <ele>128.95</ele>
        <time>2013-05-30T09:49:07Z</time>
      </trkpt>
      <trkpt lat="48.5645" lon="-3.39542">
        <ele>128.95</ele>
        <time>2013-05-30T09:49:11Z</time>
      </trkpt>
      <trkpt lat="48.56473" lon="-3.39524">
        <ele>130.4</ele>
        <time>2013-05-30T09:49:18Z</time>
      </trkpt>
      <trkpt lat="48.56501" lon="-3.39488">
        <ele>132.8</ele>
        <time>2013-05-30T09:49:28Z</time>
      </trkpt>
      <trkpt lat="48.56504" lon="-3.39485">
        <ele>132.8</ele>
        <time>2013-05-30T09:49:29Z</time>
      </trkpt>
      <trkpt lat="48.56556" lon="-3.39453">
        <ele>136.16</ele>
        <time>2013-05-30T09:49:43Z</time>
      </trkpt>
      <trkpt lat="48.56568" lon="-3.39447">
        <ele>136.64</ele>
        <time>2013-05-30T09:49:46Z</time>
      </trkpt>
      <trkpt lat="48.56605" lon="-3.39425">
        <ele>139.53</ele>
        <time>2013-05-30T09:49:56Z</time>
      </trkpt>
      <trkpt lat="48.56651" lon="-3.394">
        <ele>142.41</ele>
        <time>2013-05-30T09:50:08Z</time>
      </trkpt>
      <trkpt lat="48.56655" lon="-3.394">
        <ele>142.41</ele>
        <time>2013-05-30T09:50:09Z</time>
      </trkpt>
      <trkpt lat="48.56671" lon="-3.39404">
        <ele>143.37</ele>
        <time>2013-05-30T09:50:13Z</time>
      </trkpt>
      <trkpt lat="48.56683" lon="-3.39412">
        <ele>143.85</ele>
        <time>2013-05-30T09:50:16Z</time>
      </trkpt>
      <trkpt lat="48.56693" lon="-3.39423">
        <ele>144.82</ele>
        <time>2013-05-30T09:50:19Z</time>
      </trkpt>
      <trkpt lat="48.56696" lon="-3.39427">
        <ele>144.82</ele>
        <time>2013-05-30T09:50:20Z</time>
      </trkpt>
      <trkpt lat="48.56699" lon="-3.39432">
        <ele>145.3</ele>
        <time>2013-05-30T09:50:21Z</time>
      </trkpt>
      <trkpt lat="48.56718" lon="-3.39499">
        <ele>148.18</ele>
        <time>2013-05-30T09:50:33Z</time>
      </trkpt>
      <trkpt lat="48.56729" lon="-3.39565">
        <ele>151.06</ele>
        <time>2013-05-30T09:50:44Z</time>
      </trkpt>
      <trkpt lat="48.56768" lon="-3.39631">
        <ele>153.47</ele>
        <time>2013-05-30T09:50:59Z</time>
      </trkpt>
      <trkpt lat="48.56772" lon="-3.39633">
        <ele>153.95</ele>
        <time>2013-05-30T09:51:00Z</time>
      </trkpt>
      <trkpt lat="48.56776" lon="-3.39635">
        <ele>153.47</ele>
        <time>2013-05-30T09:51:01Z</time>
      </trkpt>
      <trkpt lat="48.5678" lon="-3.39636">
        <ele>153.95</ele>
        <time>2013-05-30T09:51:02Z</time>
      </trkpt>
      <trkpt lat="48.56784" lon="-3.39637">
        <ele>153.95</ele>
        <time>2013-05-30T09:51:03Z</time>
      </trkpt>
      <trkpt lat="48.56837" lon="-3.3962">
        <ele>156.83</ele>
        <time>2013-05-30T09:51:17Z</time>
      </trkpt>
      <trkpt lat="48.56871" lon="-3.39599">
        <ele>158.75</ele>
        <time>2013-05-30T09:51:26Z</time>
      </trkpt>
      <trkpt lat="48.56878" lon="-3.39594">
        <ele>159.72</ele>
        <time>2013-05-30T09:51:28Z</time>
      </trkpt>
      <trkpt lat="48.569" lon="-3.39581">
        <ele>160.2</ele>
        <time>2013-05-30T09:51:34Z</time>
      </trkpt>
      <trkpt lat="48.56945" lon="-3.39554">
        <ele>163.56</ele>
        <time>2013-05-30T09:51:46Z</time>
      </trkpt>
      <trkpt lat="48.5696" lon="-3.39544">
        <ele>164.52</ele>
        <time>2013-05-30T09:51:50Z</time>
      </trkpt>
      <trkpt lat="48.5701" lon="-3.39513">
        <ele>167.41</ele>
        <time>2013-05-30T09:52:03Z</time>
      </trkpt>
      <trkpt lat="48.57066" lon="-3.39486">
        <ele>169.81</ele>
        <time>2013-05-30T09:52:18Z</time>
      </trkpt>
      <trkpt lat="48.57116" lon="-3.39485">
        <ele>173.17</ele>
        <time>2013-05-30T09:52:30Z</time>
      </trkpt>
      <trkpt lat="48.57142" lon="-3.39481">
        <ele>174.62</ele>
        <time>2013-05-30T09:52:36Z</time>
      </trkpt>
      <trkpt lat="48.57146" lon="-3.39478">
        <ele>175.1</ele>
        <time>2013-05-30T09:52:37Z</time>
      </trkpt>
      <trkpt lat="48.57149" lon="-3.39474">
        <ele>175.1</ele>
        <time>2013-05-30T09:52:38Z</time>
      </trkpt>
      <trkpt lat="48.57152" lon="-3.3947">
        <ele>175.58</ele>
        <time>2013-05-30T09:52:39Z</time>
      </trkpt>
      <trkpt lat="48.57155" lon="-3.39466">
        <ele>175.58</ele>
        <time>2013-05-30T09:52:40Z</time>
      </trkpt>
      <trkpt lat="48.57158" lon="-3.39461">
        <ele>176.06</ele>
        <time>2013-05-30T09:52:41Z</time>
      </trkpt>
      <trkpt lat="48.57161" lon="-3.39457">
        <ele>177.02</ele>
        <time>2013-05-30T09:52:42Z</time>
      </trkpt>
      <trkpt lat="48.57164" lon="-3.39452">
        <ele>176.54</ele>
        <time>2013-05-30T09:52:43Z</time>
      </trkpt>
      <trkpt lat="48.57169" lon="-3.39443">
        <ele>177.5</ele>
        <time>2013-05-30T09:52:45Z</time>
      </trkpt>
      <trkpt lat="48.57184" lon="-3.39414">
        <ele>178.46</ele>
        <time>2013-05-30T09:52:51Z</time>
      </trkpt>
      <trkpt lat="48.57221" lon="-3.39343">
        <ele>181.35</ele>
        <time>2013-05-30T09:53:05Z</time>
      </trkpt>
      <trkpt lat="48.57253" lon="-3.39278">
        <ele>184.23</ele>
        <time>2013-05-30T09:53:18Z</time>
      </trkpt>
      <trkpt lat="48.57255" lon="-3.39273">
        <ele>184.71</ele>
        <time>2013-05-30T09:53:19Z</time>
      </trkpt>
      <trkpt lat="48.57257" lon="-3.39267">
        <ele>184.71</ele>
        <time>2013-05-30T09:53:20Z</time>
      </trkpt>
      <trkpt lat="48.57268" lon="-3.39212">
        <ele>188.08</ele>
        <time>2013-05-30T09:53:30Z</time>
      </trkpt>
      <trkpt lat="48.5728" lon="-3.39119">
        <ele>190</ele>
        <time>2013-05-30T09:53:45Z</time>
      </trkpt>
      <trkpt lat="48.57282" lon="-3.39113">
        <ele>190.48</ele>
        <time>2013-05-30T09:53:46Z</time>
      </trkpt>
      <trkpt lat="48.57284" lon="-3.39108">
        <ele>190.48</ele>
        <time>2013-05-30T09:53:47Z</time>
      </trkpt>
      <trkpt lat="48.57287" lon="-3.39103">
        <ele>190.96</ele>
        <time>2013-05-30T09:53:48Z</time>
      </trkpt>
      <trkpt lat="48.5729" lon="-3.39098">
        <ele>190.96</ele>
        <time>2013-05-30T09:53:49Z</time>
      </trkpt>
      <trkpt lat="48.57294" lon="-3.39094">
        <ele>191.92</ele>
        <time>2013-05-30T09:53:50Z</time>
      </trkpt>
      <trkpt lat="48.57297" lon="-3.3909">
        <ele>191.44</ele>
        <time>2013-05-30T09:53:51Z</time>
      </trkpt>
      <trkpt lat="48.57301" lon="-3.39087">
        <ele>191.44</ele>
        <time>2013-05-30T09:53:52Z</time>
      </trkpt>
      <trkpt lat="48.57306" lon="-3.39086">
        <ele>191.92</ele>
        <time>2013-05-30T09:53:53Z</time>
      </trkpt>
      <trkpt lat="48.5731" lon="-3.39086">
        <ele>191.92</ele>
        <time>2013-05-30T09:53:54Z</time>
      </trkpt>
      <trkpt lat="48.57315" lon="-3.39087">
        <ele>191.92</ele>
        <time>2013-05-30T09:53:55Z</time>
      </trkpt>
      <trkpt lat="48.57319" lon="-3.39089">
        <ele>191.92</ele>
        <time>2013-05-30T09:53:56Z</time>
      </trkpt>
      <trkpt lat="48.57324" lon="-3.39091">
        <ele>192.4</ele>
        <time>2013-05-30T09:53:57Z</time>
      </trkpt>
      <trkpt lat="48.57333" lon="-3.39096">
        <ele>191.92</ele>
        <time>2013-05-30T09:53:59Z</time>
      </trkpt>
      <trkpt lat="48.5736" lon="-3.39112">
        <ele>192.4</ele>
        <time>2013-05-30T09:54:05Z</time>
      </trkpt>
      <trkpt lat="48.57387" lon="-3.39124">
        <ele>192.4</ele>
        <time>2013-05-30T09:54:10Z</time>
      </trkpt>
      <trkpt lat="48.57392" lon="-3.39127">
        <ele>192.88</ele>
        <time>2013-05-30T09:54:11Z</time>
      </trkpt>
      <trkpt lat="48.57401" lon="-3.39132">
        <ele>192.88</ele>
        <time>2013-05-30T09:54:13Z</time>
      </trkpt>
      <trkpt lat="48.57406" lon="-3.39136">
        <ele>192.88</ele>
        <time>2013-05-30T09:54:14Z</time>
      </trkpt>
      <trkpt lat="48.57441" lon="-3.39152">
        <ele>191.44</ele>
        <time>2013-05-30T09:54:21Z</time>
      </trkpt>
      <trkpt lat="48.57501" lon="-3.39184">
        <ele>190.48</ele>
        <time>2013-05-30T09:54:31Z</time>
      </trkpt>
      <trkpt lat="48.57518" lon="-3.3919">
        <ele>190.48</ele>
        <time>2013-05-30T09:54:34Z</time>
      </trkpt>
      <trkpt lat="48.57579" lon="-3.3923">
        <ele>190</ele>
        <time>2013-05-30T09:54:44Z</time>
      </trkpt>
      <trkpt lat="48.5766" lon="-3.39278">
        <ele>188.56</ele>
        <time>2013-05-30T09:54:56Z</time>
      </trkpt>
      <trkpt lat="48.57755" lon="-3.39331">
        <ele>188.56</ele>
        <time>2013-05-30T09:55:10Z</time>
      </trkpt>
      <trkpt lat="48.57796" lon="-3.39351">
        <ele>189.04</ele>
        <time>2013-05-30T09:55:16Z</time>
      </trkpt>
      <trkpt lat="48.57821" lon="-3.39362">
        <ele>187.59</ele>
        <time>2013-05-30T09:55:20Z</time>
      </trkpt>
      <trkpt lat="48.57881" lon="-3.39386">
        <ele>187.11</ele>
        <time>2013-05-30T09:55:30Z</time>
      </trkpt>
      <trkpt lat="48.57973" lon="-3.39426">
        <ele>185.19</ele>
        <time>2013-05-30T09:55:44Z</time>
      </trkpt>
      <trkpt lat="48.58066" lon="-3.39458">
        <ele>183.27</ele>
        <time>2013-05-30T09:55:57Z</time>
      </trkpt>
      <trkpt lat="48.58081" lon="-3.39464">
        <ele>182.79</ele>
        <time>2013-05-30T09:55:59Z</time>
      </trkpt>
      <trkpt lat="48.58176" lon="-3.39511">
        <ele>181.35</ele>
        <time>2013-05-30T09:56:13Z</time>
      </trkpt>
      <trkpt lat="48.58273" lon="-3.39581">
        <ele>180.38</ele>
        <time>2013-05-30T09:56:27Z</time>
      </trkpt>
      <trkpt lat="48.58289" lon="-3.39599">
        <ele>179.9</ele>
        <time>2013-05-30T09:56:30Z</time>
      </trkpt>
      <trkpt lat="48.58294" lon="-3.39605">
        <ele>179.42</ele>
        <time>2013-05-30T09:56:31Z</time>
      </trkpt>
      <trkpt lat="48.58328" lon="-3.39641">
        <ele>178.46</ele>
        <time>2013-05-30T09:56:37Z</time>
      </trkpt>
      <trkpt lat="48.58333" lon="-3.39649">
        <ele>177.98</ele>
        <time>2013-05-30T09:56:38Z</time>
      </trkpt>
      <trkpt lat="48.58338" lon="-3.39658">
        <ele>177.98</ele>
        <time>2013-05-30T09:56:39Z</time>
      </trkpt>
      <trkpt lat="48.5836" lon="-3.39707">
        <ele>177.02</ele>
        <time>2013-05-30T09:56:44Z</time>
      </trkpt>
      <trkpt lat="48.58365" lon="-3.39718">
        <ele>177.02</ele>
        <time>2013-05-30T09:56:45Z</time>
      </trkpt>
      <trkpt lat="48.5838" lon="-3.3975">
        <ele>175.1</ele>
        <time>2013-05-30T09:56:48Z</time>
      </trkpt>
      <trkpt lat="48.5843" lon="-3.3987">
        <ele>171.73</ele>
        <time>2013-05-30T09:56:59Z</time>
      </trkpt>
      <trkpt lat="48.58458" lon="-3.39912">
        <ele>169.33</ele>
        <time>2013-05-30T09:57:04Z</time>
      </trkpt>
      <trkpt lat="48.58536" lon="-3.40021">
        <ele>166.45</ele>
        <time>2013-05-30T09:57:16Z</time>
      </trkpt>
      <trkpt lat="48.58554" lon="-3.4007">
        <ele>164.04</ele>
        <time>2013-05-30T09:57:20Z</time>
      </trkpt>
      <trkpt lat="48.58589" lon="-3.40176">
        <ele>163.08</ele>
        <time>2013-05-30T09:57:29Z</time>
      </trkpt>
      <trkpt lat="48.58594" lon="-3.40185">
        <ele>162.6</ele>
        <time>2013-05-30T09:57:30Z</time>
      </trkpt>
      <trkpt lat="48.58601" lon="-3.40192">
        <ele>162.6</ele>
        <time>2013-05-30T09:57:31Z</time>
      </trkpt>
      <trkpt lat="48.58608" lon="-3.40197">
        <ele>162.12</ele>
        <time>2013-05-30T09:57:32Z</time>
      </trkpt>
      <trkpt lat="48.58615" lon="-3.40199">
        <ele>161.16</ele>
        <time>2013-05-30T09:57:33Z</time>
      </trkpt>
      <trkpt lat="48.58622" lon="-3.40198">
        <ele>160.2</ele>
        <time>2013-05-30T09:57:34Z</time>
      </trkpt>
      <trkpt lat="48.5863" lon="-3.40195">
        <ele>160.2</ele>
        <time>2013-05-30T09:57:35Z</time>
      </trkpt>
      <trkpt lat="48.58636" lon="-3.40191">
        <ele>160.2</ele>
        <time>2013-05-30T09:57:36Z</time>
      </trkpt>
      <trkpt lat="48.58643" lon="-3.40186">
        <ele>160.68</ele>
        <time>2013-05-30T09:57:37Z</time>
      </trkpt>
      <trkpt lat="48.58649" lon="-3.4018">
        <ele>160.2</ele>
        <time>2013-05-30T09:57:38Z</time>
      </trkpt>
      <trkpt lat="48.587" lon="-3.40136">
        <ele>158.27</ele>
        <time>2013-05-30T09:57:46Z</time>
      </trkpt>
      <trkpt lat="48.58761" lon="-3.40117">
        <ele>157.79</ele>
        <time>2013-05-30T09:57:54Z</time>
      </trkpt>
      <trkpt lat="48.58769" lon="-3.4012">
        <ele>158.27</ele>
        <time>2013-05-30T09:57:55Z</time>
      </trkpt>
      <trkpt lat="48.58777" lon="-3.40123">
        <ele>157.79</ele>
        <time>2013-05-30T09:57:56Z</time>
      </trkpt>
      <trkpt lat="48.58784" lon="-3.40127">
        <ele>157.79</ele>
        <time>2013-05-30T09:57:57Z</time>
      </trkpt>
      <trkpt lat="48.58792" lon="-3.40132">
        <ele>157.31</ele>
        <time>2013-05-30T09:57:58Z</time>
      </trkpt>
      <trkpt lat="48.58887" lon="-3.40164">
        <ele>155.39</ele>
        <time>2013-05-30T09:58:10Z</time>
      </trkpt>
      <trkpt lat="48.58985" lon="-3.4015">
        <ele>152.51</ele>
        <time>2013-05-30T09:58:22Z</time>
      </trkpt>
      <trkpt lat="48.59084" lon="-3.40142">
        <ele>150.1</ele>
        <time>2013-05-30T09:58:34Z</time>
      </trkpt>
      <trkpt lat="48.59092" lon="-3.40144">
        <ele>151.06</ele>
        <time>2013-05-30T09:58:35Z</time>
      </trkpt>
      <trkpt lat="48.59154" lon="-3.4017">
        <ele>148.66</ele>
        <time>2013-05-30T09:58:43Z</time>
      </trkpt>
      <trkpt lat="48.59163" lon="-3.40172">
        <ele>148.66</ele>
        <time>2013-05-30T09:58:44Z</time>
      </trkpt>
      <trkpt lat="48.59172" lon="-3.40172">
        <ele>148.18</ele>
        <time>2013-05-30T09:58:45Z</time>
      </trkpt>
      <trkpt lat="48.5918" lon="-3.40171">
        <ele>148.18</ele>
        <time>2013-05-30T09:58:46Z</time>
      </trkpt>
      <trkpt lat="48.59188" lon="-3.40169">
        <ele>148.18</ele>
        <time>2013-05-30T09:58:47Z</time>
      </trkpt>
      <trkpt lat="48.59195" lon="-3.40166">
        <ele>147.7</ele>
        <time>2013-05-30T09:58:48Z</time>
      </trkpt>
      <trkpt lat="48.59203" lon="-3.40163">
        <ele>148.18</ele>
        <time>2013-05-30T09:58:49Z</time>
      </trkpt>
      <trkpt lat="48.59295" lon="-3.40127">
        <ele>148.18</ele>
        <time>2013-05-30T09:59:02Z</time>
      </trkpt>
      <trkpt lat="48.59338" lon="-3.40119">
        <ele>149.14</ele>
        <time>2013-05-30T09:59:09Z</time>
      </trkpt>
      <trkpt lat="48.59412" lon="-3.40111">
        <ele>147.22</ele>
        <time>2013-05-30T09:59:19Z</time>
      </trkpt>
      <trkpt lat="48.59486" lon="-3.4012">
        <ele>143.85</ele>
        <time>2013-05-30T09:59:27Z</time>
      </trkpt>
      <trkpt lat="48.59507" lon="-3.40121">
        <ele>142.89</ele>
        <time>2013-05-30T09:59:29Z</time>
      </trkpt>
      <trkpt lat="48.5956" lon="-3.40122">
        <ele>139.53</ele>
        <time>2013-05-30T09:59:34Z</time>
      </trkpt>
      <trkpt lat="48.59622" lon="-3.40139">
        <ele>135.68</ele>
        <time>2013-05-30T09:59:40Z</time>
      </trkpt>
      <trkpt lat="48.59632" lon="-3.40141">
        <ele>135.68</ele>
        <time>2013-05-30T09:59:41Z</time>
      </trkpt>
      <trkpt lat="48.59674" lon="-3.40147">
        <ele>132.8</ele>
        <time>2013-05-30T09:59:45Z</time>
      </trkpt>
      <trkpt lat="48.59714" lon="-3.40158">
        <ele>129.43</ele>
        <time>2013-05-30T09:59:49Z</time>
      </trkpt>
      <trkpt lat="48.59742" lon="-3.40174">
        <ele>126.07</ele>
        <time>2013-05-30T09:59:52Z</time>
      </trkpt>
      <trkpt lat="48.59779" lon="-3.40192">
        <ele>125.59</ele>
        <time>2013-05-30T09:59:56Z</time>
      </trkpt>
      <trkpt lat="48.59788" lon="-3.40194">
        <ele>124.63</ele>
        <time>2013-05-30T09:59:57Z</time>
      </trkpt>
      <trkpt lat="48.59806" lon="-3.40199">
        <ele>125.11</ele>
        <time>2013-05-30T09:59:59Z</time>
      </trkpt>
      <trkpt lat="48.59814" lon="-3.40204">
        <ele>124.63</ele>
        <time>2013-05-30T10:00:00Z</time>
      </trkpt>
      <trkpt lat="48.59821" lon="-3.40211">
        <ele>123.67</ele>
        <time>2013-05-30T10:00:01Z</time>
      </trkpt>
      <trkpt lat="48.59827" lon="-3.4022">
        <ele>123.67</ele>
        <time>2013-05-30T10:00:02Z</time>
      </trkpt>
      <trkpt lat="48.59833" lon="-3.4023">
        <ele>123.19</ele>
        <time>2013-05-30T10:00:03Z</time>
      </trkpt>
      <trkpt lat="48.59839" lon="-3.4024">
        <ele>122.71</ele>
        <time>2013-05-30T10:00:04Z</time>
      </trkpt>
      <trkpt lat="48.59843" lon="-3.40251">
        <ele>121.74</ele>
        <time>2013-05-30T10:00:05Z</time>
      </trkpt>
      <trkpt lat="48.59846" lon="-3.40262">
        <ele>121.74</ele>
        <time>2013-05-30T10:00:06Z</time>
      </trkpt>
      <trkpt lat="48.59864" lon="-3.40326">
        <ele>120.3</ele>
        <time>2013-05-30T10:00:12Z</time>
      </trkpt>
      <trkpt lat="48.59869" lon="-3.40334">
        <ele>120.3</ele>
        <time>2013-05-30T10:00:13Z</time>
      </trkpt>
      <trkpt lat="48.59875" lon="-3.40342">
        <ele>120.78</ele>
        <time>2013-05-30T10:00:14Z</time>
      </trkpt>
      <trkpt lat="48.59897" lon="-3.40368">
        <ele>119.34</ele>
        <time>2013-05-30T10:00:18Z</time>
      </trkpt>
      <trkpt lat="48.59903" lon="-3.40374">
        <ele>119.34</ele>
        <time>2013-05-30T10:00:19Z</time>
      </trkpt>
      <trkpt lat="48.59963" lon="-3.40443">
        <ele>118.38</ele>
        <time>2013-05-30T10:00:31Z</time>
      </trkpt>
      <trkpt lat="48.59974" lon="-3.40455">
        <ele>116.94</ele>
        <time>2013-05-30T10:00:35Z</time>
      </trkpt>
      <trkpt lat="48.60002" lon="-3.40458">
        <ele>115.98</ele>
        <time>2013-05-30T10:00:46Z</time>
      </trkpt>
      <trkpt lat="48.60016" lon="-3.40459">
        <ele>115.98</ele>
        <time>2013-05-30T10:00:50Z</time>
      </trkpt>
      <trkpt lat="48.60021" lon="-3.4046">
        <ele>116.46</ele>
        <time>2013-05-30T10:00:51Z</time>
      </trkpt>
      <trkpt lat="48.60026" lon="-3.4046">
        <ele>116.94</ele>
        <time>2013-05-30T10:00:52Z</time>
      </trkpt>
      <trkpt lat="48.60031" lon="-3.40459">
        <ele>116.46</ele>
        <time>2013-05-30T10:00:53Z</time>
      </trkpt>
      <trkpt lat="48.60037" lon="-3.40458">
        <ele>116.46</ele>
        <time>2013-05-30T10:00:54Z</time>
      </trkpt>
      <trkpt lat="48.60043" lon="-3.40456">
        <ele>115.98</ele>
        <time>2013-05-30T10:00:55Z</time>
      </trkpt>
      <trkpt lat="48.60047" lon="-3.40452">
        <ele>115.98</ele>
        <time>2013-05-30T10:00:56Z</time>
      </trkpt>
      <trkpt lat="48.60051" lon="-3.40446">
        <ele>115.98</ele>
        <time>2013-05-30T10:00:57Z</time>
      </trkpt>
      <trkpt lat="48.60053" lon="-3.40439">
        <ele>115.98</ele>
        <time>2013-05-30T10:00:58Z</time>
      </trkpt>
      <trkpt lat="48.60055" lon="-3.40432">
        <ele>115.98</ele>
        <time>2013-05-30T10:00:59Z</time>
      </trkpt>
      <trkpt lat="48.60056" lon="-3.40424">
        <ele>116.46</ele>
        <time>2013-05-30T10:01:00Z</time>
      </trkpt>
      <trkpt lat="48.60055" lon="-3.40415">
        <ele>115.98</ele>
        <time>2013-05-30T10:01:01Z</time>
      </trkpt>
      <trkpt lat="48.60054" lon="-3.40407">
        <ele>116.46</ele>
        <time>2013-05-30T10:01:02Z</time>
      </trkpt>
      <trkpt lat="48.60034" lon="-3.40284">
        <ele>116.46</ele>
        <time>2013-05-30T10:01:16Z</time>
      </trkpt>
      <trkpt lat="48.60035" lon="-3.40275">
        <ele>116.46</ele>
        <time>2013-05-30T10:01:17Z</time>
      </trkpt>
      <trkpt lat="48.60036" lon="-3.40265">
        <ele>116.46</ele>
        <time>2013-05-30T10:01:18Z</time>
      </trkpt>
      <trkpt lat="48.60042" lon="-3.40245">
        <ele>115.98</ele>
        <time>2013-05-30T10:01:20Z</time>
      </trkpt>
      <trkpt lat="48.60047" lon="-3.40236">
        <ele>115.5</ele>
        <time>2013-05-30T10:01:21Z</time>
      </trkpt>
      <trkpt lat="48.60052" lon="-3.40228">
        <ele>115.01</ele>
        <time>2013-05-30T10:01:22Z</time>
      </trkpt>
      <trkpt lat="48.60058" lon="-3.4022">
        <ele>115.01</ele>
        <time>2013-05-30T10:01:23Z</time>
      </trkpt>
      <trkpt lat="48.60064" lon="-3.40213">
        <ele>114.53</ele>
        <time>2013-05-30T10:01:24Z</time>
      </trkpt>
      <trkpt lat="48.60071" lon="-3.40207">
        <ele>114.05</ele>
        <time>2013-05-30T10:01:25Z</time>
      </trkpt>
      <trkpt lat="48.60129" lon="-3.40173">
        <ele>112.13</ele>
        <time>2013-05-30T10:01:32Z</time>
      </trkpt>
      <trkpt lat="48.60138" lon="-3.40169">
        <ele>112.13</ele>
        <time>2013-05-30T10:01:33Z</time>
      </trkpt>
      <trkpt lat="48.60155" lon="-3.4016">
        <ele>110.69</ele>
        <time>2013-05-30T10:01:35Z</time>
      </trkpt>
      <trkpt lat="48.60183" lon="-3.40146">
        <ele>109.25</ele>
        <time>2013-05-30T10:01:38Z</time>
      </trkpt>
      <trkpt lat="48.60192" lon="-3.40143">
        <ele>108.29</ele>
        <time>2013-05-30T10:01:39Z</time>
      </trkpt>
      <trkpt lat="48.60202" lon="-3.40142">
        <ele>107.32</ele>
        <time>2013-05-30T10:01:40Z</time>
      </trkpt>
      <trkpt lat="48.60212" lon="-3.40141">
        <ele>107.32</ele>
        <time>2013-05-30T10:01:41Z</time>
      </trkpt>
      <trkpt lat="48.60221" lon="-3.40142">
        <ele>106.84</ele>
        <time>2013-05-30T10:01:42Z</time>
      </trkpt>
      <trkpt lat="48.6023" lon="-3.40145">
        <ele>105.88</ele>
        <time>2013-05-30T10:01:43Z</time>
      </trkpt>
      <trkpt lat="48.60239" lon="-3.40149">
        <ele>106.36</ele>
        <time>2013-05-30T10:01:44Z</time>
      </trkpt>
      <trkpt lat="48.60248" lon="-3.40154">
        <ele>105.88</ele>
        <time>2013-05-30T10:01:45Z</time>
      </trkpt>
      <trkpt lat="48.60276" lon="-3.40169">
        <ele>102.04</ele>
        <time>2013-05-30T10:01:48Z</time>
      </trkpt>
      <trkpt lat="48.60285" lon="-3.40173">
        <ele>101.08</ele>
        <time>2013-05-30T10:01:49Z</time>
      </trkpt>
      <trkpt lat="48.60305" lon="-3.40177">
        <ele>98.67</ele>
        <time>2013-05-30T10:01:51Z</time>
      </trkpt>
      <trkpt lat="48.60314" lon="-3.40177">
        <ele>97.71</ele>
        <time>2013-05-30T10:01:52Z</time>
      </trkpt>
      <trkpt lat="48.60324" lon="-3.40175">
        <ele>96.75</ele>
        <time>2013-05-30T10:01:53Z</time>
      </trkpt>
      <trkpt lat="48.60333" lon="-3.40172">
        <ele>96.75</ele>
        <time>2013-05-30T10:01:54Z</time>
      </trkpt>
      <trkpt lat="48.60342" lon="-3.40165">
        <ele>95.31</ele>
        <time>2013-05-30T10:01:55Z</time>
      </trkpt>
      <trkpt lat="48.60351" lon="-3.40156">
        <ele>94.83</ele>
        <time>2013-05-30T10:01:56Z</time>
      </trkpt>
      <trkpt lat="48.60378" lon="-3.40129">
        <ele>91.94</ele>
        <time>2013-05-30T10:01:59Z</time>
      </trkpt>
      <trkpt lat="48.60388" lon="-3.40122">
        <ele>91.94</ele>
        <time>2013-05-30T10:02:00Z</time>
      </trkpt>
      <trkpt lat="48.6042" lon="-3.40102">
        <ele>90.02</ele>
        <time>2013-05-30T10:02:03Z</time>
      </trkpt>
      <trkpt lat="48.60472" lon="-3.40075">
        <ele>90.02</ele>
        <time>2013-05-30T10:02:09Z</time>
      </trkpt>
      <trkpt lat="48.60478" lon="-3.40075">
        <ele>90.5</ele>
        <time>2013-05-30T10:02:10Z</time>
      </trkpt>
      <trkpt lat="48.60484" lon="-3.40076">
        <ele>90.98</ele>
        <time>2013-05-30T10:02:11Z</time>
      </trkpt>
      <trkpt lat="48.60488" lon="-3.40077">
        <ele>91.46</ele>
        <time>2013-05-30T10:02:12Z</time>
      </trkpt>
      <trkpt lat="48.60492" lon="-3.40079">
        <ele>91.94</ele>
        <time>2013-05-30T10:02:13Z</time>
      </trkpt>
      <trkpt lat="48.60496" lon="-3.4008">
        <ele>92.42</ele>
        <time>2013-05-30T10:02:14Z</time>
      </trkpt>
      <trkpt lat="48.60499" lon="-3.40083">
        <ele>92.9</ele>
        <time>2013-05-30T10:02:15Z</time>
      </trkpt>
      <trkpt lat="48.60502" lon="-3.40086">
        <ele>93.39</ele>
        <time>2013-05-30T10:02:16Z</time>
      </trkpt>
      <trkpt lat="48.60505" lon="-3.40089">
        <ele>93.87</ele>
        <time>2013-05-30T10:02:17Z</time>
      </trkpt>
      <trkpt lat="48.60508" lon="-3.40092">
        <ele>93.87</ele>
        <time>2013-05-30T10:02:18Z</time>
      </trkpt>
      <trkpt lat="48.60511" lon="-3.40095">
        <ele>93.87</ele>
        <time>2013-05-30T10:02:19Z</time>
      </trkpt>
      <trkpt lat="48.60538" lon="-3.40124">
        <ele>97.23</ele>
        <time>2013-05-30T10:02:29Z</time>
      </trkpt>
      <trkpt lat="48.60545" lon="-3.40128">
        <ele>98.19</ele>
        <time>2013-05-30T10:02:31Z</time>
      </trkpt>
      <trkpt lat="48.6058" lon="-3.40146">
        <ele>100.11</ele>
        <time>2013-05-30T10:02:40Z</time>
      </trkpt>
      <trkpt lat="48.60589" lon="-3.40148">
        <ele>100.11</ele>
        <time>2013-05-30T10:02:42Z</time>
      </trkpt>
      <trkpt lat="48.60598" lon="-3.40148">
        <ele>100.11</ele>
        <time>2013-05-30T10:02:44Z</time>
      </trkpt>
      <trkpt lat="48.60603" lon="-3.4015">
        <ele>100.11</ele>
        <time>2013-05-30T10:02:45Z</time>
      </trkpt>
      <trkpt lat="48.60607" lon="-3.40152">
        <ele>100.11</ele>
        <time>2013-05-30T10:02:46Z</time>
      </trkpt>
      <trkpt lat="48.6062" lon="-3.4016">
        <ele>100.11</ele>
        <time>2013-05-30T10:02:49Z</time>
      </trkpt>
      <trkpt lat="48.60624" lon="-3.40164">
        <ele>100.11</ele>
        <time>2013-05-30T10:02:50Z</time>
      </trkpt>
      <trkpt lat="48.60628" lon="-3.40168">
        <ele>100.11</ele>
        <time>2013-05-30T10:02:51Z</time>
      </trkpt>
      <trkpt lat="48.60631" lon="-3.40172">
        <ele>100.11</ele>
        <time>2013-05-30T10:02:52Z</time>
      </trkpt>
      <trkpt lat="48.60633" lon="-3.40178">
        <ele>100.11</ele>
        <time>2013-05-30T10:02:53Z</time>
      </trkpt>
      <trkpt lat="48.60636" lon="-3.40187">
        <ele>99.63</ele>
        <time>2013-05-30T10:02:54Z</time>
      </trkpt>
      <trkpt lat="48.60638" lon="-3.40197">
        <ele>99.15</ele>
        <time>2013-05-30T10:02:55Z</time>
      </trkpt>
      <trkpt lat="48.6064" lon="-3.40207">
        <ele>99.15</ele>
        <time>2013-05-30T10:02:56Z</time>
      </trkpt>
      <trkpt lat="48.60658" lon="-3.40287">
        <ele>99.15</ele>
        <time>2013-05-30T10:03:05Z</time>
      </trkpt>
      <trkpt lat="48.60703" lon="-3.40367">
        <ele>99.15</ele>
        <time>2013-05-30T10:03:17Z</time>
      </trkpt>
      <trkpt lat="48.60757" lon="-3.40449">
        <ele>98.19</ele>
        <time>2013-05-30T10:03:30Z</time>
      </trkpt>
      <trkpt lat="48.6076" lon="-3.40458">
        <ele>98.19</ele>
        <time>2013-05-30T10:03:31Z</time>
      </trkpt>
      <trkpt lat="48.60792" lon="-3.40577">
        <ele>95.79</ele>
        <time>2013-05-30T10:03:44Z</time>
      </trkpt>
      <trkpt lat="48.6083" lon="-3.40675">
        <ele>92.9</ele>
        <time>2013-05-30T10:03:54Z</time>
      </trkpt>
      <trkpt lat="48.60834" lon="-3.40687">
        <ele>92.42</ele>
        <time>2013-05-30T10:03:55Z</time>
      </trkpt>
      <trkpt lat="48.60847" lon="-3.40724">
        <ele>91.46</ele>
        <time>2013-05-30T10:03:58Z</time>
      </trkpt>
      <trkpt lat="48.6086" lon="-3.40756">
        <ele>87.62</ele>
        <time>2013-05-30T10:04:01Z</time>
      </trkpt>
      <trkpt lat="48.60869" lon="-3.40777">
        <ele>84.73</ele>
        <time>2013-05-30T10:04:04Z</time>
      </trkpt>
      <trkpt lat="48.60872" lon="-3.4079">
        <ele>84.73</ele>
        <time>2013-05-30T10:04:07Z</time>
      </trkpt>
      <trkpt lat="48.60872" lon="-3.40795">
        <ele>84.73</ele>
        <time>2013-05-30T10:04:08Z</time>
      </trkpt>
      <trkpt lat="48.6087" lon="-3.40802">
        <ele>84.73</ele>
        <time>2013-05-30T10:04:09Z</time>
      </trkpt>
      <trkpt lat="48.60868" lon="-3.40809">
        <ele>84.25</ele>
        <time>2013-05-30T10:04:10Z</time>
      </trkpt>
      <trkpt lat="48.60865" lon="-3.40815">
        <ele>84.73</ele>
        <time>2013-05-30T10:04:11Z</time>
      </trkpt>
      <trkpt lat="48.60861" lon="-3.40822">
        <ele>84.73</ele>
        <time>2013-05-30T10:04:12Z</time>
      </trkpt>
      <trkpt lat="48.6085" lon="-3.40842">
        <ele>84.73</ele>
        <time>2013-05-30T10:04:15Z</time>
      </trkpt>
      <trkpt lat="48.60845" lon="-3.40848">
        <ele>83.77</ele>
        <time>2013-05-30T10:04:16Z</time>
      </trkpt>
      <trkpt lat="48.60833" lon="-3.40859">
        <ele>82.81</ele>
        <time>2013-05-30T10:04:18Z</time>
      </trkpt>
      <trkpt lat="48.60827" lon="-3.40863">
        <ele>82.81</ele>
        <time>2013-05-30T10:04:19Z</time>
      </trkpt>
      <trkpt lat="48.60821" lon="-3.40867">
        <ele>82.33</ele>
        <time>2013-05-30T10:04:20Z</time>
      </trkpt>
      <trkpt lat="48.60814" lon="-3.40871">
        <ele>81.85</ele>
        <time>2013-05-30T10:04:21Z</time>
      </trkpt>
      <trkpt lat="48.60807" lon="-3.40874">
        <ele>81.37</ele>
        <time>2013-05-30T10:04:22Z</time>
      </trkpt>
      <trkpt lat="48.608" lon="-3.40876">
        <ele>81.37</ele>
        <time>2013-05-30T10:04:23Z</time>
      </trkpt>
      <trkpt lat="48.60734" lon="-3.40898">
        <ele>81.37</ele>
        <time>2013-05-30T10:04:33Z</time>
      </trkpt>
      <trkpt lat="48.60728" lon="-3.40903">
        <ele>81.85</ele>
        <time>2013-05-30T10:04:34Z</time>
      </trkpt>
      <trkpt lat="48.60722" lon="-3.40909">
        <ele>80.89</ele>
        <time>2013-05-30T10:04:35Z</time>
      </trkpt>
      <trkpt lat="48.60718" lon="-3.40915">
        <ele>81.37</ele>
        <time>2013-05-30T10:04:36Z</time>
      </trkpt>
      <trkpt lat="48.60713" lon="-3.40923">
        <ele>81.37</ele>
        <time>2013-05-30T10:04:37Z</time>
      </trkpt>
      <trkpt lat="48.60709" lon="-3.40931">
        <ele>81.85</ele>
        <time>2013-05-30T10:04:38Z</time>
      </trkpt>
      <trkpt lat="48.60706" lon="-3.40939">
        <ele>81.37</ele>
        <time>2013-05-30T10:04:39Z</time>
      </trkpt>
      <trkpt lat="48.60703" lon="-3.40947">
        <ele>81.37</ele>
        <time>2013-05-30T10:04:40Z</time>
      </trkpt>
      <trkpt lat="48.607" lon="-3.40955">
        <ele>81.37</ele>
        <time>2013-05-30T10:04:41Z</time>
      </trkpt>
      <trkpt lat="48.60698" lon="-3.40963">
        <ele>81.85</ele>
        <time>2013-05-30T10:04:42Z</time>
      </trkpt>
      <trkpt lat="48.6066" lon="-3.41109">
        <ele>81.37</ele>
        <time>2013-05-30T10:04:59Z</time>
      </trkpt>
      <trkpt lat="48.60623" lon="-3.41253">
        <ele>81.37</ele>
        <time>2013-05-30T10:05:16Z</time>
      </trkpt>
      <trkpt lat="48.60613" lon="-3.41275">
        <ele>80.41</ele>
        <time>2013-05-30T10:05:19Z</time>
      </trkpt>
      <trkpt lat="48.60609" lon="-3.41282">
        <ele>80.41</ele>
        <time>2013-05-30T10:05:20Z</time>
      </trkpt>
      <trkpt lat="48.60599" lon="-3.41295">
        <ele>80.41</ele>
        <time>2013-05-30T10:05:22Z</time>
      </trkpt>
      <trkpt lat="48.60594" lon="-3.413">
        <ele>80.41</ele>
        <time>2013-05-30T10:05:23Z</time>
      </trkpt>
      <trkpt lat="48.60561" lon="-3.41327">
        <ele>80.41</ele>
        <time>2013-05-30T10:05:29Z</time>
      </trkpt>
      <trkpt lat="48.60556" lon="-3.41334">
        <ele>80.41</ele>
        <time>2013-05-30T10:05:30Z</time>
      </trkpt>
      <trkpt lat="48.60551" lon="-3.41342">
        <ele>80.41</ele>
        <time>2013-05-30T10:05:31Z</time>
      </trkpt>
      <trkpt lat="48.60548" lon="-3.41351">
        <ele>80.41</ele>
        <time>2013-05-30T10:05:32Z</time>
      </trkpt>
      <trkpt lat="48.60546" lon="-3.4136">
        <ele>80.89</ele>
        <time>2013-05-30T10:05:33Z</time>
      </trkpt>
      <trkpt lat="48.60545" lon="-3.4137">
        <ele>80.89</ele>
        <time>2013-05-30T10:05:34Z</time>
      </trkpt>
      <trkpt lat="48.60544" lon="-3.41379">
        <ele>80.89</ele>
        <time>2013-05-30T10:05:35Z</time>
      </trkpt>
      <trkpt lat="48.60535" lon="-3.4152">
        <ele>82.33</ele>
        <time>2013-05-30T10:05:52Z</time>
      </trkpt>
      <trkpt lat="48.60535" lon="-3.41526">
        <ele>82.81</ele>
        <time>2013-05-30T10:05:53Z</time>
      </trkpt>
      <trkpt lat="48.60531" lon="-3.41575">
        <ele>83.77</ele>
        <time>2013-05-30T10:06:00Z</time>
      </trkpt>
      <trkpt lat="48.60531" lon="-3.41582">
        <ele>83.77</ele>
        <time>2013-05-30T10:06:01Z</time>
      </trkpt>
      <trkpt lat="48.60534" lon="-3.41612">
        <ele>84.25</ele>
        <time>2013-05-30T10:06:05Z</time>
      </trkpt>
      <trkpt lat="48.60536" lon="-3.41619">
        <ele>84.73</ele>
        <time>2013-05-30T10:06:06Z</time>
      </trkpt>
      <trkpt lat="48.60538" lon="-3.41626">
        <ele>84.73</ele>
        <time>2013-05-30T10:06:07Z</time>
      </trkpt>
      <trkpt lat="48.6054" lon="-3.41632">
        <ele>84.73</ele>
        <time>2013-05-30T10:06:08Z</time>
      </trkpt>
      <trkpt lat="48.60543" lon="-3.41637">
        <ele>84.73</ele>
        <time>2013-05-30T10:06:09Z</time>
      </trkpt>
      <trkpt lat="48.60545" lon="-3.41641">
        <ele>84.73</ele>
        <time>2013-05-30T10:06:10Z</time>
      </trkpt>
      <trkpt lat="48.60548" lon="-3.41645">
        <ele>84.73</ele>
        <time>2013-05-30T10:06:11Z</time>
      </trkpt>
      <trkpt lat="48.60551" lon="-3.41649">
        <ele>85.21</ele>
        <time>2013-05-30T10:06:12Z</time>
      </trkpt>
      <trkpt lat="48.60554" lon="-3.41653">
        <ele>85.21</ele>
        <time>2013-05-30T10:06:13Z</time>
      </trkpt>
      <trkpt lat="48.60602" lon="-3.41731">
        <ele>88.1</ele>
        <time>2013-05-30T10:06:27Z</time>
      </trkpt>
      <trkpt lat="48.60629" lon="-3.41794">
        <ele>88.58</ele>
        <time>2013-05-30T10:06:37Z</time>
      </trkpt>
      <trkpt lat="48.60631" lon="-3.41801">
        <ele>88.58</ele>
        <time>2013-05-30T10:06:38Z</time>
      </trkpt>
      <trkpt lat="48.60639" lon="-3.41828">
        <ele>89.06</ele>
        <time>2013-05-30T10:06:42Z</time>
      </trkpt>
      <trkpt lat="48.60641" lon="-3.41835">
        <ele>90.02</ele>
        <time>2013-05-30T10:06:43Z</time>
      </trkpt>
      <trkpt lat="48.60645" lon="-3.41848">
        <ele>89.06</ele>
        <time>2013-05-30T10:06:45Z</time>
      </trkpt>
      <trkpt lat="48.60647" lon="-3.41855">
        <ele>89.54</ele>
        <time>2013-05-30T10:06:46Z</time>
      </trkpt>
      <trkpt lat="48.60662" lon="-3.41922">
        <ele>90.02</ele>
        <time>2013-05-30T10:06:55Z</time>
      </trkpt>
      <trkpt lat="48.60664" lon="-3.4193">
        <ele>90.5</ele>
        <time>2013-05-30T10:06:56Z</time>
      </trkpt>
      <trkpt lat="48.60677" lon="-3.41988">
        <ele>91.46</ele>
        <time>2013-05-30T10:07:04Z</time>
      </trkpt>
      <trkpt lat="48.6069" lon="-3.42087">
        <ele>92.9</ele>
        <time>2013-05-30T10:07:17Z</time>
      </trkpt>
      <trkpt lat="48.60706" lon="-3.42194">
        <ele>93.87</ele>
        <time>2013-05-30T10:07:31Z</time>
      </trkpt>
      <trkpt lat="48.6071" lon="-3.42236">
        <ele>94.83</ele>
        <time>2013-05-30T10:07:37Z</time>
      </trkpt>
      <trkpt lat="48.60711" lon="-3.42242">
        <ele>94.83</ele>
        <time>2013-05-30T10:07:38Z</time>
      </trkpt>
      <trkpt lat="48.60716" lon="-3.42269">
        <ele>95.31</ele>
        <time>2013-05-30T10:07:42Z</time>
      </trkpt>
      <trkpt lat="48.60716" lon="-3.42278">
        <ele>95.31</ele>
        <time>2013-05-30T10:07:43Z</time>
      </trkpt>
      <trkpt lat="48.60722" lon="-3.4238">
        <ele>97.23</ele>
        <time>2013-05-30T10:07:57Z</time>
      </trkpt>
      <trkpt lat="48.60719" lon="-3.42461">
        <ele>97.71</ele>
        <time>2013-05-30T10:08:07Z</time>
      </trkpt>
      <trkpt lat="48.60697" lon="-3.42588">
        <ele>100.11</ele>
        <time>2013-05-30T10:08:22Z</time>
      </trkpt>
      <trkpt lat="48.6069" lon="-3.42626">
        <ele>101.08</ele>
        <time>2013-05-30T10:08:27Z</time>
      </trkpt>
      <trkpt lat="48.60685" lon="-3.42648">
        <ele>102.04</ele>
        <time>2013-05-30T10:08:30Z</time>
      </trkpt>
      <trkpt lat="48.60683" lon="-3.42656">
        <ele>102.52</ele>
        <time>2013-05-30T10:08:31Z</time>
      </trkpt>
      <trkpt lat="48.60682" lon="-3.42662">
        <ele>102.52</ele>
        <time>2013-05-30T10:08:32Z</time>
      </trkpt>
      <trkpt lat="48.60669" lon="-3.42716">
        <ele>104.92</ele>
        <time>2013-05-30T10:08:40Z</time>
      </trkpt>
      <trkpt lat="48.60667" lon="-3.42723">
        <ele>105.4</ele>
        <time>2013-05-30T10:08:41Z</time>
      </trkpt>
      <trkpt lat="48.60665" lon="-3.42728">
        <ele>105.4</ele>
        <time>2013-05-30T10:08:42Z</time>
      </trkpt>
      <trkpt lat="48.60662" lon="-3.42733">
        <ele>105.4</ele>
        <time>2013-05-30T10:08:43Z</time>
      </trkpt>
      <trkpt lat="48.60659" lon="-3.42738">
        <ele>105.88</ele>
        <time>2013-05-30T10:08:44Z</time>
      </trkpt>
      <trkpt lat="48.60653" lon="-3.42749">
        <ele>105.88</ele>
        <time>2013-05-30T10:08:46Z</time>
      </trkpt>
      <trkpt lat="48.60649" lon="-3.42754">
        <ele>105.88</ele>
        <time>2013-05-30T10:08:47Z</time>
      </trkpt>
      <trkpt lat="48.606" lon="-3.42834">
        <ele>107.32</ele>
        <time>2013-05-30T10:09:01Z</time>
      </trkpt>
      <trkpt lat="48.60576" lon="-3.4288">
        <ele>109.25</ele>
        <time>2013-05-30T10:09:09Z</time>
      </trkpt>
      <trkpt lat="48.60573" lon="-3.42886">
        <ele>109.25</ele>
        <time>2013-05-30T10:09:10Z</time>
      </trkpt>
      <trkpt lat="48.60564" lon="-3.4293">
        <ele>110.69</ele>
        <time>2013-05-30T10:09:17Z</time>
      </trkpt>
      <trkpt lat="48.60564" lon="-3.42936">
        <ele>111.17</ele>
        <time>2013-05-30T10:09:18Z</time>
      </trkpt>
      <trkpt lat="48.60563" lon="-3.42943">
        <ele>111.17</ele>
        <time>2013-05-30T10:09:19Z</time>
      </trkpt>
      <trkpt lat="48.60564" lon="-3.43003">
        <ele>113.09</ele>
        <time>2013-05-30T10:09:28Z</time>
      </trkpt>
      <trkpt lat="48.60566" lon="-3.43016">
        <ele>113.57</ele>
        <time>2013-05-30T10:09:30Z</time>
      </trkpt>
      <trkpt lat="48.60567" lon="-3.43023">
        <ele>113.57</ele>
        <time>2013-05-30T10:09:31Z</time>
      </trkpt>
      <trkpt lat="48.60569" lon="-3.43029">
        <ele>114.05</ele>
        <time>2013-05-30T10:09:32Z</time>
      </trkpt>
      <trkpt lat="48.60571" lon="-3.43034">
        <ele>114.05</ele>
        <time>2013-05-30T10:09:33Z</time>
      </trkpt>
      <trkpt lat="48.60573" lon="-3.43039">
        <ele>114.53</ele>
        <time>2013-05-30T10:09:34Z</time>
      </trkpt>
      <trkpt lat="48.60576" lon="-3.43043">
        <ele>114.53</ele>
        <time>2013-05-30T10:09:35Z</time>
      </trkpt>
      <trkpt lat="48.60578" lon="-3.43047">
        <ele>115.5</ele>
        <time>2013-05-30T10:09:36Z</time>
      </trkpt>
      <trkpt lat="48.60581" lon="-3.4305">
        <ele>115.5</ele>
        <time>2013-05-30T10:09:37Z</time>
      </trkpt>
      <trkpt lat="48.60584" lon="-3.43053">
        <ele>115.5</ele>
        <time>2013-05-30T10:09:38Z</time>
      </trkpt>
      <trkpt lat="48.60604" lon="-3.43069">
        <ele>116.94</ele>
        <time>2013-05-30T10:09:44Z</time>
      </trkpt>
      <trkpt lat="48.60626" lon="-3.43095">
        <ele>118.86</ele>
        <time>2013-05-30T10:09:51Z</time>
      </trkpt>
      <trkpt lat="48.60644" lon="-3.43169">
        <ele>122.22</ele>
        <time>2013-05-30T10:10:04Z</time>
      </trkpt>
      <trkpt lat="48.60644" lon="-3.43176">
        <ele>122.22</ele>
        <time>2013-05-30T10:10:05Z</time>
      </trkpt>
      <trkpt lat="48.60647" lon="-3.4322">
        <ele>124.15</ele>
        <time>2013-05-30T10:10:12Z</time>
      </trkpt>
      <trkpt lat="48.60632" lon="-3.43313">
        <ele>127.51</ele>
        <time>2013-05-30T10:10:27Z</time>
      </trkpt>
      <trkpt lat="48.60631" lon="-3.43338">
        <ele>128.47</ele>
        <time>2013-05-30T10:10:31Z</time>
      </trkpt>
      <trkpt lat="48.60635" lon="-3.4338">
        <ele>129.43</ele>
        <time>2013-05-30T10:10:38Z</time>
      </trkpt>
      <trkpt lat="48.60667" lon="-3.43455">
        <ele>130.4</ele>
        <time>2013-05-30T10:10:52Z</time>
      </trkpt>
      <trkpt lat="48.6071" lon="-3.43541">
        <ele>129.92</ele>
        <time>2013-05-30T10:11:06Z</time>
      </trkpt>
      <trkpt lat="48.60766" lon="-3.43652">
        <ele>129.43</ele>
        <time>2013-05-30T10:11:23Z</time>
      </trkpt>
      <trkpt lat="48.60791" lon="-3.43736">
        <ele>128.95</ele>
        <time>2013-05-30T10:11:33Z</time>
      </trkpt>
      <trkpt lat="48.60794" lon="-3.43743">
        <ele>129.43</ele>
        <time>2013-05-30T10:11:34Z</time>
      </trkpt>
      <trkpt lat="48.60806" lon="-3.4377">
        <ele>128.95</ele>
        <time>2013-05-30T10:11:38Z</time>
      </trkpt>
      <trkpt lat="48.60814" lon="-3.43782">
        <ele>128.95</ele>
        <time>2013-05-30T10:11:40Z</time>
      </trkpt>
      <trkpt lat="48.60818" lon="-3.43786">
        <ele>128.95</ele>
        <time>2013-05-30T10:11:41Z</time>
      </trkpt>
      <trkpt lat="48.60823" lon="-3.4379">
        <ele>128.95</ele>
        <time>2013-05-30T10:11:42Z</time>
      </trkpt>
      <trkpt lat="48.60836" lon="-3.438">
        <ele>129.43</ele>
        <time>2013-05-30T10:11:45Z</time>
      </trkpt>
      <trkpt lat="48.60864" lon="-3.43828">
        <ele>129.43</ele>
        <time>2013-05-30T10:11:52Z</time>
      </trkpt>
      <trkpt lat="48.60867" lon="-3.43833">
        <ele>129.43</ele>
        <time>2013-05-30T10:11:53Z</time>
      </trkpt>
      <trkpt lat="48.60871" lon="-3.43839">
        <ele>129.92</ele>
        <time>2013-05-30T10:11:54Z</time>
      </trkpt>
      <trkpt lat="48.60873" lon="-3.43846">
        <ele>130.4</ele>
        <time>2013-05-30T10:11:55Z</time>
      </trkpt>
      <trkpt lat="48.60876" lon="-3.43854">
        <ele>129.92</ele>
        <time>2013-05-30T10:11:56Z</time>
      </trkpt>
      <trkpt lat="48.6088" lon="-3.43871">
        <ele>129.92</ele>
        <time>2013-05-30T10:11:58Z</time>
      </trkpt>
      <trkpt lat="48.60882" lon="-3.4388">
        <ele>129.43</ele>
        <time>2013-05-30T10:11:59Z</time>
      </trkpt>
      <trkpt lat="48.60883" lon="-3.43889">
        <ele>129.92</ele>
        <time>2013-05-30T10:12:00Z</time>
      </trkpt>
      <trkpt lat="48.60875" lon="-3.44021">
        <ele>127.99</ele>
        <time>2013-05-30T10:12:14Z</time>
      </trkpt>
      <trkpt lat="48.60857" lon="-3.4414">
        <ele>126.07</ele>
        <time>2013-05-30T10:12:26Z</time>
      </trkpt>
      <trkpt lat="48.60859" lon="-3.44267">
        <ele>124.15</ele>
        <time>2013-05-30T10:12:40Z</time>
      </trkpt>
      <trkpt lat="48.60858" lon="-3.44276">
        <ele>124.15</ele>
        <time>2013-05-30T10:12:41Z</time>
      </trkpt>
      <trkpt lat="48.60856" lon="-3.44285">
        <ele>124.15</ele>
        <time>2013-05-30T10:12:42Z</time>
      </trkpt>
      <trkpt lat="48.60854" lon="-3.44293">
        <ele>124.15</ele>
        <time>2013-05-30T10:12:43Z</time>
      </trkpt>
      <trkpt lat="48.60851" lon="-3.44302">
        <ele>124.63</ele>
        <time>2013-05-30T10:12:44Z</time>
      </trkpt>
      <trkpt lat="48.60848" lon="-3.4431">
        <ele>123.67</ele>
        <time>2013-05-30T10:12:45Z</time>
      </trkpt>
      <trkpt lat="48.60844" lon="-3.44317">
        <ele>123.67</ele>
        <time>2013-05-30T10:12:46Z</time>
      </trkpt>
      <trkpt lat="48.60839" lon="-3.44325">
        <ele>123.19</ele>
        <time>2013-05-30T10:12:47Z</time>
      </trkpt>
      <trkpt lat="48.60754" lon="-3.44428">
        <ele>120.3</ele>
        <time>2013-05-30T10:13:03Z</time>
      </trkpt>
      <trkpt lat="48.60721" lon="-3.44467">
        <ele>119.82</ele>
        <time>2013-05-30T10:13:09Z</time>
      </trkpt>
      <trkpt lat="48.60717" lon="-3.44475">
        <ele>119.82</ele>
        <time>2013-05-30T10:13:10Z</time>
      </trkpt>
      <trkpt lat="48.60715" lon="-3.44485">
        <ele>119.82</ele>
        <time>2013-05-30T10:13:11Z</time>
      </trkpt>
      <trkpt lat="48.60714" lon="-3.44496">
        <ele>119.34</ele>
        <time>2013-05-30T10:13:12Z</time>
      </trkpt>
      <trkpt lat="48.60714" lon="-3.44506">
        <ele>118.86</ele>
        <time>2013-05-30T10:13:13Z</time>
      </trkpt>
      <trkpt lat="48.60716" lon="-3.44516">
        <ele>118.86</ele>
        <time>2013-05-30T10:13:14Z</time>
      </trkpt>
      <trkpt lat="48.60718" lon="-3.44525">
        <ele>118.86</ele>
        <time>2013-05-30T10:13:15Z</time>
      </trkpt>
      <trkpt lat="48.6072" lon="-3.44534">
        <ele>118.86</ele>
        <time>2013-05-30T10:13:16Z</time>
      </trkpt>
      <trkpt lat="48.60738" lon="-3.44593">
        <ele>121.26</ele>
        <time>2013-05-30T10:13:24Z</time>
      </trkpt>
      <trkpt lat="48.60753" lon="-3.44636">
        <ele>122.71</ele>
        <time>2013-05-30T10:13:31Z</time>
      </trkpt>
      <trkpt lat="48.60766" lon="-3.44679">
        <ele>123.67</ele>
        <time>2013-05-30T10:13:38Z</time>
      </trkpt>
      <trkpt lat="48.60768" lon="-3.44692">
        <ele>124.63</ele>
        <time>2013-05-30T10:13:40Z</time>
      </trkpt>
      <trkpt lat="48.60769" lon="-3.44699">
        <ele>124.63</ele>
        <time>2013-05-30T10:13:41Z</time>
      </trkpt>
      <trkpt lat="48.60769" lon="-3.44706">
        <ele>124.63</ele>
        <time>2013-05-30T10:13:42Z</time>
      </trkpt>
      <trkpt lat="48.60767" lon="-3.44775">
        <ele>126.07</ele>
        <time>2013-05-30T10:13:52Z</time>
      </trkpt>
      <trkpt lat="48.60764" lon="-3.44829">
        <ele>127.99</ele>
        <time>2013-05-30T10:14:00Z</time>
      </trkpt>
      <trkpt lat="48.60765" lon="-3.44836">
        <ele>128.47</ele>
        <time>2013-05-30T10:14:01Z</time>
      </trkpt>
      <trkpt lat="48.60766" lon="-3.44843">
        <ele>128.47</ele>
        <time>2013-05-30T10:14:02Z</time>
      </trkpt>
      <trkpt lat="48.60773" lon="-3.44887">
        <ele>127.51</ele>
        <time>2013-05-30T10:14:08Z</time>
      </trkpt>
      <trkpt lat="48.60772" lon="-3.44988">
        <ele>126.55</ele>
        <time>2013-05-30T10:14:20Z</time>
      </trkpt>
      <trkpt lat="48.60768" lon="-3.45015">
        <ele>126.07</ele>
        <time>2013-05-30T10:14:23Z</time>
      </trkpt>
      <trkpt lat="48.60766" lon="-3.45023">
        <ele>125.59</ele>
        <time>2013-05-30T10:14:24Z</time>
      </trkpt>
      <trkpt lat="48.60765" lon="-3.45031">
        <ele>125.59</ele>
        <time>2013-05-30T10:14:25Z</time>
      </trkpt>
      <trkpt lat="48.60765" lon="-3.45061">
        <ele>123.67</ele>
        <time>2013-05-30T10:14:28Z</time>
      </trkpt>
      <trkpt lat="48.6077" lon="-3.45154">
        <ele>121.26</ele>
        <time>2013-05-30T10:14:35Z</time>
      </trkpt>
      <trkpt lat="48.60776" lon="-3.45207">
        <ele>119.34</ele>
        <time>2013-05-30T10:14:39Z</time>
      </trkpt>
      <trkpt lat="48.6078" lon="-3.45219">
        <ele>118.38</ele>
        <time>2013-05-30T10:14:40Z</time>
      </trkpt>
      <trkpt lat="48.60785" lon="-3.45232">
        <ele>118.86</ele>
        <time>2013-05-30T10:14:41Z</time>
      </trkpt>
      <trkpt lat="48.60791" lon="-3.45242">
        <ele>118.86</ele>
        <time>2013-05-30T10:14:42Z</time>
      </trkpt>
      <trkpt lat="48.60796" lon="-3.45251">
        <ele>117.9</ele>
        <time>2013-05-30T10:14:43Z</time>
      </trkpt>
      <trkpt lat="48.60801" lon="-3.45257">
        <ele>117.9</ele>
        <time>2013-05-30T10:14:44Z</time>
      </trkpt>
      <trkpt lat="48.60807" lon="-3.45262">
        <ele>116.94</ele>
        <time>2013-05-30T10:14:45Z</time>
      </trkpt>
      <trkpt lat="48.60813" lon="-3.45267">
        <ele>117.42</ele>
        <time>2013-05-30T10:14:46Z</time>
      </trkpt>
      <trkpt lat="48.60878" lon="-3.45315">
        <ele>115.5</ele>
        <time>2013-05-30T10:14:56Z</time>
      </trkpt>
      <trkpt lat="48.60883" lon="-3.45322">
        <ele>115.01</ele>
        <time>2013-05-30T10:14:57Z</time>
      </trkpt>
      <trkpt lat="48.60887" lon="-3.4533">
        <ele>114.05</ele>
        <time>2013-05-30T10:14:58Z</time>
      </trkpt>
      <trkpt lat="48.60891" lon="-3.45339">
        <ele>114.53</ele>
        <time>2013-05-30T10:14:59Z</time>
      </trkpt>
      <trkpt lat="48.60894" lon="-3.45348">
        <ele>114.05</ele>
        <time>2013-05-30T10:15:00Z</time>
      </trkpt>
      <trkpt lat="48.60896" lon="-3.45359">
        <ele>114.05</ele>
        <time>2013-05-30T10:15:01Z</time>
      </trkpt>
      <trkpt lat="48.60898" lon="-3.45369">
        <ele>114.05</ele>
        <time>2013-05-30T10:15:02Z</time>
      </trkpt>
      <trkpt lat="48.60899" lon="-3.45381">
        <ele>114.05</ele>
        <time>2013-05-30T10:15:03Z</time>
      </trkpt>
      <trkpt lat="48.60905" lon="-3.45449">
        <ele>111.65</ele>
        <time>2013-05-30T10:15:09Z</time>
      </trkpt>
      <trkpt lat="48.60909" lon="-3.45459">
        <ele>111.65</ele>
        <time>2013-05-30T10:15:10Z</time>
      </trkpt>
      <trkpt lat="48.60914" lon="-3.45467">
        <ele>111.17</ele>
        <time>2013-05-30T10:15:11Z</time>
      </trkpt>
      <trkpt lat="48.60921" lon="-3.45474">
        <ele>111.17</ele>
        <time>2013-05-30T10:15:12Z</time>
      </trkpt>
      <trkpt lat="48.60928" lon="-3.45479">
        <ele>110.69</ele>
        <time>2013-05-30T10:15:13Z</time>
      </trkpt>
      <trkpt lat="48.60935" lon="-3.45484">
        <ele>110.69</ele>
        <time>2013-05-30T10:15:14Z</time>
      </trkpt>
      <trkpt lat="48.61006" lon="-3.45531">
        <ele>107.81</ele>
        <time>2013-05-30T10:15:24Z</time>
      </trkpt>
      <trkpt lat="48.61034" lon="-3.45554">
        <ele>105.88</ele>
        <time>2013-05-30T10:15:28Z</time>
      </trkpt>
      <trkpt lat="48.61105" lon="-3.45661">
        <ele>103</ele>
        <time>2013-05-30T10:15:39Z</time>
      </trkpt>
      <trkpt lat="48.61135" lon="-3.45723">
        <ele>100.6</ele>
        <time>2013-05-30T10:15:45Z</time>
      </trkpt>
      <trkpt lat="48.61185" lon="-3.45809">
        <ele>102.04</ele>
        <time>2013-05-30T10:15:57Z</time>
      </trkpt>
      <trkpt lat="48.61189" lon="-3.45815">
        <ele>101.56</ele>
        <time>2013-05-30T10:15:58Z</time>
      </trkpt>
      <trkpt lat="48.61194" lon="-3.45819">
        <ele>102.04</ele>
        <time>2013-05-30T10:15:59Z</time>
      </trkpt>
      <trkpt lat="48.61198" lon="-3.45823">
        <ele>102.52</ele>
        <time>2013-05-30T10:16:00Z</time>
      </trkpt>
      <trkpt lat="48.61203" lon="-3.45826">
        <ele>102.52</ele>
        <time>2013-05-30T10:16:01Z</time>
      </trkpt>
      <trkpt lat="48.61209" lon="-3.45828">
        <ele>102.52</ele>
        <time>2013-05-30T10:16:02Z</time>
      </trkpt>
      <trkpt lat="48.61214" lon="-3.45829">
        <ele>103</ele>
        <time>2013-05-30T10:16:03Z</time>
      </trkpt>
      <trkpt lat="48.6122" lon="-3.4583">
        <ele>103</ele>
        <time>2013-05-30T10:16:04Z</time>
      </trkpt>
      <trkpt lat="48.61225" lon="-3.4583">
        <ele>103.48</ele>
        <time>2013-05-30T10:16:05Z</time>
      </trkpt>
      <trkpt lat="48.61231" lon="-3.45829">
        <ele>103.48</ele>
        <time>2013-05-30T10:16:06Z</time>
      </trkpt>
      <trkpt lat="48.61236" lon="-3.45828">
        <ele>103</ele>
        <time>2013-05-30T10:16:07Z</time>
      </trkpt>
      <trkpt lat="48.61241" lon="-3.45825">
        <ele>102.52</ele>
        <time>2013-05-30T10:16:08Z</time>
      </trkpt>
      <trkpt lat="48.61314" lon="-3.45794">
        <ele>104.92</ele>
        <time>2013-05-30T10:16:23Z</time>
      </trkpt>
      <trkpt lat="48.61379" lon="-3.45765">
        <ele>108.29</ele>
        <time>2013-05-30T10:16:37Z</time>
      </trkpt>
      <trkpt lat="48.61454" lon="-3.4575">
        <ele>109.25</ele>
        <time>2013-05-30T10:16:52Z</time>
      </trkpt>
      <trkpt lat="48.61482" lon="-3.45757">
        <ele>110.21</ele>
        <time>2013-05-30T10:16:58Z</time>
      </trkpt>
      <trkpt lat="48.61486" lon="-3.45756">
        <ele>110.69</ele>
        <time>2013-05-30T10:16:59Z</time>
      </trkpt>
      <trkpt lat="48.61491" lon="-3.45753">
        <ele>110.69</ele>
        <time>2013-05-30T10:17:00Z</time>
      </trkpt>
      <trkpt lat="48.61495" lon="-3.4575">
        <ele>110.69</ele>
        <time>2013-05-30T10:17:01Z</time>
      </trkpt>
      <trkpt lat="48.61499" lon="-3.45745">
        <ele>110.69</ele>
        <time>2013-05-30T10:17:02Z</time>
      </trkpt>
      <trkpt lat="48.61502" lon="-3.4574">
        <ele>111.17</ele>
        <time>2013-05-30T10:17:03Z</time>
      </trkpt>
      <trkpt lat="48.61505" lon="-3.45735">
        <ele>111.17</ele>
        <time>2013-05-30T10:17:04Z</time>
      </trkpt>
      <trkpt lat="48.61526" lon="-3.4568">
        <ele>112.61</ele>
        <time>2013-05-30T10:17:13Z</time>
      </trkpt>
      <trkpt lat="48.61528" lon="-3.45674">
        <ele>113.09</ele>
        <time>2013-05-30T10:17:14Z</time>
      </trkpt>
      <trkpt lat="48.61531" lon="-3.45667">
        <ele>113.09</ele>
        <time>2013-05-30T10:17:15Z</time>
      </trkpt>
      <trkpt lat="48.61537" lon="-3.45649">
        <ele>113.57</ele>
        <time>2013-05-30T10:17:18Z</time>
      </trkpt>
      <trkpt lat="48.6154" lon="-3.45643">
        <ele>114.05</ele>
        <time>2013-05-30T10:17:19Z</time>
      </trkpt>
      <trkpt lat="48.61544" lon="-3.45638">
        <ele>114.05</ele>
        <time>2013-05-30T10:17:20Z</time>
      </trkpt>
      <trkpt lat="48.61547" lon="-3.45633">
        <ele>114.05</ele>
        <time>2013-05-30T10:17:21Z</time>
      </trkpt>
      <trkpt lat="48.61551" lon="-3.45628">
        <ele>114.53</ele>
        <time>2013-05-30T10:17:22Z</time>
      </trkpt>
      <trkpt lat="48.61614" lon="-3.45545">
        <ele>115.98</ele>
        <time>2013-05-30T10:17:38Z</time>
      </trkpt>
      <trkpt lat="48.61665" lon="-3.45483">
        <ele>117.42</ele>
        <time>2013-05-30T10:17:51Z</time>
      </trkpt>
      <trkpt lat="48.6172" lon="-3.45422">
        <ele>119.82</ele>
        <time>2013-05-30T10:18:05Z</time>
      </trkpt>
      <trkpt lat="48.61772" lon="-3.45361">
        <ele>121.26</ele>
        <time>2013-05-30T10:18:18Z</time>
      </trkpt>
      <trkpt lat="48.6184" lon="-3.45288">
        <ele>123.19</ele>
        <time>2013-05-30T10:18:34Z</time>
      </trkpt>
      <trkpt lat="48.61906" lon="-3.45218">
        <ele>125.11</ele>
        <time>2013-05-30T10:18:51Z</time>
      </trkpt>
      <trkpt lat="48.6197" lon="-3.45148">
        <ele>126.07</ele>
        <time>2013-05-30T10:19:07Z</time>
      </trkpt>
      <trkpt lat="48.62043" lon="-3.45068">
        <ele>125.11</ele>
        <time>2013-05-30T10:19:21Z</time>
      </trkpt>
      <trkpt lat="48.62083" lon="-3.45031">
        <ele>124.15</ele>
        <time>2013-05-30T10:19:28Z</time>
      </trkpt>
      <trkpt lat="48.62095" lon="-3.45025">
        <ele>124.15</ele>
        <time>2013-05-30T10:19:30Z</time>
      </trkpt>
      <trkpt lat="48.62101" lon="-3.45022">
        <ele>124.15</ele>
        <time>2013-05-30T10:19:31Z</time>
      </trkpt>
      <trkpt lat="48.62107" lon="-3.45021">
        <ele>124.15</ele>
        <time>2013-05-30T10:19:32Z</time>
      </trkpt>
      <trkpt lat="48.62114" lon="-3.45021">
        <ele>124.15</ele>
        <time>2013-05-30T10:19:33Z</time>
      </trkpt>
      <trkpt lat="48.6212" lon="-3.45021">
        <ele>124.15</ele>
        <time>2013-05-30T10:19:34Z</time>
      </trkpt>
      <trkpt lat="48.6219" lon="-3.45021">
        <ele>123.19</ele>
        <time>2013-05-30T10:19:46Z</time>
      </trkpt>
      <trkpt lat="48.62266" lon="-3.4502">
        <ele>123.67</ele>
        <time>2013-05-30T10:19:59Z</time>
      </trkpt>
      <trkpt lat="48.62356" lon="-3.45053">
        <ele>124.15</ele>
        <time>2013-05-30T10:20:14Z</time>
      </trkpt>
      <trkpt lat="48.62441" lon="-3.45062">
        <ele>124.63</ele>
        <time>2013-05-30T10:20:28Z</time>
      </trkpt>
      <trkpt lat="48.62518" lon="-3.45062">
        <ele>123.67</ele>
        <time>2013-05-30T10:20:41Z</time>
      </trkpt>
      <trkpt lat="48.62606" lon="-3.45071">
        <ele>122.71</ele>
        <time>2013-05-30T10:20:55Z</time>
      </trkpt>
      <trkpt lat="48.62713" lon="-3.45058">
        <ele>121.74</ele>
        <time>2013-05-30T10:21:12Z</time>
      </trkpt>
      <trkpt lat="48.62814" lon="-3.45025">
        <ele>118.86</ele>
        <time>2013-05-30T10:21:26Z</time>
      </trkpt>
      <trkpt lat="48.62903" lon="-3.44996">
        <ele>116.46</ele>
        <time>2013-05-30T10:21:38Z</time>
      </trkpt>
      <trkpt lat="48.62911" lon="-3.44997">
        <ele>116.46</ele>
        <time>2013-05-30T10:21:39Z</time>
      </trkpt>
      <trkpt lat="48.62918" lon="-3.44998">
        <ele>116.46</ele>
        <time>2013-05-30T10:21:40Z</time>
      </trkpt>
      <trkpt lat="48.63" lon="-3.4503">
        <ele>115.5</ele>
        <time>2013-05-30T10:21:52Z</time>
      </trkpt>
      <trkpt lat="48.63007" lon="-3.4503">
        <ele>115.98</ele>
        <time>2013-05-30T10:21:53Z</time>
      </trkpt>
      <trkpt lat="48.63014" lon="-3.45031">
        <ele>115.5</ele>
        <time>2013-05-30T10:21:54Z</time>
      </trkpt>
      <trkpt lat="48.63089" lon="-3.45039">
        <ele>113.57</ele>
        <time>2013-05-30T10:22:05Z</time>
      </trkpt>
      <trkpt lat="48.63179" lon="-3.45003">
        <ele>112.13</ele>
        <time>2013-05-30T10:22:18Z</time>
      </trkpt>
      <trkpt lat="48.63218" lon="-3.44985">
        <ele>110.69</ele>
        <time>2013-05-30T10:22:23Z</time>
      </trkpt>
      <trkpt lat="48.63277" lon="-3.44976">
        <ele>109.73</ele>
        <time>2013-05-30T10:22:31Z</time>
      </trkpt>
      <trkpt lat="48.63336" lon="-3.45001">
        <ele>110.69</ele>
        <time>2013-05-30T10:22:43Z</time>
      </trkpt>
      <trkpt lat="48.63395" lon="-3.45073">
        <ele>112.61</ele>
        <time>2013-05-30T10:22:57Z</time>
      </trkpt>
      <trkpt lat="48.63429" lon="-3.45126">
        <ele>111.17</ele>
        <time>2013-05-30T10:23:05Z</time>
      </trkpt>
      <trkpt lat="48.63494" lon="-3.45221">
        <ele>111.65</ele>
        <time>2013-05-30T10:23:19Z</time>
      </trkpt>
      <trkpt lat="48.63531" lon="-3.45271">
        <ele>114.05</ele>
        <time>2013-05-30T10:23:29Z</time>
      </trkpt>
      <trkpt lat="48.63583" lon="-3.45341">
        <ele>116.94</ele>
        <time>2013-05-30T10:23:43Z</time>
      </trkpt>
      <trkpt lat="48.63651" lon="-3.45384">
        <ele>117.9</ele>
        <time>2013-05-30T10:23:57Z</time>
      </trkpt>
      <trkpt lat="48.63719" lon="-3.45411">
        <ele>119.34</ele>
        <time>2013-05-30T10:24:10Z</time>
      </trkpt>
      <trkpt lat="48.63812" lon="-3.45423">
        <ele>120.3</ele>
        <time>2013-05-30T10:24:27Z</time>
      </trkpt>
      <trkpt lat="48.63817" lon="-3.45425">
        <ele>119.82</ele>
        <time>2013-05-30T10:24:28Z</time>
      </trkpt>
      <trkpt lat="48.63823" lon="-3.45428">
        <ele>119.82</ele>
        <time>2013-05-30T10:24:29Z</time>
      </trkpt>
      <trkpt lat="48.63837" lon="-3.45439">
        <ele>119.82</ele>
        <time>2013-05-30T10:24:32Z</time>
      </trkpt>
      <trkpt lat="48.63842" lon="-3.45444">
        <ele>119.34</ele>
        <time>2013-05-30T10:24:33Z</time>
      </trkpt>
      <trkpt lat="48.63869" lon="-3.45475">
        <ele>118.86</ele>
        <time>2013-05-30T10:24:39Z</time>
      </trkpt>
      <trkpt lat="48.63875" lon="-3.45478">
        <ele>117.9</ele>
        <time>2013-05-30T10:24:40Z</time>
      </trkpt>
      <trkpt lat="48.6388" lon="-3.45478">
        <ele>117.42</ele>
        <time>2013-05-30T10:24:41Z</time>
      </trkpt>
      <trkpt lat="48.63885" lon="-3.45475">
        <ele>116.94</ele>
        <time>2013-05-30T10:24:42Z</time>
      </trkpt>
      <trkpt lat="48.63889" lon="-3.4547">
        <ele>116.46</ele>
        <time>2013-05-30T10:24:43Z</time>
      </trkpt>
      <trkpt lat="48.63894" lon="-3.45464">
        <ele>116.46</ele>
        <time>2013-05-30T10:24:44Z</time>
      </trkpt>
      <trkpt lat="48.63898" lon="-3.45458">
        <ele>117.42</ele>
        <time>2013-05-30T10:24:45Z</time>
      </trkpt>
      <trkpt lat="48.63978" lon="-3.45345">
        <ele>115.5</ele>
        <time>2013-05-30T10:25:01Z</time>
      </trkpt>
      <trkpt lat="48.64076" lon="-3.452">
        <ele>114.53</ele>
        <time>2013-05-30T10:25:20Z</time>
      </trkpt>
      <trkpt lat="48.64165" lon="-3.45069">
        <ele>115.01</ele>
        <time>2013-05-30T10:25:39Z</time>
      </trkpt>
      <trkpt lat="48.64251" lon="-3.4494">
        <ele>115.98</ele>
        <time>2013-05-30T10:25:59Z</time>
      </trkpt>
      <trkpt lat="48.64338" lon="-3.44811">
        <ele>116.94</ele>
        <time>2013-05-30T10:26:18Z</time>
      </trkpt>
      <trkpt lat="48.64412" lon="-3.44707">
        <ele>116.46</ele>
        <time>2013-05-30T10:26:34Z</time>
      </trkpt>
      <trkpt lat="48.64512" lon="-3.44622">
        <ele>115.98</ele>
        <time>2013-05-30T10:26:51Z</time>
      </trkpt>
      <trkpt lat="48.6463" lon="-3.44582">
        <ele>114.53</ele>
        <time>2013-05-30T10:27:09Z</time>
      </trkpt>
      <trkpt lat="48.64736" lon="-3.44588">
        <ele>111.17</ele>
        <time>2013-05-30T10:27:25Z</time>
      </trkpt>
      <trkpt lat="48.64869" lon="-3.44621">
        <ele>111.17</ele>
        <time>2013-05-30T10:27:46Z</time>
      </trkpt>
      <trkpt lat="48.64973" lon="-3.44633">
        <ele>111.65</ele>
        <time>2013-05-30T10:28:03Z</time>
      </trkpt>
      <trkpt lat="48.65089" lon="-3.44624">
        <ele>111.65</ele>
        <time>2013-05-30T10:28:23Z</time>
      </trkpt>
      <trkpt lat="48.65189" lon="-3.44597">
        <ele>111.17</ele>
        <time>2013-05-30T10:28:40Z</time>
      </trkpt>
      <trkpt lat="48.6529" lon="-3.44566">
        <ele>111.65</ele>
        <time>2013-05-30T10:28:57Z</time>
      </trkpt>
      <trkpt lat="48.65409" lon="-3.44512">
        <ele>111.17</ele>
        <time>2013-05-30T10:29:17Z</time>
      </trkpt>
      <trkpt lat="48.65525" lon="-3.44463">
        <ele>109.25</ele>
        <time>2013-05-30T10:29:35Z</time>
      </trkpt>
      <trkpt lat="48.65643" lon="-3.44417">
        <ele>107.81</ele>
        <time>2013-05-30T10:29:53Z</time>
      </trkpt>
      <trkpt lat="48.65768" lon="-3.44371">
        <ele>105.4</ele>
        <time>2013-05-30T10:30:12Z</time>
      </trkpt>
      <trkpt lat="48.65781" lon="-3.44366">
        <ele>104.44</ele>
        <time>2013-05-30T10:30:14Z</time>
      </trkpt>
      <trkpt lat="48.65801" lon="-3.44359">
        <ele>103</ele>
        <time>2013-05-30T10:30:17Z</time>
      </trkpt>
      <trkpt lat="48.65887" lon="-3.44342">
        <ele>102.04</ele>
        <time>2013-05-30T10:30:29Z</time>
      </trkpt>
      <trkpt lat="48.66003" lon="-3.44351">
        <ele>100.6</ele>
        <time>2013-05-30T10:30:45Z</time>
      </trkpt>
      <trkpt lat="48.66101" lon="-3.44374">
        <ele>98.67</ele>
        <time>2013-05-30T10:31:00Z</time>
      </trkpt>
      <trkpt lat="48.66201" lon="-3.444">
        <ele>100.6</ele>
        <time>2013-05-30T10:31:17Z</time>
      </trkpt>
      <trkpt lat="48.66301" lon="-3.44425">
        <ele>101.56</ele>
        <time>2013-05-30T10:31:36Z</time>
      </trkpt>
      <trkpt lat="48.66403" lon="-3.44444">
        <ele>103.48</ele>
        <time>2013-05-30T10:31:56Z</time>
      </trkpt>
      <trkpt lat="48.66495" lon="-3.44439">
        <ele>103.48</ele>
        <time>2013-05-30T10:32:13Z</time>
      </trkpt>
      <trkpt lat="48.66594" lon="-3.44438">
        <ele>103.96</ele>
        <time>2013-05-30T10:32:31Z</time>
      </trkpt>
      <trkpt lat="48.6669" lon="-3.44445">
        <ele>103.96</ele>
        <time>2013-05-30T10:32:48Z</time>
      </trkpt>
      <trkpt lat="48.668" lon="-3.44458">
        <ele>102.52</ele>
        <time>2013-05-30T10:33:06Z</time>
      </trkpt>
      <trkpt lat="48.66933" lon="-3.44472">
        <ele>100.6</ele>
        <time>2013-05-30T10:33:26Z</time>
      </trkpt>
      <trkpt lat="48.67014" lon="-3.44464">
        <ele>99.15</ele>
        <time>2013-05-30T10:33:38Z</time>
      </trkpt>
      <trkpt lat="48.67021" lon="-3.44464">
        <ele>98.67</ele>
        <time>2013-05-30T10:33:39Z</time>
      </trkpt>
      <trkpt lat="48.67132" lon="-3.44436">
        <ele>98.67</ele>
        <time>2013-05-30T10:33:56Z</time>
      </trkpt>
      <trkpt lat="48.67243" lon="-3.44441">
        <ele>98.67</ele>
        <time>2013-05-30T10:34:13Z</time>
      </trkpt>
      <trkpt lat="48.67341" lon="-3.44468">
        <ele>99.63</ele>
        <time>2013-05-30T10:34:29Z</time>
      </trkpt>
      <trkpt lat="48.67447" lon="-3.44498">
        <ele>99.63</ele>
        <time>2013-05-30T10:34:46Z</time>
      </trkpt>
      <trkpt lat="48.67548" lon="-3.44505">
        <ele>100.11</ele>
        <time>2013-05-30T10:35:02Z</time>
      </trkpt>
      <trkpt lat="48.6766" lon="-3.44481">
        <ele>100.11</ele>
        <time>2013-05-30T10:35:20Z</time>
      </trkpt>
      <trkpt lat="48.67778" lon="-3.44416">
        <ele>99.63</ele>
        <time>2013-05-30T10:35:39Z</time>
      </trkpt>
      <trkpt lat="48.67857" lon="-3.44374">
        <ele>98.19</ele>
        <time>2013-05-30T10:35:52Z</time>
      </trkpt>
      <trkpt lat="48.67952" lon="-3.44372">
        <ele>98.67</ele>
        <time>2013-05-30T10:36:08Z</time>
      </trkpt>
      <trkpt lat="48.68045" lon="-3.44401">
        <ele>97.23</ele>
        <time>2013-05-30T10:36:22Z</time>
      </trkpt>
      <trkpt lat="48.68146" lon="-3.44428">
        <ele>95.79</ele>
        <time>2013-05-30T10:36:37Z</time>
      </trkpt>
      <trkpt lat="48.6825" lon="-3.44456">
        <ele>95.31</ele>
        <time>2013-05-30T10:36:53Z</time>
      </trkpt>
      <trkpt lat="48.68334" lon="-3.44482">
        <ele>95.31</ele>
        <time>2013-05-30T10:37:07Z</time>
      </trkpt>
      <trkpt lat="48.68434" lon="-3.44504">
        <ele>95.79</ele>
        <time>2013-05-30T10:37:24Z</time>
      </trkpt>
      <trkpt lat="48.68546" lon="-3.4452">
        <ele>94.83</ele>
        <time>2013-05-30T10:37:42Z</time>
      </trkpt>
      <trkpt lat="48.68625" lon="-3.44551">
        <ele>94.83</ele>
        <time>2013-05-30T10:37:56Z</time>
      </trkpt>
      <trkpt lat="48.68728" lon="-3.44571">
        <ele>93.87</ele>
        <time>2013-05-30T10:38:12Z</time>
      </trkpt>
      <trkpt lat="48.68735" lon="-3.44573">
        <ele>94.35</ele>
        <time>2013-05-30T10:38:13Z</time>
      </trkpt>
      <trkpt lat="48.68831" lon="-3.44579">
        <ele>93.87</ele>
        <time>2013-05-30T10:38:28Z</time>
      </trkpt>
      <trkpt lat="48.68925" lon="-3.44557">
        <ele>94.35</ele>
        <time>2013-05-30T10:38:44Z</time>
      </trkpt>
      <trkpt lat="48.68931" lon="-3.44556">
        <ele>94.35</ele>
        <time>2013-05-30T10:38:45Z</time>
      </trkpt>
      <trkpt lat="48.68937" lon="-3.44555">
        <ele>94.35</ele>
        <time>2013-05-30T10:38:46Z</time>
      </trkpt>
      <trkpt lat="48.69027" lon="-3.44538">
        <ele>96.75</ele>
        <time>2013-05-30T10:39:02Z</time>
      </trkpt>
      <trkpt lat="48.69044" lon="-3.44535">
        <ele>97.23</ele>
        <time>2013-05-30T10:39:05Z</time>
      </trkpt>
      <trkpt lat="48.6905" lon="-3.44534">
        <ele>97.71</ele>
        <time>2013-05-30T10:39:06Z</time>
      </trkpt>
      <trkpt lat="48.6909" lon="-3.44523">
        <ele>98.67</ele>
        <time>2013-05-30T10:39:14Z</time>
      </trkpt>
      <trkpt lat="48.69095" lon="-3.44522">
        <ele>98.19</ele>
        <time>2013-05-30T10:39:15Z</time>
      </trkpt>
      <trkpt lat="48.691" lon="-3.4452">
        <ele>98.19</ele>
        <time>2013-05-30T10:39:16Z</time>
      </trkpt>
      <trkpt lat="48.6919" lon="-3.44491">
        <ele>98.19</ele>
        <time>2013-05-30T10:39:32Z</time>
      </trkpt>
      <trkpt lat="48.6928" lon="-3.44465">
        <ele>99.15</ele>
        <time>2013-05-30T10:39:47Z</time>
      </trkpt>
      <trkpt lat="48.69309" lon="-3.44465">
        <ele>99.63</ele>
        <time>2013-05-30T10:39:52Z</time>
      </trkpt>
      <trkpt lat="48.6939" lon="-3.44498">
        <ele>101.08</ele>
        <time>2013-05-30T10:40:07Z</time>
      </trkpt>
      <trkpt lat="48.69453" lon="-3.44527">
        <ele>99.63</ele>
        <time>2013-05-30T10:40:19Z</time>
      </trkpt>
      <trkpt lat="48.69523" lon="-3.44581">
        <ele>96.75</ele>
        <time>2013-05-30T10:40:31Z</time>
      </trkpt>
      <trkpt lat="48.69604" lon="-3.44642">
        <ele>93.87</ele>
        <time>2013-05-30T10:40:44Z</time>
      </trkpt>
      <trkpt lat="48.6973" lon="-3.44718">
        <ele>91.46</ele>
        <time>2013-05-30T10:41:03Z</time>
      </trkpt>
      <trkpt lat="48.69755" lon="-3.44729">
        <ele>90.5</ele>
        <time>2013-05-30T10:41:07Z</time>
      </trkpt>
      <trkpt lat="48.69781" lon="-3.44736">
        <ele>90.5</ele>
        <time>2013-05-30T10:41:11Z</time>
      </trkpt>
      <trkpt lat="48.69787" lon="-3.44738">
        <ele>90.02</ele>
        <time>2013-05-30T10:41:12Z</time>
      </trkpt>
      <trkpt lat="48.69901" lon="-3.44768">
        <ele>88.1</ele>
        <time>2013-05-30T10:41:29Z</time>
      </trkpt>
      <trkpt lat="48.70031" lon="-3.4479">
        <ele>85.69</ele>
        <time>2013-05-30T10:41:48Z</time>
      </trkpt>
      <trkpt lat="48.70128" lon="-3.44807">
        <ele>85.21</ele>
        <time>2013-05-30T10:42:03Z</time>
      </trkpt>
      <trkpt lat="48.70215" lon="-3.44811">
        <ele>84.73</ele>
        <time>2013-05-30T10:42:17Z</time>
      </trkpt>
      <trkpt lat="48.70221" lon="-3.44811">
        <ele>84.73</ele>
        <time>2013-05-30T10:42:18Z</time>
      </trkpt>
      <trkpt lat="48.70251" lon="-3.44815">
        <ele>84.73</ele>
        <time>2013-05-30T10:42:23Z</time>
      </trkpt>
      <trkpt lat="48.70291" lon="-3.44818">
        <ele>84.73</ele>
        <time>2013-05-30T10:42:30Z</time>
      </trkpt>
      <trkpt lat="48.70298" lon="-3.44817">
        <ele>84.73</ele>
        <time>2013-05-30T10:42:31Z</time>
      </trkpt>
      <trkpt lat="48.70334" lon="-3.44826">
        <ele>84.73</ele>
        <time>2013-05-30T10:42:37Z</time>
      </trkpt>
      <trkpt lat="48.7034" lon="-3.44828">
        <ele>84.73</ele>
        <time>2013-05-30T10:42:38Z</time>
      </trkpt>
      <trkpt lat="48.70375" lon="-3.44844">
        <ele>84.73</ele>
        <time>2013-05-30T10:42:44Z</time>
      </trkpt>
      <trkpt lat="48.70381" lon="-3.44845">
        <ele>84.73</ele>
        <time>2013-05-30T10:42:45Z</time>
      </trkpt>
      <trkpt lat="48.70405" lon="-3.44846">
        <ele>85.69</ele>
        <time>2013-05-30T10:42:49Z</time>
      </trkpt>
      <trkpt lat="48.70411" lon="-3.44844">
        <ele>85.69</ele>
        <time>2013-05-30T10:42:50Z</time>
      </trkpt>
      <trkpt lat="48.70423" lon="-3.44838">
        <ele>86.18</ele>
        <time>2013-05-30T10:42:52Z</time>
      </trkpt>
      <trkpt lat="48.70429" lon="-3.44835">
        <ele>85.69</ele>
        <time>2013-05-30T10:42:53Z</time>
      </trkpt>
      <trkpt lat="48.70505" lon="-3.44807">
        <ele>85.69</ele>
        <time>2013-05-30T10:43:06Z</time>
      </trkpt>
      <trkpt lat="48.70512" lon="-3.44807">
        <ele>86.18</ele>
        <time>2013-05-30T10:43:07Z</time>
      </trkpt>
      <trkpt lat="48.70573" lon="-3.44812">
        <ele>85.69</ele>
        <time>2013-05-30T10:43:17Z</time>
      </trkpt>
      <trkpt lat="48.70676" lon="-3.44797">
        <ele>84.25</ele>
        <time>2013-05-30T10:43:32Z</time>
      </trkpt>
      <trkpt lat="48.70709" lon="-3.44803">
        <ele>80.89</ele>
        <time>2013-05-30T10:43:36Z</time>
      </trkpt>
      <trkpt lat="48.70762" lon="-3.44821">
        <ele>76.56</ele>
        <time>2013-05-30T10:43:42Z</time>
      </trkpt>
      <trkpt lat="48.70859" lon="-3.44877">
        <ele>73.68</ele>
        <time>2013-05-30T10:43:53Z</time>
      </trkpt>
      <trkpt lat="48.70918" lon="-3.44924">
        <ele>71.27</ele>
        <time>2013-05-30T10:44:01Z</time>
      </trkpt>
      <trkpt lat="48.71023" lon="-3.44989">
        <ele>70.31</ele>
        <time>2013-05-30T10:44:15Z</time>
      </trkpt>
      <trkpt lat="48.7103" lon="-3.4499">
        <ele>70.31</ele>
        <time>2013-05-30T10:44:16Z</time>
      </trkpt>
      <trkpt lat="48.71141" lon="-3.44994">
        <ele>70.31</ele>
        <time>2013-05-30T10:44:31Z</time>
      </trkpt>
      <trkpt lat="48.71245" lon="-3.45039">
        <ele>68.87</ele>
        <time>2013-05-30T10:44:46Z</time>
      </trkpt>
      <trkpt lat="48.713" lon="-3.45066">
        <ele>69.35</ele>
        <time>2013-05-30T10:44:54Z</time>
      </trkpt>
      <trkpt lat="48.714" lon="-3.45123">
        <ele>67.91</ele>
        <time>2013-05-30T10:45:10Z</time>
      </trkpt>
      <trkpt lat="48.71496" lon="-3.4519">
        <ele>67.43</ele>
        <time>2013-05-30T10:45:26Z</time>
      </trkpt>
      <trkpt lat="48.71565" lon="-3.45242">
        <ele>67.43</ele>
        <time>2013-05-30T10:45:38Z</time>
      </trkpt>
      <trkpt lat="48.7157" lon="-3.45249">
        <ele>67.91</ele>
        <time>2013-05-30T10:45:39Z</time>
      </trkpt>
      <trkpt lat="48.71574" lon="-3.45256">
        <ele>67.91</ele>
        <time>2013-05-30T10:45:40Z</time>
      </trkpt>
      <trkpt lat="48.71579" lon="-3.45263">
        <ele>67.43</ele>
        <time>2013-05-30T10:45:41Z</time>
      </trkpt>
      <trkpt lat="48.71583" lon="-3.45272">
        <ele>66.95</ele>
        <time>2013-05-30T10:45:42Z</time>
      </trkpt>
      <trkpt lat="48.71626" lon="-3.45387">
        <ele>65.51</ele>
        <time>2013-05-30T10:45:55Z</time>
      </trkpt>
      <trkpt lat="48.71666" lon="-3.45489">
        <ele>62.14</ele>
        <time>2013-05-30T10:46:06Z</time>
      </trkpt>
      <trkpt lat="48.71691" lon="-3.45554">
        <ele>60.22</ele>
        <time>2013-05-30T10:46:13Z</time>
      </trkpt>
      <trkpt lat="48.71717" lon="-3.45608">
        <ele>58.78</ele>
        <time>2013-05-30T10:46:19Z</time>
      </trkpt>
      <trkpt lat="48.71723" lon="-3.45617">
        <ele>58.78</ele>
        <time>2013-05-30T10:46:20Z</time>
      </trkpt>
      <trkpt lat="48.71803" lon="-3.45698">
        <ele>54.93</ele>
        <time>2013-05-30T10:46:32Z</time>
      </trkpt>
      <trkpt lat="48.71843" lon="-3.45739">
        <ele>52.53</ele>
        <time>2013-05-30T10:46:38Z</time>
      </trkpt>
      <trkpt lat="48.71904" lon="-3.45799">
        <ele>49.65</ele>
        <time>2013-05-30T10:46:47Z</time>
      </trkpt>
      <trkpt lat="48.71923" lon="-3.45823">
        <ele>49.16</ele>
        <time>2013-05-30T10:46:50Z</time>
      </trkpt>
      <trkpt lat="48.71928" lon="-3.45833">
        <ele>49.16</ele>
        <time>2013-05-30T10:46:51Z</time>
      </trkpt>
      <trkpt lat="48.71931" lon="-3.45844">
        <ele>49.16</ele>
        <time>2013-05-30T10:46:52Z</time>
      </trkpt>
      <trkpt lat="48.7197" lon="-3.45976">
        <ele>45.8</ele>
        <time>2013-05-30T10:47:04Z</time>
      </trkpt>
      <trkpt lat="48.71976" lon="-3.45985">
        <ele>45.32</ele>
        <time>2013-05-30T10:47:05Z</time>
      </trkpt>
      <trkpt lat="48.71983" lon="-3.45992">
        <ele>44.84</ele>
        <time>2013-05-30T10:47:06Z</time>
      </trkpt>
      <trkpt lat="48.71989" lon="-3.46">
        <ele>44.84</ele>
        <time>2013-05-30T10:47:07Z</time>
      </trkpt>
      <trkpt lat="48.71996" lon="-3.46006">
        <ele>44.36</ele>
        <time>2013-05-30T10:47:08Z</time>
      </trkpt>
      <trkpt lat="48.72004" lon="-3.4601">
        <ele>43.88</ele>
        <time>2013-05-30T10:47:09Z</time>
      </trkpt>
      <trkpt lat="48.72011" lon="-3.46014">
        <ele>43.4</ele>
        <time>2013-05-30T10:47:10Z</time>
      </trkpt>
      <trkpt lat="48.72019" lon="-3.46017">
        <ele>43.4</ele>
        <time>2013-05-30T10:47:11Z</time>
      </trkpt>
      <trkpt lat="48.72027" lon="-3.46018">
        <ele>43.4</ele>
        <time>2013-05-30T10:47:12Z</time>
      </trkpt>
      <trkpt lat="48.72035" lon="-3.46018">
        <ele>42.44</ele>
        <time>2013-05-30T10:47:13Z</time>
      </trkpt>
      <trkpt lat="48.72043" lon="-3.46017">
        <ele>41.47</ele>
        <time>2013-05-30T10:47:14Z</time>
      </trkpt>
      <trkpt lat="48.72051" lon="-3.46015">
        <ele>41.47</ele>
        <time>2013-05-30T10:47:15Z</time>
      </trkpt>
      <trkpt lat="48.72059" lon="-3.46012">
        <ele>42.44</ele>
        <time>2013-05-30T10:47:16Z</time>
      </trkpt>
      <trkpt lat="48.72067" lon="-3.46008">
        <ele>41.47</ele>
        <time>2013-05-30T10:47:17Z</time>
      </trkpt>
      <trkpt lat="48.72074" lon="-3.46003">
        <ele>40.99</ele>
        <time>2013-05-30T10:47:18Z</time>
      </trkpt>
      <trkpt lat="48.72125" lon="-3.45966">
        <ele>37.63</ele>
        <time>2013-05-30T10:47:25Z</time>
      </trkpt>
      <trkpt lat="48.7214" lon="-3.45956">
        <ele>36.67</ele>
        <time>2013-05-30T10:47:27Z</time>
      </trkpt>
      <trkpt lat="48.72148" lon="-3.45952">
        <ele>36.67</ele>
        <time>2013-05-30T10:47:28Z</time>
      </trkpt>
      <trkpt lat="48.72156" lon="-3.4595">
        <ele>36.67</ele>
        <time>2013-05-30T10:47:29Z</time>
      </trkpt>
      <trkpt lat="48.72164" lon="-3.4595">
        <ele>36.19</ele>
        <time>2013-05-30T10:47:30Z</time>
      </trkpt>
      <trkpt lat="48.72173" lon="-3.45951">
        <ele>35.71</ele>
        <time>2013-05-30T10:47:31Z</time>
      </trkpt>
      <trkpt lat="48.72181" lon="-3.45954">
        <ele>35.71</ele>
        <time>2013-05-30T10:47:32Z</time>
      </trkpt>
      <trkpt lat="48.72189" lon="-3.45958">
        <ele>36.19</ele>
        <time>2013-05-30T10:47:33Z</time>
      </trkpt>
      <trkpt lat="48.72197" lon="-3.45962">
        <ele>36.67</ele>
        <time>2013-05-30T10:47:34Z</time>
      </trkpt>
      <trkpt lat="48.72227" lon="-3.45976">
        <ele>34.26</ele>
        <time>2013-05-30T10:47:38Z</time>
      </trkpt>
      <trkpt lat="48.72279" lon="-3.46">
        <ele>32.34</ele>
        <time>2013-05-30T10:47:45Z</time>
      </trkpt>
      <trkpt lat="48.72311" lon="-3.46008">
        <ele>31.38</ele>
        <time>2013-05-30T10:47:49Z</time>
      </trkpt>
      <trkpt lat="48.72358" lon="-3.45997">
        <ele>28.98</ele>
        <time>2013-05-30T10:47:55Z</time>
      </trkpt>
      <trkpt lat="48.72406" lon="-3.45988">
        <ele>26.57</ele>
        <time>2013-05-30T10:48:01Z</time>
      </trkpt>
      <trkpt lat="48.72414" lon="-3.45989">
        <ele>26.09</ele>
        <time>2013-05-30T10:48:02Z</time>
      </trkpt>
      <trkpt lat="48.72422" lon="-3.45992">
        <ele>26.57</ele>
        <time>2013-05-30T10:48:03Z</time>
      </trkpt>
      <trkpt lat="48.72503" lon="-3.46026">
        <ele>22.73</ele>
        <time>2013-05-30T10:48:14Z</time>
      </trkpt>
      <trkpt lat="48.72542" lon="-3.46033">
        <ele>21.77</ele>
        <time>2013-05-30T10:48:19Z</time>
      </trkpt>
      <trkpt lat="48.72565" lon="-3.46029">
        <ele>20.32</ele>
        <time>2013-05-30T10:48:22Z</time>
      </trkpt>
      <trkpt lat="48.72611" lon="-3.46016">
        <ele>18.4</ele>
        <time>2013-05-30T10:48:28Z</time>
      </trkpt>
      <trkpt lat="48.72673" lon="-3.46002">
        <ele>15.52</ele>
        <time>2013-05-30T10:48:36Z</time>
      </trkpt>
      <trkpt lat="48.7271" lon="-3.45991">
        <ele>12.63</ele>
        <time>2013-05-30T10:48:41Z</time>
      </trkpt>
      <trkpt lat="48.72761" lon="-3.45979">
        <ele>11.19</ele>
        <time>2013-05-30T10:48:48Z</time>
      </trkpt>
      <trkpt lat="48.72766" lon="-3.45976">
        <ele>10.23</ele>
        <time>2013-05-30T10:48:49Z</time>
      </trkpt>
      <trkpt lat="48.72772" lon="-3.45973">
        <ele>10.23</ele>
        <time>2013-05-30T10:48:50Z</time>
      </trkpt>
      <trkpt lat="48.72778" lon="-3.45972">
        <ele>10.23</ele>
        <time>2013-05-30T10:48:51Z</time>
      </trkpt>
      <trkpt lat="48.72784" lon="-3.45972">
        <ele>10.23</ele>
        <time>2013-05-30T10:48:52Z</time>
      </trkpt>
      <trkpt lat="48.72796" lon="-3.45972">
        <ele>10.71</ele>
        <time>2013-05-30T10:48:54Z</time>
      </trkpt>
      <trkpt lat="48.72802" lon="-3.45971">
        <ele>11.19</ele>
        <time>2013-05-30T10:48:55Z</time>
      </trkpt>
      <trkpt lat="48.72865" lon="-3.45956">
        <ele>11.67</ele>
        <time>2013-05-30T10:49:07Z</time>
      </trkpt>
      <trkpt lat="48.7287" lon="-3.45957">
        <ele>11.67</ele>
        <time>2013-05-30T10:49:08Z</time>
      </trkpt>
      <trkpt lat="48.72875" lon="-3.4596">
        <ele>11.67</ele>
        <time>2013-05-30T10:49:09Z</time>
      </trkpt>
      <trkpt lat="48.7288" lon="-3.45964">
        <ele>11.19</ele>
        <time>2013-05-30T10:49:10Z</time>
      </trkpt>
      <trkpt lat="48.72883" lon="-3.4597">
        <ele>12.15</ele>
        <time>2013-05-30T10:49:11Z</time>
      </trkpt>
      <trkpt lat="48.7289" lon="-3.45981">
        <ele>11.67</ele>
        <time>2013-05-30T10:49:13Z</time>
      </trkpt>
      <trkpt lat="48.72892" lon="-3.45986">
        <ele>12.63</ele>
        <time>2013-05-30T10:49:14Z</time>
      </trkpt>
      <trkpt lat="48.72895" lon="-3.45991">
        <ele>11.67</ele>
        <time>2013-05-30T10:49:15Z</time>
      </trkpt>
      <trkpt lat="48.72898" lon="-3.45995">
        <ele>12.15</ele>
        <time>2013-05-30T10:49:16Z</time>
      </trkpt>
      <trkpt lat="48.72901" lon="-3.45998">
        <ele>12.15</ele>
        <time>2013-05-30T10:49:17Z</time>
      </trkpt>
      <trkpt lat="48.72905" lon="-3.46001">
        <ele>11.67</ele>
        <time>2013-05-30T10:49:18Z</time>
      </trkpt>
      <trkpt lat="48.72909" lon="-3.46004">
        <ele>12.15</ele>
        <time>2013-05-30T10:49:19Z</time>
      </trkpt>
      <trkpt lat="48.72914" lon="-3.46008">
        <ele>11.67</ele>
        <time>2013-05-30T10:49:20Z</time>
      </trkpt>
      <trkpt lat="48.72923" lon="-3.46015">
        <ele>12.15</ele>
        <time>2013-05-30T10:49:22Z</time>
      </trkpt>
      <trkpt lat="48.72928" lon="-3.46018">
        <ele>12.63</ele>
        <time>2013-05-30T10:49:23Z</time>
      </trkpt>
      <trkpt lat="48.72989" lon="-3.46044">
        <ele>11.67</ele>
        <time>2013-05-30T10:49:34Z</time>
      </trkpt>
      <trkpt lat="48.72995" lon="-3.46044">
        <ele>11.67</ele>
        <time>2013-05-30T10:49:35Z</time>
      </trkpt>
      <trkpt lat="48.73001" lon="-3.46043">
        <ele>12.15</ele>
        <time>2013-05-30T10:49:36Z</time>
      </trkpt>
      <trkpt lat="48.73031" lon="-3.46032">
        <ele>13.12</ele>
        <time>2013-05-30T10:49:42Z</time>
      </trkpt>
      <trkpt lat="48.7304" lon="-3.46025">
        <ele>12.63</ele>
        <time>2013-05-30T10:49:44Z</time>
      </trkpt>
      <trkpt lat="48.73044" lon="-3.4602">
        <ele>12.15</ele>
        <time>2013-05-30T10:49:45Z</time>
      </trkpt>
      <trkpt lat="48.73047" lon="-3.46014">
        <ele>11.67</ele>
        <time>2013-05-30T10:49:46Z</time>
      </trkpt>
      <trkpt lat="48.73064" lon="-3.45992">
        <ele>12.15</ele>
        <time>2013-05-30T10:49:51Z</time>
      </trkpt>
      <trkpt lat="48.73067" lon="-3.45989">
        <ele>12.15</ele>
        <time>2013-05-30T10:49:52Z</time>
      </trkpt>
      <trkpt lat="48.73071" lon="-3.45987">
        <ele>11.67</ele>
        <time>2013-05-30T10:49:53Z</time>
      </trkpt>
      <trkpt lat="48.73075" lon="-3.45986">
        <ele>11.67</ele>
        <time>2013-05-30T10:49:54Z</time>
      </trkpt>
      <trkpt lat="48.73079" lon="-3.45985">
        <ele>11.19</ele>
        <time>2013-05-30T10:49:55Z</time>
      </trkpt>
      <trkpt lat="48.73083" lon="-3.45985">
        <ele>11.19</ele>
        <time>2013-05-30T10:49:56Z</time>
      </trkpt>
      <trkpt lat="48.73086" lon="-3.45987">
        <ele>11.19</ele>
        <time>2013-05-30T10:49:57Z</time>
      </trkpt>
      <trkpt lat="48.7309" lon="-3.45989">
        <ele>11.19</ele>
        <time>2013-05-30T10:49:58Z</time>
      </trkpt>
      <trkpt lat="48.73093" lon="-3.45993">
        <ele>11.19</ele>
        <time>2013-05-30T10:49:59Z</time>
      </trkpt>
      <trkpt lat="48.73097" lon="-3.45997">
        <ele>11.19</ele>
        <time>2013-05-30T10:50:00Z</time>
      </trkpt>
      <trkpt lat="48.73101" lon="-3.46001">
        <ele>10.71</ele>
        <time>2013-05-30T10:50:01Z</time>
      </trkpt>
      <trkpt lat="48.73118" lon="-3.46023">
        <ele>10.23</ele>
        <time>2013-05-30T10:50:06Z</time>
      </trkpt>
      <trkpt lat="48.73121" lon="-3.46027">
        <ele>10.23</ele>
        <time>2013-05-30T10:50:07Z</time>
      </trkpt>
      <trkpt lat="48.73137" lon="-3.46051">
        <ele>10.23</ele>
        <time>2013-05-30T10:50:12Z</time>
      </trkpt>
      <trkpt lat="48.7314" lon="-3.46055">
        <ele>10.23</ele>
        <time>2013-05-30T10:50:13Z</time>
      </trkpt>
      <trkpt lat="48.73143" lon="-3.4606">
        <ele>10.23</ele>
        <time>2013-05-30T10:50:14Z</time>
      </trkpt>
      <trkpt lat="48.73149" lon="-3.4607">
        <ele>11.19</ele>
        <time>2013-05-30T10:50:16Z</time>
      </trkpt>
      <trkpt lat="48.73158" lon="-3.46084">
        <ele>11.19</ele>
        <time>2013-05-30T10:50:19Z</time>
      </trkpt>
      <trkpt lat="48.73164" lon="-3.46094">
        <ele>10.71</ele>
        <time>2013-05-30T10:50:21Z</time>
      </trkpt>
      <trkpt lat="48.73171" lon="-3.46104">
        <ele>10.71</ele>
        <time>2013-05-30T10:50:23Z</time>
      </trkpt>
      <trkpt lat="48.73175" lon="-3.46109">
        <ele>11.19</ele>
        <time>2013-05-30T10:50:24Z</time>
      </trkpt>
      <trkpt lat="48.73182" lon="-3.46118">
        <ele>11.19</ele>
        <time>2013-05-30T10:50:26Z</time>
      </trkpt>
      <trkpt lat="48.73189" lon="-3.46129">
        <ele>11.67</ele>
        <time>2013-05-30T10:50:28Z</time>
      </trkpt>
      <trkpt lat="48.73192" lon="-3.46134">
        <ele>11.67</ele>
        <time>2013-05-30T10:50:29Z</time>
      </trkpt>
      <trkpt lat="48.73221" lon="-3.46175">
        <ele>11.67</ele>
        <time>2013-05-30T10:50:38Z</time>
      </trkpt>
      <trkpt lat="48.73224" lon="-3.46174">
        <ele>11.67</ele>
        <time>2013-05-30T10:50:39Z</time>
      </trkpt>
      <trkpt lat="48.73228" lon="-3.46171">
        <ele>12.63</ele>
        <time>2013-05-30T10:50:40Z</time>
      </trkpt>
      <trkpt lat="48.73231" lon="-3.46168">
        <ele>13.12</ele>
        <time>2013-05-30T10:50:41Z</time>
      </trkpt>
      <trkpt lat="48.73234" lon="-3.46164">
        <ele>12.63</ele>
        <time>2013-05-30T10:50:42Z</time>
      </trkpt>
      <trkpt lat="48.73236" lon="-3.4616">
        <ele>12.63</ele>
        <time>2013-05-30T10:50:43Z</time>
      </trkpt>
      <trkpt lat="48.73238" lon="-3.46155">
        <ele>12.63</ele>
        <time>2013-05-30T10:50:44Z</time>
      </trkpt>
      <trkpt lat="48.7324" lon="-3.46151">
        <ele>12.63</ele>
        <time>2013-05-30T10:50:45Z</time>
      </trkpt>
      <trkpt lat="48.73264" lon="-3.46079">
        <ele>16</ele>
        <time>2013-05-30T10:51:00Z</time>
      </trkpt>
      <trkpt lat="48.73281" lon="-3.46019">
        <ele>18.88</ele>
        <time>2013-05-30T10:51:12Z</time>
      </trkpt>
      <trkpt lat="48.73303" lon="-3.45971">
        <ele>19.36</ele>
        <time>2013-05-30T10:51:23Z</time>
      </trkpt>
      <trkpt lat="48.7331" lon="-3.45962">
        <ele>18.4</ele>
        <time>2013-05-30T10:51:25Z</time>
      </trkpt>
      <trkpt lat="48.73315" lon="-3.45959">
        <ele>17.92</ele>
        <time>2013-05-30T10:51:26Z</time>
      </trkpt>
      <trkpt lat="48.73321" lon="-3.45955">
        <ele>16.96</ele>
        <time>2013-05-30T10:51:27Z</time>
      </trkpt>
      <trkpt lat="48.73328" lon="-3.4595">
        <ele>16</ele>
        <time>2013-05-30T10:51:28Z</time>
      </trkpt>
      <trkpt lat="48.73336" lon="-3.45946">
        <ele>15.52</ele>
        <time>2013-05-30T10:51:29Z</time>
      </trkpt>
      <trkpt lat="48.73423" lon="-3.45907">
        <ele>16.48</ele>
        <time>2013-05-30T10:51:41Z</time>
      </trkpt>
      <trkpt lat="48.73436" lon="-3.45895">
        <ele>16.48</ele>
        <time>2013-05-30T10:51:44Z</time>
      </trkpt>
      <trkpt lat="48.73439" lon="-3.4589">
        <ele>16.48</ele>
        <time>2013-05-30T10:51:45Z</time>
      </trkpt>
      <trkpt lat="48.73442" lon="-3.45885">
        <ele>16.96</ele>
        <time>2013-05-30T10:51:46Z</time>
      </trkpt>
      <trkpt lat="48.73445" lon="-3.4588">
        <ele>17.44</ele>
        <time>2013-05-30T10:51:47Z</time>
      </trkpt>
      <trkpt lat="48.73448" lon="-3.45874">
        <ele>17.92</ele>
        <time>2013-05-30T10:51:48Z</time>
      </trkpt>
      <trkpt lat="48.73455" lon="-3.45851">
        <ele>16.48</ele>
        <time>2013-05-30T10:51:52Z</time>
      </trkpt>
      <trkpt lat="48.7346" lon="-3.45827">
        <ele>16.48</ele>
        <time>2013-05-30T10:51:56Z</time>
      </trkpt>
      <trkpt lat="48.7346" lon="-3.45821">
        <ele>16</ele>
        <time>2013-05-30T10:51:57Z</time>
      </trkpt>
      <trkpt lat="48.73459" lon="-3.45814">
        <ele>16</ele>
        <time>2013-05-30T10:51:58Z</time>
      </trkpt>
      <trkpt lat="48.73458" lon="-3.45808">
        <ele>16</ele>
        <time>2013-05-30T10:51:59Z</time>
      </trkpt>
      <trkpt lat="48.73456" lon="-3.45802">
        <ele>16</ele>
        <time>2013-05-30T10:52:00Z</time>
      </trkpt>
      <trkpt lat="48.73454" lon="-3.45796">
        <ele>15.52</ele>
        <time>2013-05-30T10:52:01Z</time>
      </trkpt>
      <trkpt lat="48.73446" lon="-3.45769">
        <ele>16.48</ele>
        <time>2013-05-30T10:52:06Z</time>
      </trkpt>
      <trkpt lat="48.73443" lon="-3.45763">
        <ele>16.48</ele>
        <time>2013-05-30T10:52:07Z</time>
      </trkpt>
      <trkpt lat="48.73441" lon="-3.45757">
        <ele>16.48</ele>
        <time>2013-05-30T10:52:08Z</time>
      </trkpt>
      <trkpt lat="48.73439" lon="-3.45751">
        <ele>16.48</ele>
        <time>2013-05-30T10:52:09Z</time>
      </trkpt>
      <trkpt lat="48.73437" lon="-3.45745">
        <ele>16.48</ele>
        <time>2013-05-30T10:52:10Z</time>
      </trkpt>
      <trkpt lat="48.73435" lon="-3.45739">
        <ele>16.48</ele>
        <time>2013-05-30T10:52:11Z</time>
      </trkpt>
      <trkpt lat="48.73435" lon="-3.45732">
        <ele>16.96</ele>
        <time>2013-05-30T10:52:12Z</time>
      </trkpt>
      <trkpt lat="48.73436" lon="-3.45726">
        <ele>16.96</ele>
        <time>2013-05-30T10:52:13Z</time>
      </trkpt>
      <trkpt lat="48.73439" lon="-3.45719">
        <ele>16.96</ele>
        <time>2013-05-30T10:52:14Z</time>
      </trkpt>
      <trkpt lat="48.73442" lon="-3.45713">
        <ele>16.96</ele>
        <time>2013-05-30T10:52:15Z</time>
      </trkpt>
      <trkpt lat="48.73445" lon="-3.45707">
        <ele>16.96</ele>
        <time>2013-05-30T10:52:16Z</time>
      </trkpt>
      <trkpt lat="48.73449" lon="-3.45701">
        <ele>16.96</ele>
        <time>2013-05-30T10:52:17Z</time>
      </trkpt>
      <trkpt lat="48.73461" lon="-3.4568">
        <ele>16.96</ele>
        <time>2013-05-30T10:52:20Z</time>
      </trkpt>
      <trkpt lat="48.73472" lon="-3.4566">
        <ele>16.96</ele>
        <time>2013-05-30T10:52:23Z</time>
      </trkpt>
      <trkpt lat="48.73474" lon="-3.45652">
        <ele>16.96</ele>
        <time>2013-05-30T10:52:24Z</time>
      </trkpt>
      <trkpt lat="48.73476" lon="-3.45644">
        <ele>16.96</ele>
        <time>2013-05-30T10:52:25Z</time>
      </trkpt>
      <trkpt lat="48.73478" lon="-3.45635">
        <ele>16.96</ele>
        <time>2013-05-30T10:52:26Z</time>
      </trkpt>
      <trkpt lat="48.7348" lon="-3.45627">
        <ele>16.96</ele>
        <time>2013-05-30T10:52:27Z</time>
      </trkpt>
      <trkpt lat="48.73492" lon="-3.45562">
        <ele>17.92</ele>
        <time>2013-05-30T10:52:35Z</time>
      </trkpt>
      <trkpt lat="48.73502" lon="-3.45534">
        <ele>18.4</ele>
        <time>2013-05-30T10:52:40Z</time>
      </trkpt>
      <trkpt lat="48.73506" lon="-3.45531">
        <ele>18.88</ele>
        <time>2013-05-30T10:52:41Z</time>
      </trkpt>
      <trkpt lat="48.7351" lon="-3.4553">
        <ele>18.88</ele>
        <time>2013-05-30T10:52:42Z</time>
      </trkpt>
      <trkpt lat="48.73554" lon="-3.45525">
        <ele>21.77</ele>
        <time>2013-05-30T10:52:53Z</time>
      </trkpt>
      <trkpt lat="48.73598" lon="-3.45511">
        <ele>23.69</ele>
        <time>2013-05-30T10:53:06Z</time>
      </trkpt>
      <trkpt lat="48.73636" lon="-3.45521">
        <ele>26.09</ele>
        <time>2013-05-30T10:53:19Z</time>
      </trkpt>
      <trkpt lat="48.73674" lon="-3.45529">
        <ele>29.46</ele>
        <time>2013-05-30T10:53:33Z</time>
      </trkpt>
      <trkpt lat="48.73712" lon="-3.45516">
        <ele>31.86</ele>
        <time>2013-05-30T10:53:45Z</time>
      </trkpt>
      <trkpt lat="48.73763" lon="-3.45501">
        <ele>34.26</ele>
        <time>2013-05-30T10:54:02Z</time>
      </trkpt>
      <trkpt lat="48.738" lon="-3.45493">
        <ele>36.19</ele>
        <time>2013-05-30T10:54:14Z</time>
      </trkpt>
      <trkpt lat="48.73853" lon="-3.45491">
        <ele>38.59</ele>
        <time>2013-05-30T10:54:29Z</time>
      </trkpt>
      <trkpt lat="48.73895" lon="-3.45491">
        <ele>41.47</ele>
        <time>2013-05-30T10:54:41Z</time>
      </trkpt>
      <trkpt lat="48.73949" lon="-3.45519">
        <ele>43.4</ele>
        <time>2013-05-30T10:54:57Z</time>
      </trkpt>
      <trkpt lat="48.73998" lon="-3.4554">
        <ele>45.8</ele>
        <time>2013-05-30T10:55:12Z</time>
      </trkpt>
      <trkpt lat="48.74041" lon="-3.45549">
        <ele>48.68</ele>
        <time>2013-05-30T10:55:25Z</time>
      </trkpt>
      <trkpt lat="48.74058" lon="-3.45553">
        <ele>51.09</ele>
        <time>2013-05-30T10:55:30Z</time>
      </trkpt>
      <trkpt lat="48.74068" lon="-3.45557">
        <ele>49.16</ele>
        <time>2013-05-30T10:55:33Z</time>
      </trkpt>
      <trkpt lat="48.74116" lon="-3.45582">
        <ele>52.05</ele>
        <time>2013-05-30T10:55:48Z</time>
      </trkpt>
      <trkpt lat="48.74162" lon="-3.45579">
        <ele>54.45</ele>
        <time>2013-05-30T10:56:02Z</time>
      </trkpt>
      <trkpt lat="48.74215" lon="-3.45572">
        <ele>57.82</ele>
        <time>2013-05-30T10:56:17Z</time>
      </trkpt>
      <trkpt lat="48.74268" lon="-3.45564">
        <ele>59.26</ele>
        <time>2013-05-30T10:56:32Z</time>
      </trkpt>
      <trkpt lat="48.74311" lon="-3.45528">
        <ele>62.62</ele>
        <time>2013-05-30T10:56:46Z</time>
      </trkpt>
      <trkpt lat="48.74342" lon="-3.45505">
        <ele>64.55</ele>
        <time>2013-05-30T10:56:58Z</time>
      </trkpt>
      <trkpt lat="48.74384" lon="-3.45462">
        <ele>67.43</ele>
        <time>2013-05-30T10:57:11Z</time>
      </trkpt>
      <trkpt lat="48.74402" lon="-3.454">
        <ele>70.31</ele>
        <time>2013-05-30T10:57:23Z</time>
      </trkpt>
      <trkpt lat="48.74402" lon="-3.45395">
        <ele>70.79</ele>
        <time>2013-05-30T10:57:24Z</time>
      </trkpt>
      <trkpt lat="48.744" lon="-3.45332">
        <ele>72.24</ele>
        <time>2013-05-30T10:57:36Z</time>
      </trkpt>
      <trkpt lat="48.74399" lon="-3.4528">
        <ele>73.2</ele>
        <time>2013-05-30T10:57:54Z</time>
      </trkpt>
      <trkpt lat="48.74401" lon="-3.45272">
        <ele>74.16</ele>
        <time>2013-05-30T10:58:06Z</time>
      </trkpt>
      <trkpt lat="48.74401" lon="-3.4527">
        <ele>73.68</ele>
        <time>2013-05-30T10:58:07Z</time>
      </trkpt>
      <trkpt lat="48.74402" lon="-3.45268">
        <ele>73.68</ele>
        <time>2013-05-30T10:58:08Z</time>
      </trkpt>
      <trkpt lat="48.74402" lon="-3.45265">
        <ele>74.16</ele>
        <time>2013-05-30T10:58:09Z</time>
      </trkpt>
      <trkpt lat="48.74402" lon="-3.45262">
        <ele>74.16</ele>
        <time>2013-05-30T10:58:10Z</time>
      </trkpt>
      <trkpt lat="48.74403" lon="-3.45259">
        <ele>73.68</ele>
        <time>2013-05-30T10:58:11Z</time>
      </trkpt>
      <trkpt lat="48.74404" lon="-3.45256">
        <ele>74.16</ele>
        <time>2013-05-30T10:58:12Z</time>
      </trkpt>
      <trkpt lat="48.74406" lon="-3.45253">
        <ele>74.16</ele>
        <time>2013-05-30T10:58:13Z</time>
      </trkpt>
      <trkpt lat="48.7441" lon="-3.45252">
        <ele>74.64</ele>
        <time>2013-05-30T10:58:14Z</time>
      </trkpt>
      <trkpt lat="48.74414" lon="-3.45254">
        <ele>75.12</ele>
        <time>2013-05-30T10:58:15Z</time>
      </trkpt>
      <trkpt lat="48.74417" lon="-3.45256">
        <ele>75.6</ele>
        <time>2013-05-30T10:58:16Z</time>
      </trkpt>
      <trkpt lat="48.7442" lon="-3.4526">
        <ele>75.6</ele>
        <time>2013-05-30T10:58:17Z</time>
      </trkpt>
      <trkpt lat="48.74423" lon="-3.45264">
        <ele>75.12</ele>
        <time>2013-05-30T10:58:18Z</time>
      </trkpt>
      <trkpt lat="48.74464" lon="-3.45311">
        <ele>71.76</ele>
        <time>2013-05-30T10:58:27Z</time>
      </trkpt>
      <trkpt lat="48.74469" lon="-3.45318">
        <ele>71.76</ele>
        <time>2013-05-30T10:58:28Z</time>
      </trkpt>
      <trkpt lat="48.74498" lon="-3.45356">
        <ele>68.39</ele>
        <time>2013-05-30T10:58:33Z</time>
      </trkpt>
      <trkpt lat="48.74534" lon="-3.45406">
        <ele>66.47</ele>
        <time>2013-05-30T10:58:38Z</time>
      </trkpt>
      <trkpt lat="48.74539" lon="-3.45417">
        <ele>66.47</ele>
        <time>2013-05-30T10:58:39Z</time>
      </trkpt>
      <trkpt lat="48.74571" lon="-3.45478">
        <ele>65.51</ele>
        <time>2013-05-30T10:58:48Z</time>
      </trkpt>
      <trkpt lat="48.74579" lon="-3.4549">
        <ele>66.95</ele>
        <time>2013-05-30T10:58:51Z</time>
      </trkpt>
      <trkpt lat="48.74596" lon="-3.45509">
        <ele>68.39</ele>
        <time>2013-05-30T10:58:57Z</time>
      </trkpt>
      <trkpt lat="48.746" lon="-3.4551">
        <ele>68.39</ele>
        <time>2013-05-30T10:58:58Z</time>
      </trkpt>
      <trkpt lat="48.74603" lon="-3.45508">
        <ele>68.39</ele>
        <time>2013-05-30T10:58:59Z</time>
      </trkpt>
      <trkpt lat="48.74606" lon="-3.45504">
        <ele>68.87</ele>
        <time>2013-05-30T10:59:00Z</time>
      </trkpt>
      <trkpt lat="48.74608" lon="-3.455">
        <ele>69.35</ele>
        <time>2013-05-30T10:59:01Z</time>
      </trkpt>
      <trkpt lat="48.74626" lon="-3.45465">
        <ele>71.76</ele>
        <time>2013-05-30T10:59:11Z</time>
      </trkpt>
      <trkpt lat="48.74628" lon="-3.45466">
        <ele>72.24</ele>
        <time>2013-05-30T10:59:12Z</time>
      </trkpt>
      <trkpt lat="48.74631" lon="-3.45468">
        <ele>72.24</ele>
        <time>2013-05-30T10:59:13Z</time>
      </trkpt>
      <trkpt lat="48.74632" lon="-3.45471">
        <ele>72.24</ele>
        <time>2013-05-30T10:59:14Z</time>
      </trkpt>
      <trkpt lat="48.74634" lon="-3.45473">
        <ele>72.72</ele>
        <time>2013-05-30T10:59:15Z</time>
      </trkpt>
      <trkpt lat="48.74644" lon="-3.45483">
        <ele>74.16</ele>
        <time>2013-05-30T10:59:21Z</time>
      </trkpt>
      <trkpt lat="48.74646" lon="-3.45482">
        <ele>74.16</ele>
        <time>2013-05-30T10:59:22Z</time>
      </trkpt>
      <trkpt lat="48.74648" lon="-3.45481">
        <ele>74.16</ele>
        <time>2013-05-30T10:59:23Z</time>
      </trkpt>
      <trkpt lat="48.7465" lon="-3.45481">
        <ele>74.16</ele>
        <time>2013-05-30T10:59:24Z</time>
      </trkpt>
      <trkpt lat="48.74651" lon="-3.45484">
        <ele>74.16</ele>
        <time>2013-05-30T10:59:25Z</time>
      </trkpt>
      <trkpt lat="48.74652" lon="-3.45487">
        <ele>74.16</ele>
        <time>2013-05-30T10:59:26Z</time>
      </trkpt>
      <trkpt lat="48.74652" lon="-3.4549">
        <ele>74.64</ele>
        <time>2013-05-30T10:59:27Z</time>
      </trkpt>
      <trkpt lat="48.74653" lon="-3.45493">
        <ele>75.12</ele>
        <time>2013-05-30T10:59:28Z</time>
      </trkpt>
      <trkpt lat="48.74654" lon="-3.45495">
        <ele>74.64</ele>
        <time>2013-05-30T10:59:29Z</time>
      </trkpt>
      <trkpt lat="48.74656" lon="-3.45497">
        <ele>75.12</ele>
        <time>2013-05-30T10:59:30Z</time>
      </trkpt>
      <trkpt lat="48.74681" lon="-3.45521">
        <ele>76.56</ele>
        <time>2013-05-30T10:59:42Z</time>
      </trkpt>
      <trkpt lat="48.74683" lon="-3.4552">
        <ele>76.56</ele>
        <time>2013-05-30T10:59:43Z</time>
      </trkpt>
      <trkpt lat="48.74685" lon="-3.45517">
        <ele>77.04</ele>
        <time>2013-05-30T10:59:44Z</time>
      </trkpt>
      <trkpt lat="48.74687" lon="-3.45515">
        <ele>76.56</ele>
        <time>2013-05-30T10:59:45Z</time>
      </trkpt>
      <trkpt lat="48.74689" lon="-3.45513">
        <ele>76.56</ele>
        <time>2013-05-30T10:59:46Z</time>
      </trkpt>
      <trkpt lat="48.7469" lon="-3.4551">
        <ele>76.56</ele>
        <time>2013-05-30T10:59:47Z</time>
      </trkpt>
      <trkpt lat="48.74691" lon="-3.45508">
        <ele>76.56</ele>
        <time>2013-05-30T10:59:48Z</time>
      </trkpt>
      <trkpt lat="48.74691" lon="-3.45506">
        <ele>77.04</ele>
        <time>2013-05-30T10:59:49Z</time>
      </trkpt>
      <trkpt lat="48.74696" lon="-3.45502">
        <ele>75.6</ele>
        <time>2013-05-30T11:00:01Z</time>
      </trkpt>
      <trkpt lat="48.74695" lon="-3.45502">
        <ele>77.04</ele>
        <time>2013-05-30T11:00:12Z</time>
      </trkpt>
      <trkpt lat="48.74696" lon="-3.45501">
        <ele>76.56</ele>
        <time>2013-05-30T11:00:25Z</time>
      </trkpt>
    </trkseg>
  </trk>
</gpx>